<?xml version="1.0" encoding="UTF-8" standalone="no" ?>
<gpx xmlns="http://www.topografix.com/GPX/1/1" xmlns:xsi="http://www.w3.org/2001/XMLSchema-instance" xsi:schemaLocation="http://www.topografix.com/GPX/1/1 http://www.topografix.com/GPX/1/1/gpx.xsd" version="1.1" creator="VisuGPX - https://www.visugpx.com">
  <metadata>
    <name>j5 St-Martin-Vesubie--Roquebilliere</name>
    <desc><![CDATA[De St Martin Vésubie à Roquebillière par le GR 52 A, puis par le PR vers Roquebillière-Vieux par la vallée de la Vésubie et remontée à Roquebillière.]]></desc>
  </metadata>
  <trk>
    <name><![CDATA[20180623160722-Epmaa]]></name>
    <trkseg>
      <trkpt lat="44.06959" lon="7.25573">
        <ele>959</ele>
        <time>2018-06-16T05:32:52Z</time>
      </trkpt>
      <trkpt lat="44.06958" lon="7.25575">
        <ele>959</ele>
        <time>2018-06-16T05:33:02Z</time>
      </trkpt>
      <trkpt lat="44.06958" lon="7.25575">
        <ele>959</ele>
        <time>2018-06-16T05:33:17Z</time>
      </trkpt>
      <trkpt lat="44.06958" lon="7.25575">
        <ele>959</ele>
        <time>2018-06-16T05:33:20Z</time>
      </trkpt>
      <trkpt lat="44.06958" lon="7.25575">
        <ele>959</ele>
        <time>2018-06-16T05:33:24Z</time>
      </trkpt>
      <trkpt lat="44.0696" lon="7.25577">
        <ele>959</ele>
        <time>2018-06-16T05:33:29Z</time>
      </trkpt>
      <trkpt lat="44.0696" lon="7.25577">
        <ele>959</ele>
        <time>2018-06-16T05:33:30Z</time>
      </trkpt>
      <trkpt lat="44.0696" lon="7.25577">
        <ele>959</ele>
        <time>2018-06-16T05:33:32Z</time>
      </trkpt>
      <trkpt lat="44.0696" lon="7.25577">
        <ele>959</ele>
        <time>2018-06-16T05:33:37Z</time>
      </trkpt>
      <trkpt lat="44.0696" lon="7.25577">
        <ele>959</ele>
        <time>2018-06-16T05:33:42Z</time>
      </trkpt>
      <trkpt lat="44.06961" lon="7.25577">
        <ele>959</ele>
        <time>2018-06-16T05:33:51Z</time>
      </trkpt>
      <trkpt lat="44.06961" lon="7.25577">
        <ele>959</ele>
        <time>2018-06-16T05:33:58Z</time>
      </trkpt>
      <trkpt lat="44.06961" lon="7.25577">
        <ele>959</ele>
        <time>2018-06-16T05:34:10Z</time>
      </trkpt>
      <trkpt lat="44.06962" lon="7.2558">
        <ele>959</ele>
        <time>2018-06-16T05:34:32Z</time>
      </trkpt>
      <trkpt lat="44.06963" lon="7.25594">
        <ele>964</ele>
        <time>2018-06-16T05:34:49Z</time>
      </trkpt>
      <trkpt lat="44.06962" lon="7.25606">
        <ele>964</ele>
        <time>2018-06-16T05:35:13Z</time>
      </trkpt>
      <trkpt lat="44.06956" lon="7.25609">
        <ele>964</ele>
        <time>2018-06-16T05:35:51Z</time>
      </trkpt>
      <trkpt lat="44.06944" lon="7.2561">
        <ele>963</ele>
        <time>2018-06-16T05:36:02Z</time>
      </trkpt>
      <trkpt lat="44.06941" lon="7.2561">
        <ele>963</ele>
        <time>2018-06-16T05:36:05Z</time>
      </trkpt>
      <trkpt lat="44.06929" lon="7.25607">
        <ele>962</ele>
        <time>2018-06-16T05:36:16Z</time>
      </trkpt>
      <trkpt lat="44.06917" lon="7.25593">
        <ele>961</ele>
        <time>2018-06-16T05:36:30Z</time>
      </trkpt>
      <trkpt lat="44.06909" lon="7.25584">
        <ele>959</ele>
        <time>2018-06-16T05:36:42Z</time>
      </trkpt>
      <trkpt lat="44.06901" lon="7.2558">
        <ele>955</ele>
        <time>2018-06-16T05:36:54Z</time>
      </trkpt>
      <trkpt lat="44.06898" lon="7.25581">
        <ele>955</ele>
        <time>2018-06-16T05:37:08Z</time>
      </trkpt>
      <trkpt lat="44.06893" lon="7.25571">
        <ele>953</ele>
        <time>2018-06-16T05:37:21Z</time>
      </trkpt>
      <trkpt lat="44.06881" lon="7.25562">
        <ele>951</ele>
        <time>2018-06-16T05:37:35Z</time>
      </trkpt>
      <trkpt lat="44.06868" lon="7.25556">
        <ele>950</ele>
        <time>2018-06-16T05:37:47Z</time>
      </trkpt>
      <trkpt lat="44.06864" lon="7.25551">
        <ele>950</ele>
        <time>2018-06-16T05:37:54Z</time>
      </trkpt>
      <trkpt lat="44.06863" lon="7.25544">
        <ele>949</ele>
        <time>2018-06-16T05:37:58Z</time>
      </trkpt>
      <trkpt lat="44.06863" lon="7.25536">
        <ele>948</ele>
        <time>2018-06-16T05:38:04Z</time>
      </trkpt>
      <trkpt lat="44.06874" lon="7.25532">
        <ele>948</ele>
        <time>2018-06-16T05:38:16Z</time>
      </trkpt>
      <trkpt lat="44.0688" lon="7.25525">
        <ele>948</ele>
        <time>2018-06-16T05:38:26Z</time>
      </trkpt>
      <trkpt lat="44.0688" lon="7.25524">
        <ele>948</ele>
        <time>2018-06-16T05:38:27Z</time>
      </trkpt>
      <trkpt lat="44.06881" lon="7.2552">
        <ele>948</ele>
        <time>2018-06-16T05:38:33Z</time>
      </trkpt>
      <trkpt lat="44.06876" lon="7.25522">
        <ele>947</ele>
        <time>2018-06-16T05:38:41Z</time>
      </trkpt>
      <trkpt lat="44.06873" lon="7.25523">
        <ele>947</ele>
        <time>2018-06-16T05:38:44Z</time>
      </trkpt>
      <trkpt lat="44.06858" lon="7.25522">
        <ele>946</ele>
        <time>2018-06-16T05:38:59Z</time>
      </trkpt>
      <trkpt lat="44.06851" lon="7.25522">
        <ele>945</ele>
        <time>2018-06-16T05:39:05Z</time>
      </trkpt>
      <trkpt lat="44.06845" lon="7.25521">
        <ele>944</ele>
        <time>2018-06-16T05:39:10Z</time>
      </trkpt>
      <trkpt lat="44.06838" lon="7.25522">
        <ele>944</ele>
        <time>2018-06-16T05:39:16Z</time>
      </trkpt>
      <trkpt lat="44.06834" lon="7.25529">
        <ele>945</ele>
        <time>2018-06-16T05:39:22Z</time>
      </trkpt>
      <trkpt lat="44.06826" lon="7.25526">
        <ele>937</ele>
        <time>2018-06-16T05:39:30Z</time>
      </trkpt>
      <trkpt lat="44.06818" lon="7.25532">
        <ele>938</ele>
        <time>2018-06-16T05:39:40Z</time>
      </trkpt>
      <trkpt lat="44.06815" lon="7.25536">
        <ele>938</ele>
        <time>2018-06-16T05:39:44Z</time>
      </trkpt>
      <trkpt lat="44.06808" lon="7.25543">
        <ele>938</ele>
        <time>2018-06-16T05:39:53Z</time>
      </trkpt>
      <trkpt lat="44.06801" lon="7.25547">
        <ele>938</ele>
        <time>2018-06-16T05:40:00Z</time>
      </trkpt>
      <trkpt lat="44.06791" lon="7.25548">
        <ele>937</ele>
        <time>2018-06-16T05:40:05Z</time>
      </trkpt>
      <trkpt lat="44.0678" lon="7.25543">
        <ele>936</ele>
        <time>2018-06-16T05:40:16Z</time>
      </trkpt>
      <trkpt lat="44.06776" lon="7.25542">
        <ele>935</ele>
        <time>2018-06-16T05:40:19Z</time>
      </trkpt>
      <trkpt lat="44.0677" lon="7.25546">
        <ele>935</ele>
        <time>2018-06-16T05:40:23Z</time>
      </trkpt>
      <trkpt lat="44.06766" lon="7.25546">
        <ele>935</ele>
        <time>2018-06-16T05:40:26Z</time>
      </trkpt>
      <trkpt lat="44.06749" lon="7.25551">
        <ele>924</ele>
        <time>2018-06-16T05:40:40Z</time>
      </trkpt>
      <trkpt lat="44.06745" lon="7.25553">
        <ele>924</ele>
        <time>2018-06-16T05:40:44Z</time>
      </trkpt>
      <trkpt lat="44.06743" lon="7.25554">
        <ele>924</ele>
        <time>2018-06-16T05:40:46Z</time>
      </trkpt>
      <trkpt lat="44.06728" lon="7.25565">
        <ele>924</ele>
        <time>2018-06-16T05:41:01Z</time>
      </trkpt>
      <trkpt lat="44.0672" lon="7.25583">
        <ele>924</ele>
        <time>2018-06-16T05:41:14Z</time>
      </trkpt>
      <trkpt lat="44.06718" lon="7.25589">
        <ele>926</ele>
        <time>2018-06-16T05:41:19Z</time>
      </trkpt>
      <trkpt lat="44.0671" lon="7.25596">
        <ele>925</ele>
        <time>2018-06-16T05:41:27Z</time>
      </trkpt>
      <trkpt lat="44.06711" lon="7.2561">
        <ele>925</ele>
        <time>2018-06-16T05:41:39Z</time>
      </trkpt>
      <trkpt lat="44.06712" lon="7.25618">
        <ele>925</ele>
        <time>2018-06-16T05:41:43Z</time>
      </trkpt>
      <trkpt lat="44.06713" lon="7.25624">
        <ele>925</ele>
        <time>2018-06-16T05:41:47Z</time>
      </trkpt>
      <trkpt lat="44.06712" lon="7.25628">
        <ele>925</ele>
        <time>2018-06-16T05:41:50Z</time>
      </trkpt>
      <trkpt lat="44.06719" lon="7.25652">
        <ele>926</ele>
        <time>2018-06-16T05:42:06Z</time>
      </trkpt>
      <trkpt lat="44.06718" lon="7.25664">
        <ele>926</ele>
        <time>2018-06-16T05:42:12Z</time>
      </trkpt>
      <trkpt lat="44.06716" lon="7.25671">
        <ele>929</ele>
        <time>2018-06-16T05:42:17Z</time>
      </trkpt>
      <trkpt lat="44.06706" lon="7.25692">
        <ele>929</ele>
        <time>2018-06-16T05:42:33Z</time>
      </trkpt>
      <trkpt lat="44.06705" lon="7.25696">
        <ele>930</ele>
        <time>2018-06-16T05:42:35Z</time>
      </trkpt>
      <trkpt lat="44.06701" lon="7.25705">
        <ele>930</ele>
        <time>2018-06-16T05:42:42Z</time>
      </trkpt>
      <trkpt lat="44.06692" lon="7.2573">
        <ele>932</ele>
        <time>2018-06-16T05:42:58Z</time>
      </trkpt>
      <trkpt lat="44.0669" lon="7.25734">
        <ele>933</ele>
        <time>2018-06-16T05:43:01Z</time>
      </trkpt>
      <trkpt lat="44.06675" lon="7.25738">
        <ele>935</ele>
        <time>2018-06-16T05:43:13Z</time>
      </trkpt>
      <trkpt lat="44.0666" lon="7.25737">
        <ele>934</ele>
        <time>2018-06-16T05:43:23Z</time>
      </trkpt>
      <trkpt lat="44.06646" lon="7.25732">
        <ele>932</ele>
        <time>2018-06-16T05:43:36Z</time>
      </trkpt>
      <trkpt lat="44.06636" lon="7.25728">
        <ele>931</ele>
        <time>2018-06-16T05:43:44Z</time>
      </trkpt>
      <trkpt lat="44.06617" lon="7.25725">
        <ele>931</ele>
        <time>2018-06-16T05:43:58Z</time>
      </trkpt>
      <trkpt lat="44.06613" lon="7.25733">
        <ele>932</ele>
        <time>2018-06-16T05:44:10Z</time>
      </trkpt>
      <trkpt lat="44.06608" lon="7.2574">
        <ele>933</ele>
        <time>2018-06-16T05:44:23Z</time>
      </trkpt>
      <trkpt lat="44.06598" lon="7.25748">
        <ele>935</ele>
        <time>2018-06-16T05:44:35Z</time>
      </trkpt>
      <trkpt lat="44.06592" lon="7.25757">
        <ele>944</ele>
        <time>2018-06-16T05:44:50Z</time>
      </trkpt>
      <trkpt lat="44.06586" lon="7.25765">
        <ele>946</ele>
        <time>2018-06-16T05:45:03Z</time>
      </trkpt>
      <trkpt lat="44.06583" lon="7.25777">
        <ele>949</ele>
        <time>2018-06-16T05:45:17Z</time>
      </trkpt>
      <trkpt lat="44.0658" lon="7.25789">
        <ele>952</ele>
        <time>2018-06-16T05:45:32Z</time>
      </trkpt>
      <trkpt lat="44.06578" lon="7.25797">
        <ele>954</ele>
        <time>2018-06-16T05:45:45Z</time>
      </trkpt>
      <trkpt lat="44.06576" lon="7.25801">
        <ele>955</ele>
        <time>2018-06-16T05:45:50Z</time>
      </trkpt>
      <trkpt lat="44.06573" lon="7.25811">
        <ele>957</ele>
        <time>2018-06-16T05:46:02Z</time>
      </trkpt>
      <trkpt lat="44.06569" lon="7.25817">
        <ele>958</ele>
        <time>2018-06-16T05:46:13Z</time>
      </trkpt>
      <trkpt lat="44.06566" lon="7.25824">
        <ele>959</ele>
        <time>2018-06-16T05:46:25Z</time>
      </trkpt>
      <trkpt lat="44.06562" lon="7.25831">
        <ele>959</ele>
        <time>2018-06-16T05:46:36Z</time>
      </trkpt>
      <trkpt lat="44.06559" lon="7.25838">
        <ele>973</ele>
        <time>2018-06-16T05:46:51Z</time>
      </trkpt>
      <trkpt lat="44.06553" lon="7.25842">
        <ele>974</ele>
        <time>2018-06-16T05:47:03Z</time>
      </trkpt>
      <trkpt lat="44.06549" lon="7.25848">
        <ele>974</ele>
        <time>2018-06-16T05:47:17Z</time>
      </trkpt>
      <trkpt lat="44.06547" lon="7.25851">
        <ele>974</ele>
        <time>2018-06-16T05:47:28Z</time>
      </trkpt>
      <trkpt lat="44.06544" lon="7.25858">
        <ele>975</ele>
        <time>2018-06-16T05:47:43Z</time>
      </trkpt>
      <trkpt lat="44.06539" lon="7.25863">
        <ele>976</ele>
        <time>2018-06-16T05:47:59Z</time>
      </trkpt>
      <trkpt lat="44.0653" lon="7.25868">
        <ele>976</ele>
        <time>2018-06-16T05:48:12Z</time>
      </trkpt>
      <trkpt lat="44.06529" lon="7.25877">
        <ele>978</ele>
        <time>2018-06-16T05:48:23Z</time>
      </trkpt>
      <trkpt lat="44.06525" lon="7.25885">
        <ele>979</ele>
        <time>2018-06-16T05:48:36Z</time>
      </trkpt>
      <trkpt lat="44.06523" lon="7.25893">
        <ele>981</ele>
        <time>2018-06-16T05:48:49Z</time>
      </trkpt>
      <trkpt lat="44.06521" lon="7.25902">
        <ele>982</ele>
        <time>2018-06-16T05:49:03Z</time>
      </trkpt>
      <trkpt lat="44.06517" lon="7.25906">
        <ele>983</ele>
        <time>2018-06-16T05:49:15Z</time>
      </trkpt>
      <trkpt lat="44.06512" lon="7.25913">
        <ele>985</ele>
        <time>2018-06-16T05:49:26Z</time>
      </trkpt>
      <trkpt lat="44.06509" lon="7.2592">
        <ele>997</ele>
        <time>2018-06-16T05:49:38Z</time>
      </trkpt>
      <trkpt lat="44.06505" lon="7.25925">
        <ele>997</ele>
        <time>2018-06-16T05:49:49Z</time>
      </trkpt>
      <trkpt lat="44.06498" lon="7.25929">
        <ele>997</ele>
        <time>2018-06-16T05:50:00Z</time>
      </trkpt>
      <trkpt lat="44.06487" lon="7.25932">
        <ele>999</ele>
        <time>2018-06-16T05:50:13Z</time>
      </trkpt>
      <trkpt lat="44.06482" lon="7.25937">
        <ele>1001</ele>
        <time>2018-06-16T05:50:27Z</time>
      </trkpt>
      <trkpt lat="44.06476" lon="7.2594">
        <ele>1003</ele>
        <time>2018-06-16T05:50:39Z</time>
      </trkpt>
      <trkpt lat="44.06472" lon="7.25943">
        <ele>1004</ele>
        <time>2018-06-16T05:50:50Z</time>
      </trkpt>
      <trkpt lat="44.0646" lon="7.25952">
        <ele>1006</ele>
        <time>2018-06-16T05:51:07Z</time>
      </trkpt>
      <trkpt lat="44.06455" lon="7.25957">
        <ele>1007</ele>
        <time>2018-06-16T05:51:18Z</time>
      </trkpt>
      <trkpt lat="44.0645" lon="7.25959">
        <ele>1007</ele>
        <time>2018-06-16T05:51:31Z</time>
      </trkpt>
      <trkpt lat="44.0645" lon="7.25961">
        <ele>1007</ele>
        <time>2018-06-16T05:51:42Z</time>
      </trkpt>
      <trkpt lat="44.0645" lon="7.25961">
        <ele>1007</ele>
        <time>2018-06-16T05:52:26Z</time>
      </trkpt>
      <trkpt lat="44.06447" lon="7.2596">
        <ele>1007</ele>
        <time>2018-06-16T05:52:41Z</time>
      </trkpt>
      <trkpt lat="44.06447" lon="7.25959">
        <ele>1006</ele>
        <time>2018-06-16T05:53:10Z</time>
      </trkpt>
      <trkpt lat="44.06448" lon="7.25959">
        <ele>1007</ele>
        <time>2018-06-16T05:53:28Z</time>
      </trkpt>
      <trkpt lat="44.06444" lon="7.25957">
        <ele>1006</ele>
        <time>2018-06-16T05:53:41Z</time>
      </trkpt>
      <trkpt lat="44.06445" lon="7.25957">
        <ele>1006</ele>
        <time>2018-06-16T05:53:57Z</time>
      </trkpt>
      <trkpt lat="44.06448" lon="7.25958">
        <ele>1006</ele>
        <time>2018-06-16T05:54:14Z</time>
      </trkpt>
      <trkpt lat="44.06448" lon="7.25959">
        <ele>1007</ele>
        <time>2018-06-16T05:54:27Z</time>
      </trkpt>
      <trkpt lat="44.06448" lon="7.25959">
        <ele>1007</ele>
        <time>2018-06-16T05:54:50Z</time>
      </trkpt>
      <trkpt lat="44.06443" lon="7.25958">
        <ele>1006</ele>
        <time>2018-06-16T05:55:11Z</time>
      </trkpt>
      <trkpt lat="44.06444" lon="7.25959">
        <ele>1006</ele>
        <time>2018-06-16T05:55:34Z</time>
      </trkpt>
      <trkpt lat="44.06446" lon="7.25961">
        <ele>1007</ele>
        <time>2018-06-16T05:56:04Z</time>
      </trkpt>
      <trkpt lat="44.06443" lon="7.25962">
        <ele>1007</ele>
        <time>2018-06-16T05:56:26Z</time>
      </trkpt>
      <trkpt lat="44.06443" lon="7.25962">
        <ele>1007</ele>
        <time>2018-06-16T05:56:53Z</time>
      </trkpt>
      <trkpt lat="44.06444" lon="7.25964">
        <ele>1007</ele>
        <time>2018-06-16T05:57:11Z</time>
      </trkpt>
      <trkpt lat="44.06442" lon="7.25964">
        <ele>1007</ele>
        <time>2018-06-16T05:57:24Z</time>
      </trkpt>
      <trkpt lat="44.06442" lon="7.25964">
        <ele>1007</ele>
        <time>2018-06-16T05:57:26Z</time>
      </trkpt>
      <trkpt lat="44.06443" lon="7.25962">
        <ele>1007</ele>
        <time>2018-06-16T05:57:42Z</time>
      </trkpt>
      <trkpt lat="44.06443" lon="7.25962">
        <ele>1007</ele>
        <time>2018-06-16T05:58:16Z</time>
      </trkpt>
      <trkpt lat="44.06443" lon="7.25961">
        <ele>1007</ele>
        <time>2018-06-16T05:58:35Z</time>
      </trkpt>
      <trkpt lat="44.06443" lon="7.2596">
        <ele>1006</ele>
        <time>2018-06-16T05:59:00Z</time>
      </trkpt>
      <trkpt lat="44.06442" lon="7.2596">
        <ele>1006</ele>
        <time>2018-06-16T05:59:01Z</time>
      </trkpt>
      <trkpt lat="44.06437" lon="7.25963">
        <ele>1007</ele>
        <time>2018-06-16T05:59:12Z</time>
      </trkpt>
      <trkpt lat="44.0643" lon="7.25966">
        <ele>1007</ele>
        <time>2018-06-16T05:59:19Z</time>
      </trkpt>
      <trkpt lat="44.06419" lon="7.25972">
        <ele>1009</ele>
        <time>2018-06-16T05:59:31Z</time>
      </trkpt>
      <trkpt lat="44.06412" lon="7.25973">
        <ele>1002</ele>
        <time>2018-06-16T05:59:43Z</time>
      </trkpt>
      <trkpt lat="44.06408" lon="7.25973">
        <ele>1001</ele>
        <time>2018-06-16T05:59:48Z</time>
      </trkpt>
      <trkpt lat="44.06401" lon="7.25971">
        <ele>1000</ele>
        <time>2018-06-16T05:59:54Z</time>
      </trkpt>
      <trkpt lat="44.0638" lon="7.25975">
        <ele>998</ele>
        <time>2018-06-16T06:00:07Z</time>
      </trkpt>
      <trkpt lat="44.0637" lon="7.25976">
        <ele>997</ele>
        <time>2018-06-16T06:00:15Z</time>
      </trkpt>
      <trkpt lat="44.06355" lon="7.25978">
        <ele>996</ele>
        <time>2018-06-16T06:00:29Z</time>
      </trkpt>
      <trkpt lat="44.06337" lon="7.25988">
        <ele>999</ele>
        <time>2018-06-16T06:00:44Z</time>
      </trkpt>
      <trkpt lat="44.06322" lon="7.25998">
        <ele>993</ele>
        <time>2018-06-16T06:00:59Z</time>
      </trkpt>
      <trkpt lat="44.06307" lon="7.26008">
        <ele>997</ele>
        <time>2018-06-16T06:01:13Z</time>
      </trkpt>
      <trkpt lat="44.06301" lon="7.26015">
        <ele>996</ele>
        <time>2018-06-16T06:01:20Z</time>
      </trkpt>
      <trkpt lat="44.06286" lon="7.26032">
        <ele>995</ele>
        <time>2018-06-16T06:01:36Z</time>
      </trkpt>
      <trkpt lat="44.06276" lon="7.26044">
        <ele>994</ele>
        <time>2018-06-16T06:01:48Z</time>
      </trkpt>
      <trkpt lat="44.06274" lon="7.26052">
        <ele>994</ele>
        <time>2018-06-16T06:01:54Z</time>
      </trkpt>
      <trkpt lat="44.06279" lon="7.26065">
        <ele>995</ele>
        <time>2018-06-16T06:02:06Z</time>
      </trkpt>
      <trkpt lat="44.06288" lon="7.26078">
        <ele>998</ele>
        <time>2018-06-16T06:02:19Z</time>
      </trkpt>
      <trkpt lat="44.06288" lon="7.2608">
        <ele>998</ele>
        <time>2018-06-16T06:02:20Z</time>
      </trkpt>
      <trkpt lat="44.06291" lon="7.26084">
        <ele>1007</ele>
        <time>2018-06-16T06:02:24Z</time>
      </trkpt>
      <trkpt lat="44.06294" lon="7.26092">
        <ele>1008</ele>
        <time>2018-06-16T06:02:28Z</time>
      </trkpt>
      <trkpt lat="44.06294" lon="7.26098">
        <ele>1009</ele>
        <time>2018-06-16T06:02:32Z</time>
      </trkpt>
      <trkpt lat="44.06297" lon="7.26108">
        <ele>1010</ele>
        <time>2018-06-16T06:02:40Z</time>
      </trkpt>
      <trkpt lat="44.06296" lon="7.26112">
        <ele>1010</ele>
        <time>2018-06-16T06:02:42Z</time>
      </trkpt>
      <trkpt lat="44.06296" lon="7.26118">
        <ele>1011</ele>
        <time>2018-06-16T06:02:46Z</time>
      </trkpt>
      <trkpt lat="44.06289" lon="7.26126">
        <ele>1010</ele>
        <time>2018-06-16T06:02:53Z</time>
      </trkpt>
      <trkpt lat="44.06294" lon="7.26146">
        <ele>1013</ele>
        <time>2018-06-16T06:03:05Z</time>
      </trkpt>
      <trkpt lat="44.06297" lon="7.26165">
        <ele>1015</ele>
        <time>2018-06-16T06:03:18Z</time>
      </trkpt>
      <trkpt lat="44.06295" lon="7.2617">
        <ele>1028</ele>
        <time>2018-06-16T06:03:22Z</time>
      </trkpt>
      <trkpt lat="44.06294" lon="7.26174">
        <ele>1028</ele>
        <time>2018-06-16T06:03:24Z</time>
      </trkpt>
      <trkpt lat="44.06283" lon="7.26182">
        <ele>1027</ele>
        <time>2018-06-16T06:03:35Z</time>
      </trkpt>
      <trkpt lat="44.06282" lon="7.26182">
        <ele>1026</ele>
        <time>2018-06-16T06:03:37Z</time>
      </trkpt>
      <trkpt lat="44.0627" lon="7.26187">
        <ele>1025</ele>
        <time>2018-06-16T06:03:48Z</time>
      </trkpt>
      <trkpt lat="44.0626" lon="7.26181">
        <ele>1021</ele>
        <time>2018-06-16T06:04:00Z</time>
      </trkpt>
      <trkpt lat="44.0625" lon="7.26182">
        <ele>1015</ele>
        <time>2018-06-16T06:04:11Z</time>
      </trkpt>
      <trkpt lat="44.0625" lon="7.26182">
        <ele>1015</ele>
        <time>2018-06-16T06:04:12Z</time>
      </trkpt>
      <trkpt lat="44.06238" lon="7.26179">
        <ele>1017</ele>
        <time>2018-06-16T06:04:23Z</time>
      </trkpt>
      <trkpt lat="44.06225" lon="7.26179">
        <ele>1019</ele>
        <time>2018-06-16T06:04:35Z</time>
      </trkpt>
      <trkpt lat="44.06225" lon="7.26179">
        <ele>1019</ele>
        <time>2018-06-16T06:04:36Z</time>
      </trkpt>
      <trkpt lat="44.06216" lon="7.2618">
        <ele>1020</ele>
        <time>2018-06-16T06:04:43Z</time>
      </trkpt>
      <trkpt lat="44.06214" lon="7.26179">
        <ele>1020</ele>
        <time>2018-06-16T06:04:46Z</time>
      </trkpt>
      <trkpt lat="44.06197" lon="7.26159">
        <ele>1001</ele>
        <time>2018-06-16T06:05:00Z</time>
      </trkpt>
      <trkpt lat="44.06189" lon="7.26154">
        <ele>1001</ele>
        <time>2018-06-16T06:05:11Z</time>
      </trkpt>
      <trkpt lat="44.06185" lon="7.26155">
        <ele>1002</ele>
        <time>2018-06-16T06:05:14Z</time>
      </trkpt>
      <trkpt lat="44.06182" lon="7.26155">
        <ele>1003</ele>
        <time>2018-06-16T06:05:16Z</time>
      </trkpt>
      <trkpt lat="44.06171" lon="7.26155">
        <ele>1004</ele>
        <time>2018-06-16T06:05:28Z</time>
      </trkpt>
      <trkpt lat="44.06161" lon="7.26153">
        <ele>997</ele>
        <time>2018-06-16T06:05:38Z</time>
      </trkpt>
      <trkpt lat="44.06147" lon="7.26148">
        <ele>991</ele>
        <time>2018-06-16T06:05:49Z</time>
      </trkpt>
      <trkpt lat="44.06135" lon="7.26148">
        <ele>987</ele>
        <time>2018-06-16T06:06:02Z</time>
      </trkpt>
      <trkpt lat="44.06129" lon="7.26155">
        <ele>987</ele>
        <time>2018-06-16T06:06:10Z</time>
      </trkpt>
      <trkpt lat="44.06115" lon="7.26165">
        <ele>985</ele>
        <time>2018-06-16T06:06:24Z</time>
      </trkpt>
      <trkpt lat="44.06106" lon="7.26178">
        <ele>1000</ele>
        <time>2018-06-16T06:06:37Z</time>
      </trkpt>
      <trkpt lat="44.06104" lon="7.26182">
        <ele>1000</ele>
        <time>2018-06-16T06:06:49Z</time>
      </trkpt>
      <trkpt lat="44.06094" lon="7.26195">
        <ele>1001</ele>
        <time>2018-06-16T06:07:02Z</time>
      </trkpt>
      <trkpt lat="44.06086" lon="7.26205">
        <ele>1004</ele>
        <time>2018-06-16T06:07:12Z</time>
      </trkpt>
      <trkpt lat="44.06076" lon="7.2622">
        <ele>988</ele>
        <time>2018-06-16T06:07:27Z</time>
      </trkpt>
      <trkpt lat="44.06065" lon="7.2623">
        <ele>989</ele>
        <time>2018-06-16T06:07:41Z</time>
      </trkpt>
      <trkpt lat="44.06053" lon="7.26242">
        <ele>987</ele>
        <time>2018-06-16T06:07:53Z</time>
      </trkpt>
      <trkpt lat="44.06045" lon="7.26255">
        <ele>1004</ele>
        <time>2018-06-16T06:08:06Z</time>
      </trkpt>
      <trkpt lat="44.06038" lon="7.26262">
        <ele>1003</ele>
        <time>2018-06-16T06:08:13Z</time>
      </trkpt>
      <trkpt lat="44.06033" lon="7.26272">
        <ele>1004</ele>
        <time>2018-06-16T06:08:22Z</time>
      </trkpt>
      <trkpt lat="44.06024" lon="7.26283">
        <ele>1004</ele>
        <time>2018-06-16T06:08:33Z</time>
      </trkpt>
      <trkpt lat="44.06014" lon="7.26294">
        <ele>1005</ele>
        <time>2018-06-16T06:08:47Z</time>
      </trkpt>
      <trkpt lat="44.06006" lon="7.26305">
        <ele>1007</ele>
        <time>2018-06-16T06:08:58Z</time>
      </trkpt>
      <trkpt lat="44.06001" lon="7.26315">
        <ele>1008</ele>
        <time>2018-06-16T06:09:08Z</time>
      </trkpt>
      <trkpt lat="44.06002" lon="7.2632">
        <ele>1009</ele>
        <time>2018-06-16T06:09:12Z</time>
      </trkpt>
      <trkpt lat="44.05999" lon="7.26328">
        <ele>1003</ele>
        <time>2018-06-16T06:09:17Z</time>
      </trkpt>
      <trkpt lat="44.05995" lon="7.26336">
        <ele>1011</ele>
        <time>2018-06-16T06:09:23Z</time>
      </trkpt>
      <trkpt lat="44.05991" lon="7.26338">
        <ele>1011</ele>
        <time>2018-06-16T06:09:26Z</time>
      </trkpt>
      <trkpt lat="44.05978" lon="7.26345">
        <ele>1011</ele>
        <time>2018-06-16T06:09:38Z</time>
      </trkpt>
      <trkpt lat="44.05969" lon="7.26347">
        <ele>1010</ele>
        <time>2018-06-16T06:09:49Z</time>
      </trkpt>
      <trkpt lat="44.05963" lon="7.26351">
        <ele>1009</ele>
        <time>2018-06-16T06:09:55Z</time>
      </trkpt>
      <trkpt lat="44.05958" lon="7.26362">
        <ele>1010</ele>
        <time>2018-06-16T06:10:05Z</time>
      </trkpt>
      <trkpt lat="44.05957" lon="7.26367">
        <ele>1011</ele>
        <time>2018-06-16T06:10:08Z</time>
      </trkpt>
      <trkpt lat="44.05945" lon="7.26374">
        <ele>1010</ele>
        <time>2018-06-16T06:10:22Z</time>
      </trkpt>
      <trkpt lat="44.0593" lon="7.26382">
        <ele>1009</ele>
        <time>2018-06-16T06:10:35Z</time>
      </trkpt>
      <trkpt lat="44.05918" lon="7.26392">
        <ele>1010</ele>
        <time>2018-06-16T06:10:48Z</time>
      </trkpt>
      <trkpt lat="44.05904" lon="7.26404">
        <ele>993</ele>
        <time>2018-06-16T06:11:02Z</time>
      </trkpt>
      <trkpt lat="44.05892" lon="7.26415">
        <ele>990</ele>
        <time>2018-06-16T06:11:15Z</time>
      </trkpt>
      <trkpt lat="44.05883" lon="7.26428">
        <ele>1001</ele>
        <time>2018-06-16T06:11:28Z</time>
      </trkpt>
      <trkpt lat="44.05883" lon="7.26437">
        <ele>1002</ele>
        <time>2018-06-16T06:11:34Z</time>
      </trkpt>
      <trkpt lat="44.05883" lon="7.26443">
        <ele>1003</ele>
        <time>2018-06-16T06:11:38Z</time>
      </trkpt>
      <trkpt lat="44.05885" lon="7.26456">
        <ele>1005</ele>
        <time>2018-06-16T06:11:48Z</time>
      </trkpt>
      <trkpt lat="44.05887" lon="7.26464">
        <ele>1006</ele>
        <time>2018-06-16T06:11:54Z</time>
      </trkpt>
      <trkpt lat="44.05887" lon="7.26468">
        <ele>1007</ele>
        <time>2018-06-16T06:11:57Z</time>
      </trkpt>
      <trkpt lat="44.0589" lon="7.26485">
        <ele>1011</ele>
        <time>2018-06-16T06:12:09Z</time>
      </trkpt>
      <trkpt lat="44.05894" lon="7.265">
        <ele>1014</ele>
        <time>2018-06-16T06:12:22Z</time>
      </trkpt>
      <trkpt lat="44.05893" lon="7.26506">
        <ele>1027</ele>
        <time>2018-06-16T06:12:32Z</time>
      </trkpt>
      <trkpt lat="44.05885" lon="7.26519">
        <ele>1027</ele>
        <time>2018-06-16T06:12:44Z</time>
      </trkpt>
      <trkpt lat="44.05885" lon="7.26524">
        <ele>1027</ele>
        <time>2018-06-16T06:12:46Z</time>
      </trkpt>
      <trkpt lat="44.0588" lon="7.26532">
        <ele>1027</ele>
        <time>2018-06-16T06:12:52Z</time>
      </trkpt>
      <trkpt lat="44.05872" lon="7.26535">
        <ele>1026</ele>
        <time>2018-06-16T06:13:02Z</time>
      </trkpt>
      <trkpt lat="44.05866" lon="7.26534">
        <ele>1025</ele>
        <time>2018-06-16T06:13:07Z</time>
      </trkpt>
      <trkpt lat="44.05858" lon="7.26535">
        <ele>1024</ele>
        <time>2018-06-16T06:13:19Z</time>
      </trkpt>
      <trkpt lat="44.05854" lon="7.26534">
        <ele>1023</ele>
        <time>2018-06-16T06:13:22Z</time>
      </trkpt>
      <trkpt lat="44.05841" lon="7.2654">
        <ele>1023</ele>
        <time>2018-06-16T06:13:35Z</time>
      </trkpt>
      <trkpt lat="44.05828" lon="7.26542">
        <ele>1005</ele>
        <time>2018-06-16T06:13:46Z</time>
      </trkpt>
      <trkpt lat="44.05819" lon="7.26543">
        <ele>1005</ele>
        <time>2018-06-16T06:13:58Z</time>
      </trkpt>
      <trkpt lat="44.05816" lon="7.26545">
        <ele>1005</ele>
        <time>2018-06-16T06:14:00Z</time>
      </trkpt>
      <trkpt lat="44.0581" lon="7.26551">
        <ele>1006</ele>
        <time>2018-06-16T06:14:07Z</time>
      </trkpt>
      <trkpt lat="44.0579" lon="7.26557">
        <ele>1003</ele>
        <time>2018-06-16T06:14:22Z</time>
      </trkpt>
      <trkpt lat="44.05775" lon="7.26566">
        <ele>1001</ele>
        <time>2018-06-16T06:14:36Z</time>
      </trkpt>
      <trkpt lat="44.0577" lon="7.26571">
        <ele>1001</ele>
        <time>2018-06-16T06:14:42Z</time>
      </trkpt>
      <trkpt lat="44.05756" lon="7.26585">
        <ele>1004</ele>
        <time>2018-06-16T06:14:58Z</time>
      </trkpt>
      <trkpt lat="44.05755" lon="7.26592">
        <ele>1005</ele>
        <time>2018-06-16T06:15:03Z</time>
      </trkpt>
      <trkpt lat="44.05754" lon="7.26595">
        <ele>1006</ele>
        <time>2018-06-16T06:15:05Z</time>
      </trkpt>
      <trkpt lat="44.05754" lon="7.26614">
        <ele>1009</ele>
        <time>2018-06-16T06:15:19Z</time>
      </trkpt>
      <trkpt lat="44.05753" lon="7.26618">
        <ele>1009</ele>
        <time>2018-06-16T06:15:32Z</time>
      </trkpt>
      <trkpt lat="44.05752" lon="7.26619">
        <ele>1009</ele>
        <time>2018-06-16T06:16:24Z</time>
      </trkpt>
      <trkpt lat="44.05752" lon="7.26619">
        <ele>1009</ele>
        <time>2018-06-16T06:17:43Z</time>
      </trkpt>
      <trkpt lat="44.05751" lon="7.2662">
        <ele>1009</ele>
        <time>2018-06-16T06:18:13Z</time>
      </trkpt>
      <trkpt lat="44.05758" lon="7.26627">
        <ele>1009</ele>
        <time>2018-06-16T06:18:51Z</time>
      </trkpt>
      <trkpt lat="44.05759" lon="7.2663">
        <ele>1009</ele>
        <time>2018-06-16T06:18:54Z</time>
      </trkpt>
      <trkpt lat="44.05762" lon="7.26633">
        <ele>1009</ele>
        <time>2018-06-16T06:18:57Z</time>
      </trkpt>
      <trkpt lat="44.0577" lon="7.26647">
        <ele>1009</ele>
        <time>2018-06-16T06:19:09Z</time>
      </trkpt>
      <trkpt lat="44.05779" lon="7.26658">
        <ele>1012</ele>
        <time>2018-06-16T06:19:21Z</time>
      </trkpt>
      <trkpt lat="44.05787" lon="7.26667">
        <ele>1012</ele>
        <time>2018-06-16T06:19:34Z</time>
      </trkpt>
      <trkpt lat="44.05795" lon="7.26683">
        <ele>1014</ele>
        <time>2018-06-16T06:19:48Z</time>
      </trkpt>
      <trkpt lat="44.05799" lon="7.26703">
        <ele>1014</ele>
        <time>2018-06-16T06:20:02Z</time>
      </trkpt>
      <trkpt lat="44.05806" lon="7.26718">
        <ele>1016</ele>
        <time>2018-06-16T06:20:14Z</time>
      </trkpt>
      <trkpt lat="44.05816" lon="7.2673">
        <ele>1019</ele>
        <time>2018-06-16T06:20:26Z</time>
      </trkpt>
      <trkpt lat="44.05822" lon="7.26738">
        <ele>1023</ele>
        <time>2018-06-16T06:20:33Z</time>
      </trkpt>
      <trkpt lat="44.05824" lon="7.26747">
        <ele>1026</ele>
        <time>2018-06-16T06:20:38Z</time>
      </trkpt>
      <trkpt lat="44.05824" lon="7.26756">
        <ele>1023</ele>
        <time>2018-06-16T06:20:43Z</time>
      </trkpt>
      <trkpt lat="44.05824" lon="7.26759">
        <ele>1021</ele>
        <time>2018-06-16T06:20:45Z</time>
      </trkpt>
      <trkpt lat="44.05828" lon="7.26779">
        <ele>1016</ele>
        <time>2018-06-16T06:20:58Z</time>
      </trkpt>
      <trkpt lat="44.0583" lon="7.26797">
        <ele>1014</ele>
        <time>2018-06-16T06:21:10Z</time>
      </trkpt>
      <trkpt lat="44.0583" lon="7.26806">
        <ele>1015</ele>
        <time>2018-06-16T06:21:16Z</time>
      </trkpt>
      <trkpt lat="44.05832" lon="7.26811">
        <ele>1016</ele>
        <time>2018-06-16T06:21:20Z</time>
      </trkpt>
      <trkpt lat="44.05833" lon="7.26816">
        <ele>1017</ele>
        <time>2018-06-16T06:21:23Z</time>
      </trkpt>
      <trkpt lat="44.05833" lon="7.26819">
        <ele>1018</ele>
        <time>2018-06-16T06:21:25Z</time>
      </trkpt>
      <trkpt lat="44.05834" lon="7.26824">
        <ele>1038</ele>
        <time>2018-06-16T06:21:28Z</time>
      </trkpt>
      <trkpt lat="44.05838" lon="7.26841">
        <ele>1036</ele>
        <time>2018-06-16T06:21:41Z</time>
      </trkpt>
      <trkpt lat="44.05846" lon="7.26857">
        <ele>1046</ele>
        <time>2018-06-16T06:21:54Z</time>
      </trkpt>
      <trkpt lat="44.0585" lon="7.26869">
        <ele>1049</ele>
        <time>2018-06-16T06:22:02Z</time>
      </trkpt>
      <trkpt lat="44.05856" lon="7.26884">
        <ele>1050</ele>
        <time>2018-06-16T06:22:15Z</time>
      </trkpt>
      <trkpt lat="44.05854" lon="7.26903">
        <ele>1046</ele>
        <time>2018-06-16T06:22:27Z</time>
      </trkpt>
      <trkpt lat="44.05854" lon="7.26908">
        <ele>1045</ele>
        <time>2018-06-16T06:22:30Z</time>
      </trkpt>
      <trkpt lat="44.05858" lon="7.26924">
        <ele>1047</ele>
        <time>2018-06-16T06:22:43Z</time>
      </trkpt>
      <trkpt lat="44.05859" lon="7.26928">
        <ele>1048</ele>
        <time>2018-06-16T06:22:46Z</time>
      </trkpt>
      <trkpt lat="44.05864" lon="7.26934">
        <ele>1051</ele>
        <time>2018-06-16T06:22:51Z</time>
      </trkpt>
      <trkpt lat="44.05873" lon="7.26941">
        <ele>1055</ele>
        <time>2018-06-16T06:23:00Z</time>
      </trkpt>
      <trkpt lat="44.05878" lon="7.26957">
        <ele>1057</ele>
        <time>2018-06-16T06:23:14Z</time>
      </trkpt>
      <trkpt lat="44.05878" lon="7.26959">
        <ele>1057</ele>
        <time>2018-06-16T06:23:15Z</time>
      </trkpt>
      <trkpt lat="44.05877" lon="7.26961">
        <ele>1057</ele>
        <time>2018-06-16T06:23:17Z</time>
      </trkpt>
      <trkpt lat="44.05874" lon="7.26969">
        <ele>1056</ele>
        <time>2018-06-16T06:23:23Z</time>
      </trkpt>
      <trkpt lat="44.05871" lon="7.26974">
        <ele>1056</ele>
        <time>2018-06-16T06:23:26Z</time>
      </trkpt>
      <trkpt lat="44.0587" lon="7.26978">
        <ele>1056</ele>
        <time>2018-06-16T06:23:29Z</time>
      </trkpt>
      <trkpt lat="44.05859" lon="7.26994">
        <ele>1053</ele>
        <time>2018-06-16T06:23:43Z</time>
      </trkpt>
      <trkpt lat="44.05853" lon="7.27003">
        <ele>1058</ele>
        <time>2018-06-16T06:23:54Z</time>
      </trkpt>
      <trkpt lat="44.05845" lon="7.2701">
        <ele>1056</ele>
        <time>2018-06-16T06:24:05Z</time>
      </trkpt>
      <trkpt lat="44.05839" lon="7.27008">
        <ele>1053</ele>
        <time>2018-06-16T06:24:19Z</time>
      </trkpt>
      <trkpt lat="44.05837" lon="7.27007">
        <ele>1052</ele>
        <time>2018-06-16T06:24:21Z</time>
      </trkpt>
      <trkpt lat="44.05824" lon="7.27001">
        <ele>1050</ele>
        <time>2018-06-16T06:24:34Z</time>
      </trkpt>
      <trkpt lat="44.05811" lon="7.27">
        <ele>1053</ele>
        <time>2018-06-16T06:24:47Z</time>
      </trkpt>
      <trkpt lat="44.05804" lon="7.26998">
        <ele>1037</ele>
        <time>2018-06-16T06:24:57Z</time>
      </trkpt>
      <trkpt lat="44.058" lon="7.26998">
        <ele>1037</ele>
        <time>2018-06-16T06:25:00Z</time>
      </trkpt>
      <trkpt lat="44.05782" lon="7.26995">
        <ele>1036</ele>
        <time>2018-06-16T06:25:11Z</time>
      </trkpt>
      <trkpt lat="44.05766" lon="7.2699">
        <ele>1038</ele>
        <time>2018-06-16T06:25:23Z</time>
      </trkpt>
      <trkpt lat="44.05755" lon="7.2699">
        <ele>1040</ele>
        <time>2018-06-16T06:25:34Z</time>
      </trkpt>
      <trkpt lat="44.05746" lon="7.26993">
        <ele>1040</ele>
        <time>2018-06-16T06:25:44Z</time>
      </trkpt>
      <trkpt lat="44.05733" lon="7.26997">
        <ele>1036</ele>
        <time>2018-06-16T06:25:57Z</time>
      </trkpt>
      <trkpt lat="44.0573" lon="7.26999">
        <ele>1035</ele>
        <time>2018-06-16T06:26:04Z</time>
      </trkpt>
      <trkpt lat="44.05728" lon="7.27">
        <ele>1035</ele>
        <time>2018-06-16T06:26:06Z</time>
      </trkpt>
      <trkpt lat="44.05714" lon="7.27002">
        <ele>1055</ele>
        <time>2018-06-16T06:26:18Z</time>
      </trkpt>
      <trkpt lat="44.05709" lon="7.27002">
        <ele>1055</ele>
        <time>2018-06-16T06:26:22Z</time>
      </trkpt>
      <trkpt lat="44.05698" lon="7.27002">
        <ele>1054</ele>
        <time>2018-06-16T06:26:33Z</time>
      </trkpt>
      <trkpt lat="44.05694" lon="7.27001">
        <ele>1053</ele>
        <time>2018-06-16T06:26:37Z</time>
      </trkpt>
      <trkpt lat="44.05678" lon="7.27004">
        <ele>1049</ele>
        <time>2018-06-16T06:26:49Z</time>
      </trkpt>
      <trkpt lat="44.05671" lon="7.27005">
        <ele>1047</ele>
        <time>2018-06-16T06:26:56Z</time>
      </trkpt>
      <trkpt lat="44.05661" lon="7.27006">
        <ele>1044</ele>
        <time>2018-06-16T06:27:07Z</time>
      </trkpt>
      <trkpt lat="44.05647" lon="7.27013">
        <ele>1045</ele>
        <time>2018-06-16T06:27:21Z</time>
      </trkpt>
      <trkpt lat="44.05634" lon="7.27015">
        <ele>1044</ele>
        <time>2018-06-16T06:27:34Z</time>
      </trkpt>
      <trkpt lat="44.05624" lon="7.27019">
        <ele>1043</ele>
        <time>2018-06-16T06:27:45Z</time>
      </trkpt>
      <trkpt lat="44.0561" lon="7.27025">
        <ele>1042</ele>
        <time>2018-06-16T06:27:57Z</time>
      </trkpt>
      <trkpt lat="44.05596" lon="7.27033">
        <ele>1042</ele>
        <time>2018-06-16T06:28:09Z</time>
      </trkpt>
      <trkpt lat="44.05586" lon="7.27046">
        <ele>1045</ele>
        <time>2018-06-16T06:28:22Z</time>
      </trkpt>
      <trkpt lat="44.05585" lon="7.27048">
        <ele>1045</ele>
        <time>2018-06-16T06:28:24Z</time>
      </trkpt>
      <trkpt lat="44.05578" lon="7.27056">
        <ele>1028</ele>
        <time>2018-06-16T06:28:32Z</time>
      </trkpt>
      <trkpt lat="44.05572" lon="7.27067">
        <ele>1032</ele>
        <time>2018-06-16T06:28:44Z</time>
      </trkpt>
      <trkpt lat="44.05569" lon="7.27073">
        <ele>1033</ele>
        <time>2018-06-16T06:28:51Z</time>
      </trkpt>
      <trkpt lat="44.05567" lon="7.27076">
        <ele>1033</ele>
        <time>2018-06-16T06:28:53Z</time>
      </trkpt>
      <trkpt lat="44.05561" lon="7.27085">
        <ele>1043</ele>
        <time>2018-06-16T06:29:00Z</time>
      </trkpt>
      <trkpt lat="44.05553" lon="7.27104">
        <ele>1041</ele>
        <time>2018-06-16T06:29:15Z</time>
      </trkpt>
      <trkpt lat="44.05548" lon="7.27112">
        <ele>1041</ele>
        <time>2018-06-16T06:29:23Z</time>
      </trkpt>
      <trkpt lat="44.05539" lon="7.27126">
        <ele>1040</ele>
        <time>2018-06-16T06:29:35Z</time>
      </trkpt>
      <trkpt lat="44.05529" lon="7.27144">
        <ele>1039</ele>
        <time>2018-06-16T06:29:47Z</time>
      </trkpt>
      <trkpt lat="44.05524" lon="7.27155">
        <ele>1038</ele>
        <time>2018-06-16T06:29:55Z</time>
      </trkpt>
      <trkpt lat="44.05522" lon="7.27157">
        <ele>1037</ele>
        <time>2018-06-16T06:29:57Z</time>
      </trkpt>
      <trkpt lat="44.05513" lon="7.27182">
        <ele>1047</ele>
        <time>2018-06-16T06:30:11Z</time>
      </trkpt>
      <trkpt lat="44.05508" lon="7.27193">
        <ele>1051</ele>
        <time>2018-06-16T06:30:22Z</time>
      </trkpt>
      <trkpt lat="44.05498" lon="7.27207">
        <ele>1028</ele>
        <time>2018-06-16T06:30:35Z</time>
      </trkpt>
      <trkpt lat="44.05487" lon="7.27222">
        <ele>1030</ele>
        <time>2018-06-16T06:30:49Z</time>
      </trkpt>
      <trkpt lat="44.05478" lon="7.27229">
        <ele>1030</ele>
        <time>2018-06-16T06:30:57Z</time>
      </trkpt>
      <trkpt lat="44.05465" lon="7.27243">
        <ele>1027</ele>
        <time>2018-06-16T06:31:10Z</time>
      </trkpt>
      <trkpt lat="44.05457" lon="7.27254">
        <ele>1036</ele>
        <time>2018-06-16T06:31:22Z</time>
      </trkpt>
      <trkpt lat="44.0545" lon="7.27271">
        <ele>1034</ele>
        <time>2018-06-16T06:31:34Z</time>
      </trkpt>
      <trkpt lat="44.05448" lon="7.27287">
        <ele>1035</ele>
        <time>2018-06-16T06:31:46Z</time>
      </trkpt>
      <trkpt lat="44.05446" lon="7.27301">
        <ele>1036</ele>
        <time>2018-06-16T06:31:57Z</time>
      </trkpt>
      <trkpt lat="44.05446" lon="7.27316">
        <ele>1036</ele>
        <time>2018-06-16T06:32:06Z</time>
      </trkpt>
      <trkpt lat="44.05442" lon="7.27337">
        <ele>1042</ele>
        <time>2018-06-16T06:32:20Z</time>
      </trkpt>
      <trkpt lat="44.05442" lon="7.27351">
        <ele>1044</ele>
        <time>2018-06-16T06:32:29Z</time>
      </trkpt>
      <trkpt lat="44.05441" lon="7.27374">
        <ele>1047</ele>
        <time>2018-06-16T06:32:42Z</time>
      </trkpt>
      <trkpt lat="44.05443" lon="7.27393">
        <ele>1048</ele>
        <time>2018-06-16T06:32:54Z</time>
      </trkpt>
      <trkpt lat="44.05444" lon="7.27403">
        <ele>1048</ele>
        <time>2018-06-16T06:33:00Z</time>
      </trkpt>
      <trkpt lat="44.05444" lon="7.27406">
        <ele>1048</ele>
        <time>2018-06-16T06:33:02Z</time>
      </trkpt>
      <trkpt lat="44.05443" lon="7.27416">
        <ele>1048</ele>
        <time>2018-06-16T06:33:09Z</time>
      </trkpt>
      <trkpt lat="44.05442" lon="7.27424">
        <ele>1058</ele>
        <time>2018-06-16T06:33:14Z</time>
      </trkpt>
      <trkpt lat="44.0544" lon="7.27437">
        <ele>1060</ele>
        <time>2018-06-16T06:33:24Z</time>
      </trkpt>
      <trkpt lat="44.05438" lon="7.27444">
        <ele>1061</ele>
        <time>2018-06-16T06:33:28Z</time>
      </trkpt>
      <trkpt lat="44.05434" lon="7.27451">
        <ele>1062</ele>
        <time>2018-06-16T06:33:33Z</time>
      </trkpt>
      <trkpt lat="44.05432" lon="7.2746">
        <ele>1064</ele>
        <time>2018-06-16T06:33:39Z</time>
      </trkpt>
      <trkpt lat="44.05416" lon="7.27474">
        <ele>1040</ele>
        <time>2018-06-16T06:33:52Z</time>
      </trkpt>
      <trkpt lat="44.05405" lon="7.27482">
        <ele>1042</ele>
        <time>2018-06-16T06:34:03Z</time>
      </trkpt>
      <trkpt lat="44.05398" lon="7.27488">
        <ele>1041</ele>
        <time>2018-06-16T06:34:09Z</time>
      </trkpt>
      <trkpt lat="44.05383" lon="7.27499">
        <ele>1037</ele>
        <time>2018-06-16T06:34:22Z</time>
      </trkpt>
      <trkpt lat="44.05379" lon="7.27501">
        <ele>1052</ele>
        <time>2018-06-16T06:34:25Z</time>
      </trkpt>
      <trkpt lat="44.05374" lon="7.27504">
        <ele>1051</ele>
        <time>2018-06-16T06:34:30Z</time>
      </trkpt>
      <trkpt lat="44.05372" lon="7.27506">
        <ele>1051</ele>
        <time>2018-06-16T06:34:32Z</time>
      </trkpt>
      <trkpt lat="44.0536" lon="7.27513">
        <ele>1047</ele>
        <time>2018-06-16T06:34:44Z</time>
      </trkpt>
      <trkpt lat="44.05353" lon="7.27522">
        <ele>1047</ele>
        <time>2018-06-16T06:34:55Z</time>
      </trkpt>
      <trkpt lat="44.05343" lon="7.27534">
        <ele>1048</ele>
        <time>2018-06-16T06:35:07Z</time>
      </trkpt>
      <trkpt lat="44.05338" lon="7.27539">
        <ele>1049</ele>
        <time>2018-06-16T06:35:11Z</time>
      </trkpt>
      <trkpt lat="44.05335" lon="7.27539">
        <ele>1049</ele>
        <time>2018-06-16T06:35:14Z</time>
      </trkpt>
      <trkpt lat="44.05332" lon="7.2754">
        <ele>1028</ele>
        <time>2018-06-16T06:35:18Z</time>
      </trkpt>
      <trkpt lat="44.05323" lon="7.2754">
        <ele>1028</ele>
        <time>2018-06-16T06:35:25Z</time>
      </trkpt>
      <trkpt lat="44.05313" lon="7.2755">
        <ele>1028</ele>
        <time>2018-06-16T06:35:37Z</time>
      </trkpt>
      <trkpt lat="44.05303" lon="7.27567">
        <ele>1028</ele>
        <time>2018-06-16T06:35:51Z</time>
      </trkpt>
      <trkpt lat="44.05303" lon="7.27571">
        <ele>1029</ele>
        <time>2018-06-16T06:35:55Z</time>
      </trkpt>
      <trkpt lat="44.05297" lon="7.27585">
        <ele>1031</ele>
        <time>2018-06-16T06:36:05Z</time>
      </trkpt>
      <trkpt lat="44.05293" lon="7.27596">
        <ele>1030</ele>
        <time>2018-06-16T06:36:12Z</time>
      </trkpt>
      <trkpt lat="44.05291" lon="7.27609">
        <ele>1029</ele>
        <time>2018-06-16T06:36:21Z</time>
      </trkpt>
      <trkpt lat="44.05292" lon="7.27614">
        <ele>1029</ele>
        <time>2018-06-16T06:36:24Z</time>
      </trkpt>
      <trkpt lat="44.05297" lon="7.27625">
        <ele>1030</ele>
        <time>2018-06-16T06:36:33Z</time>
      </trkpt>
      <trkpt lat="44.05305" lon="7.27642">
        <ele>1032</ele>
        <time>2018-06-16T06:36:47Z</time>
      </trkpt>
      <trkpt lat="44.05306" lon="7.27652">
        <ele>1033</ele>
        <time>2018-06-16T06:36:54Z</time>
      </trkpt>
      <trkpt lat="44.05309" lon="7.27671">
        <ele>1029</ele>
        <time>2018-06-16T06:37:06Z</time>
      </trkpt>
      <trkpt lat="44.05309" lon="7.27673">
        <ele>1028</ele>
        <time>2018-06-16T06:37:07Z</time>
      </trkpt>
      <trkpt lat="44.05314" lon="7.27686">
        <ele>1028</ele>
        <time>2018-06-16T06:37:17Z</time>
      </trkpt>
      <trkpt lat="44.05324" lon="7.277">
        <ele>1027</ele>
        <time>2018-06-16T06:37:31Z</time>
      </trkpt>
      <trkpt lat="44.05334" lon="7.27714">
        <ele>1055</ele>
        <time>2018-06-16T06:37:42Z</time>
      </trkpt>
      <trkpt lat="44.05339" lon="7.27722">
        <ele>1053</ele>
        <time>2018-06-16T06:37:49Z</time>
      </trkpt>
      <trkpt lat="44.05343" lon="7.27733">
        <ele>1050</ele>
        <time>2018-06-16T06:37:59Z</time>
      </trkpt>
      <trkpt lat="44.05349" lon="7.27749">
        <ele>1048</ele>
        <time>2018-06-16T06:38:11Z</time>
      </trkpt>
      <trkpt lat="44.05355" lon="7.2776">
        <ele>1043</ele>
        <time>2018-06-16T06:38:23Z</time>
      </trkpt>
      <trkpt lat="44.05364" lon="7.27776">
        <ele>1045</ele>
        <time>2018-06-16T06:38:36Z</time>
      </trkpt>
      <trkpt lat="44.05371" lon="7.27789">
        <ele>1046</ele>
        <time>2018-06-16T06:38:47Z</time>
      </trkpt>
      <trkpt lat="44.05374" lon="7.27795">
        <ele>1046</ele>
        <time>2018-06-16T06:38:51Z</time>
      </trkpt>
      <trkpt lat="44.05384" lon="7.27808">
        <ele>1047</ele>
        <time>2018-06-16T06:39:03Z</time>
      </trkpt>
      <trkpt lat="44.05392" lon="7.27823">
        <ele>1049</ele>
        <time>2018-06-16T06:39:15Z</time>
      </trkpt>
      <trkpt lat="44.054" lon="7.27835">
        <ele>1044</ele>
        <time>2018-06-16T06:39:26Z</time>
      </trkpt>
      <trkpt lat="44.05412" lon="7.27837">
        <ele>1052</ele>
        <time>2018-06-16T06:39:38Z</time>
      </trkpt>
      <trkpt lat="44.05417" lon="7.27846">
        <ele>1064</ele>
        <time>2018-06-16T06:39:47Z</time>
      </trkpt>
      <trkpt lat="44.0542" lon="7.27862">
        <ele>1066</ele>
        <time>2018-06-16T06:39:56Z</time>
      </trkpt>
      <trkpt lat="44.05426" lon="7.27879">
        <ele>1064</ele>
        <time>2018-06-16T06:40:08Z</time>
      </trkpt>
      <trkpt lat="44.05428" lon="7.27894">
        <ele>1060</ele>
        <time>2018-06-16T06:40:21Z</time>
      </trkpt>
      <trkpt lat="44.05432" lon="7.27912">
        <ele>1056</ele>
        <time>2018-06-16T06:40:32Z</time>
      </trkpt>
      <trkpt lat="44.05435" lon="7.27921">
        <ele>1050</ele>
        <time>2018-06-16T06:40:39Z</time>
      </trkpt>
      <trkpt lat="44.05439" lon="7.27941">
        <ele>1053</ele>
        <time>2018-06-16T06:40:52Z</time>
      </trkpt>
      <trkpt lat="44.05442" lon="7.27947">
        <ele>1054</ele>
        <time>2018-06-16T06:40:57Z</time>
      </trkpt>
      <trkpt lat="44.05447" lon="7.27967">
        <ele>1054</ele>
        <time>2018-06-16T06:41:09Z</time>
      </trkpt>
      <trkpt lat="44.05451" lon="7.27981">
        <ele>1053</ele>
        <time>2018-06-16T06:41:18Z</time>
      </trkpt>
      <trkpt lat="44.05451" lon="7.27986">
        <ele>1053</ele>
        <time>2018-06-16T06:41:22Z</time>
      </trkpt>
      <trkpt lat="44.05456" lon="7.28005">
        <ele>1053</ele>
        <time>2018-06-16T06:41:34Z</time>
      </trkpt>
      <trkpt lat="44.05463" lon="7.28017">
        <ele>1056</ele>
        <time>2018-06-16T06:41:46Z</time>
      </trkpt>
      <trkpt lat="44.05472" lon="7.28021">
        <ele>1059</ele>
        <time>2018-06-16T06:41:56Z</time>
      </trkpt>
      <trkpt lat="44.05479" lon="7.28025">
        <ele>1060</ele>
        <time>2018-06-16T06:42:02Z</time>
      </trkpt>
      <trkpt lat="44.05483" lon="7.28032">
        <ele>1061</ele>
        <time>2018-06-16T06:42:08Z</time>
      </trkpt>
      <trkpt lat="44.05483" lon="7.28037">
        <ele>1061</ele>
        <time>2018-06-16T06:42:11Z</time>
      </trkpt>
      <trkpt lat="44.05484" lon="7.28043">
        <ele>1061</ele>
        <time>2018-06-16T06:42:15Z</time>
      </trkpt>
      <trkpt lat="44.05481" lon="7.28056">
        <ele>1061</ele>
        <time>2018-06-16T06:42:23Z</time>
      </trkpt>
      <trkpt lat="44.05478" lon="7.28069">
        <ele>1062</ele>
        <time>2018-06-16T06:42:31Z</time>
      </trkpt>
      <trkpt lat="44.05478" lon="7.28085">
        <ele>1072</ele>
        <time>2018-06-16T06:42:44Z</time>
      </trkpt>
      <trkpt lat="44.05485" lon="7.28097">
        <ele>1073</ele>
        <time>2018-06-16T06:42:56Z</time>
      </trkpt>
      <trkpt lat="44.05489" lon="7.2811">
        <ele>1075</ele>
        <time>2018-06-16T06:43:08Z</time>
      </trkpt>
      <trkpt lat="44.05487" lon="7.28118">
        <ele>1076</ele>
        <time>2018-06-16T06:43:19Z</time>
      </trkpt>
      <trkpt lat="44.05478" lon="7.28127">
        <ele>1076</ele>
        <time>2018-06-16T06:43:30Z</time>
      </trkpt>
      <trkpt lat="44.0547" lon="7.28133">
        <ele>1077</ele>
        <time>2018-06-16T06:43:37Z</time>
      </trkpt>
      <trkpt lat="44.05463" lon="7.28136">
        <ele>1077</ele>
        <time>2018-06-16T06:43:45Z</time>
      </trkpt>
      <trkpt lat="44.05456" lon="7.28138">
        <ele>1077</ele>
        <time>2018-06-16T06:43:50Z</time>
      </trkpt>
      <trkpt lat="44.05454" lon="7.28139">
        <ele>1077</ele>
        <time>2018-06-16T06:43:52Z</time>
      </trkpt>
      <trkpt lat="44.05446" lon="7.28135">
        <ele>1076</ele>
        <time>2018-06-16T06:44:02Z</time>
      </trkpt>
      <trkpt lat="44.05437" lon="7.28127">
        <ele>1074</ele>
        <time>2018-06-16T06:44:14Z</time>
      </trkpt>
      <trkpt lat="44.05436" lon="7.28127">
        <ele>1074</ele>
        <time>2018-06-16T06:44:16Z</time>
      </trkpt>
      <trkpt lat="44.05423" lon="7.28119">
        <ele>1071</ele>
        <time>2018-06-16T06:44:26Z</time>
      </trkpt>
      <trkpt lat="44.05409" lon="7.28117">
        <ele>1068</ele>
        <time>2018-06-16T06:44:38Z</time>
      </trkpt>
      <trkpt lat="44.05399" lon="7.28116">
        <ele>1068</ele>
        <time>2018-06-16T06:44:49Z</time>
      </trkpt>
      <trkpt lat="44.05388" lon="7.28116">
        <ele>1068</ele>
        <time>2018-06-16T06:44:58Z</time>
      </trkpt>
      <trkpt lat="44.05378" lon="7.28115">
        <ele>1068</ele>
        <time>2018-06-16T06:45:09Z</time>
      </trkpt>
      <trkpt lat="44.05376" lon="7.28115">
        <ele>1068</ele>
        <time>2018-06-16T06:45:10Z</time>
      </trkpt>
      <trkpt lat="44.05371" lon="7.28112">
        <ele>1068</ele>
        <time>2018-06-16T06:45:14Z</time>
      </trkpt>
      <trkpt lat="44.05363" lon="7.28111">
        <ele>1067</ele>
        <time>2018-06-16T06:45:20Z</time>
      </trkpt>
      <trkpt lat="44.05353" lon="7.2811">
        <ele>1067</ele>
        <time>2018-06-16T06:45:31Z</time>
      </trkpt>
      <trkpt lat="44.05345" lon="7.2811">
        <ele>1066</ele>
        <time>2018-06-16T06:45:41Z</time>
      </trkpt>
      <trkpt lat="44.05344" lon="7.28111">
        <ele>1066</ele>
        <time>2018-06-16T06:45:42Z</time>
      </trkpt>
      <trkpt lat="44.05334" lon="7.28111">
        <ele>1066</ele>
        <time>2018-06-16T06:45:53Z</time>
      </trkpt>
      <trkpt lat="44.0533" lon="7.28112">
        <ele>1065</ele>
        <time>2018-06-16T06:45:56Z</time>
      </trkpt>
      <trkpt lat="44.05318" lon="7.28114">
        <ele>1066</ele>
        <time>2018-06-16T06:46:10Z</time>
      </trkpt>
      <trkpt lat="44.05315" lon="7.28114">
        <ele>1066</ele>
        <time>2018-06-16T06:46:12Z</time>
      </trkpt>
      <trkpt lat="44.05311" lon="7.28115">
        <ele>1066</ele>
        <time>2018-06-16T06:46:15Z</time>
      </trkpt>
      <trkpt lat="44.05307" lon="7.28117">
        <ele>1067</ele>
        <time>2018-06-16T06:46:19Z</time>
      </trkpt>
      <trkpt lat="44.05303" lon="7.28119">
        <ele>1067</ele>
        <time>2018-06-16T06:46:25Z</time>
      </trkpt>
      <trkpt lat="44.053" lon="7.2812">
        <ele>1068</ele>
        <time>2018-06-16T06:46:28Z</time>
      </trkpt>
      <trkpt lat="44.05298" lon="7.28122">
        <ele>1068</ele>
        <time>2018-06-16T06:46:30Z</time>
      </trkpt>
      <trkpt lat="44.05291" lon="7.28129">
        <ele>1070</ele>
        <time>2018-06-16T06:46:40Z</time>
      </trkpt>
      <trkpt lat="44.0528" lon="7.28134">
        <ele>1071</ele>
        <time>2018-06-16T06:46:50Z</time>
      </trkpt>
      <trkpt lat="44.05272" lon="7.28135">
        <ele>1071</ele>
        <time>2018-06-16T06:47:00Z</time>
      </trkpt>
      <trkpt lat="44.0527" lon="7.28133">
        <ele>1070</ele>
        <time>2018-06-16T06:47:03Z</time>
      </trkpt>
      <trkpt lat="44.05259" lon="7.28131">
        <ele>1070</ele>
        <time>2018-06-16T06:47:14Z</time>
      </trkpt>
      <trkpt lat="44.0525" lon="7.28127">
        <ele>1068</ele>
        <time>2018-06-16T06:47:23Z</time>
      </trkpt>
      <trkpt lat="44.05237" lon="7.28124">
        <ele>1063</ele>
        <time>2018-06-16T06:47:34Z</time>
      </trkpt>
      <trkpt lat="44.05231" lon="7.28122">
        <ele>1063</ele>
        <time>2018-06-16T06:47:40Z</time>
      </trkpt>
      <trkpt lat="44.0522" lon="7.28124">
        <ele>1063</ele>
        <time>2018-06-16T06:47:49Z</time>
      </trkpt>
      <trkpt lat="44.0521" lon="7.28127">
        <ele>1064</ele>
        <time>2018-06-16T06:47:57Z</time>
      </trkpt>
      <trkpt lat="44.05197" lon="7.28129">
        <ele>1064</ele>
        <time>2018-06-16T06:48:09Z</time>
      </trkpt>
      <trkpt lat="44.05185" lon="7.28123">
        <ele>1062</ele>
        <time>2018-06-16T06:48:22Z</time>
      </trkpt>
      <trkpt lat="44.05172" lon="7.2812">
        <ele>1060</ele>
        <time>2018-06-16T06:48:35Z</time>
      </trkpt>
      <trkpt lat="44.05161" lon="7.28118">
        <ele>1059</ele>
        <time>2018-06-16T06:48:46Z</time>
      </trkpt>
      <trkpt lat="44.05148" lon="7.28117">
        <ele>1059</ele>
        <time>2018-06-16T06:48:57Z</time>
      </trkpt>
      <trkpt lat="44.05133" lon="7.28115">
        <ele>1059</ele>
        <time>2018-06-16T06:49:11Z</time>
      </trkpt>
      <trkpt lat="44.05116" lon="7.2811">
        <ele>1058</ele>
        <time>2018-06-16T06:49:25Z</time>
      </trkpt>
      <trkpt lat="44.05105" lon="7.28103">
        <ele>1057</ele>
        <time>2018-06-16T06:49:38Z</time>
      </trkpt>
      <trkpt lat="44.05087" lon="7.28093">
        <ele>1053</ele>
        <time>2018-06-16T06:49:56Z</time>
      </trkpt>
      <trkpt lat="44.05074" lon="7.28091">
        <ele>1051</ele>
        <time>2018-06-16T06:50:07Z</time>
      </trkpt>
      <trkpt lat="44.05062" lon="7.28091">
        <ele>1052</ele>
        <time>2018-06-16T06:50:19Z</time>
      </trkpt>
      <trkpt lat="44.0506" lon="7.28091">
        <ele>1052</ele>
        <time>2018-06-16T06:50:21Z</time>
      </trkpt>
      <trkpt lat="44.05048" lon="7.28094">
        <ele>1052</ele>
        <time>2018-06-16T06:50:34Z</time>
      </trkpt>
      <trkpt lat="44.05034" lon="7.28098">
        <ele>1051</ele>
        <time>2018-06-16T06:50:49Z</time>
      </trkpt>
      <trkpt lat="44.05019" lon="7.28105">
        <ele>1050</ele>
        <time>2018-06-16T06:51:02Z</time>
      </trkpt>
      <trkpt lat="44.0501" lon="7.28112">
        <ele>1050</ele>
        <time>2018-06-16T06:51:13Z</time>
      </trkpt>
      <trkpt lat="44.05" lon="7.28124">
        <ele>1034</ele>
        <time>2018-06-16T06:51:25Z</time>
      </trkpt>
      <trkpt lat="44.04988" lon="7.28138">
        <ele>1035</ele>
        <time>2018-06-16T06:51:40Z</time>
      </trkpt>
      <trkpt lat="44.04981" lon="7.28152">
        <ele>1036</ele>
        <time>2018-06-16T06:51:55Z</time>
      </trkpt>
      <trkpt lat="44.0498" lon="7.28152">
        <ele>1036</ele>
        <time>2018-06-16T06:52:22Z</time>
      </trkpt>
      <trkpt lat="44.04981" lon="7.28154">
        <ele>1037</ele>
        <time>2018-06-16T06:52:35Z</time>
      </trkpt>
      <trkpt lat="44.04978" lon="7.28156">
        <ele>1036</ele>
        <time>2018-06-16T06:53:11Z</time>
      </trkpt>
      <trkpt lat="44.04978" lon="7.28156">
        <ele>1036</ele>
        <time>2018-06-16T06:55:05Z</time>
      </trkpt>
      <trkpt lat="44.0498" lon="7.28157">
        <ele>1037</ele>
        <time>2018-06-16T06:55:41Z</time>
      </trkpt>
      <trkpt lat="44.04979" lon="7.28158">
        <ele>1037</ele>
        <time>2018-06-16T06:56:00Z</time>
      </trkpt>
      <trkpt lat="44.0498" lon="7.28168">
        <ele>1040</ele>
        <time>2018-06-16T06:56:21Z</time>
      </trkpt>
      <trkpt lat="44.0498" lon="7.28174">
        <ele>1040</ele>
        <time>2018-06-16T06:56:30Z</time>
      </trkpt>
      <trkpt lat="44.04981" lon="7.28179">
        <ele>1040</ele>
        <time>2018-06-16T06:56:45Z</time>
      </trkpt>
      <trkpt lat="44.04981" lon="7.28186">
        <ele>1038</ele>
        <time>2018-06-16T06:57:03Z</time>
      </trkpt>
      <trkpt lat="44.04981" lon="7.2819">
        <ele>1038</ele>
        <time>2018-06-16T06:57:06Z</time>
      </trkpt>
      <trkpt lat="44.04984" lon="7.28202">
        <ele>1037</ele>
        <time>2018-06-16T06:57:14Z</time>
      </trkpt>
      <trkpt lat="44.04989" lon="7.28209">
        <ele>1038</ele>
        <time>2018-06-16T06:57:19Z</time>
      </trkpt>
      <trkpt lat="44.04998" lon="7.28223">
        <ele>1041</ele>
        <time>2018-06-16T06:57:32Z</time>
      </trkpt>
      <trkpt lat="44.05005" lon="7.28235">
        <ele>1062</ele>
        <time>2018-06-16T06:57:41Z</time>
      </trkpt>
      <trkpt lat="44.05009" lon="7.28239">
        <ele>1062</ele>
        <time>2018-06-16T06:57:45Z</time>
      </trkpt>
      <trkpt lat="44.05015" lon="7.28253">
        <ele>1064</ele>
        <time>2018-06-16T06:57:56Z</time>
      </trkpt>
      <trkpt lat="44.05017" lon="7.28264">
        <ele>1067</ele>
        <time>2018-06-16T06:58:03Z</time>
      </trkpt>
      <trkpt lat="44.05018" lon="7.28276">
        <ele>1068</ele>
        <time>2018-06-16T06:58:10Z</time>
      </trkpt>
      <trkpt lat="44.05018" lon="7.28283">
        <ele>1069</ele>
        <time>2018-06-16T06:58:14Z</time>
      </trkpt>
      <trkpt lat="44.05015" lon="7.28299">
        <ele>1068</ele>
        <time>2018-06-16T06:58:26Z</time>
      </trkpt>
      <trkpt lat="44.05012" lon="7.28317">
        <ele>1064</ele>
        <time>2018-06-16T06:58:37Z</time>
      </trkpt>
      <trkpt lat="44.05012" lon="7.28325">
        <ele>1061</ele>
        <time>2018-06-16T06:58:41Z</time>
      </trkpt>
      <trkpt lat="44.05012" lon="7.2833">
        <ele>1060</ele>
        <time>2018-06-16T06:58:44Z</time>
      </trkpt>
      <trkpt lat="44.05012" lon="7.28339">
        <ele>1062</ele>
        <time>2018-06-16T06:58:49Z</time>
      </trkpt>
      <trkpt lat="44.05013" lon="7.28358">
        <ele>1068</ele>
        <time>2018-06-16T06:59:00Z</time>
      </trkpt>
      <trkpt lat="44.05011" lon="7.28364">
        <ele>1069</ele>
        <time>2018-06-16T06:59:04Z</time>
      </trkpt>
      <trkpt lat="44.05011" lon="7.28367">
        <ele>1069</ele>
        <time>2018-06-16T06:59:06Z</time>
      </trkpt>
      <trkpt lat="44.05008" lon="7.28375">
        <ele>1069</ele>
        <time>2018-06-16T06:59:13Z</time>
      </trkpt>
      <trkpt lat="44.05006" lon="7.28398">
        <ele>1066</ele>
        <time>2018-06-16T06:59:27Z</time>
      </trkpt>
      <trkpt lat="44.04998" lon="7.28413">
        <ele>1049</ele>
        <time>2018-06-16T06:59:39Z</time>
      </trkpt>
      <trkpt lat="44.04997" lon="7.28429">
        <ele>1044</ele>
        <time>2018-06-16T06:59:49Z</time>
      </trkpt>
      <trkpt lat="44.04997" lon="7.28431">
        <ele>1043</ele>
        <time>2018-06-16T06:59:50Z</time>
      </trkpt>
      <trkpt lat="44.04995" lon="7.28435">
        <ele>1042</ele>
        <time>2018-06-16T06:59:53Z</time>
      </trkpt>
      <trkpt lat="44.04992" lon="7.28444">
        <ele>1039</ele>
        <time>2018-06-16T07:00:00Z</time>
      </trkpt>
      <trkpt lat="44.04989" lon="7.28447">
        <ele>1038</ele>
        <time>2018-06-16T07:00:04Z</time>
      </trkpt>
      <trkpt lat="44.04979" lon="7.28464">
        <ele>1035</ele>
        <time>2018-06-16T07:00:18Z</time>
      </trkpt>
      <trkpt lat="44.04976" lon="7.28486">
        <ele>1036</ele>
        <time>2018-06-16T07:00:31Z</time>
      </trkpt>
      <trkpt lat="44.0498" lon="7.28499">
        <ele>1039</ele>
        <time>2018-06-16T07:00:40Z</time>
      </trkpt>
      <trkpt lat="44.04985" lon="7.28504">
        <ele>1037</ele>
        <time>2018-06-16T07:00:46Z</time>
      </trkpt>
      <trkpt lat="44.04988" lon="7.28507">
        <ele>1038</ele>
        <time>2018-06-16T07:00:49Z</time>
      </trkpt>
      <trkpt lat="44.05" lon="7.28514">
        <ele>1039</ele>
        <time>2018-06-16T07:01:02Z</time>
      </trkpt>
      <trkpt lat="44.05011" lon="7.28521">
        <ele>1057</ele>
        <time>2018-06-16T07:01:13Z</time>
      </trkpt>
      <trkpt lat="44.05022" lon="7.28527">
        <ele>1059</ele>
        <time>2018-06-16T07:01:24Z</time>
      </trkpt>
      <trkpt lat="44.0503" lon="7.28531">
        <ele>1060</ele>
        <time>2018-06-16T07:01:31Z</time>
      </trkpt>
      <trkpt lat="44.05034" lon="7.28535">
        <ele>1061</ele>
        <time>2018-06-16T07:01:35Z</time>
      </trkpt>
      <trkpt lat="44.0504" lon="7.2854">
        <ele>1062</ele>
        <time>2018-06-16T07:01:41Z</time>
      </trkpt>
      <trkpt lat="44.05042" lon="7.28542">
        <ele>1062</ele>
        <time>2018-06-16T07:01:43Z</time>
      </trkpt>
      <trkpt lat="44.05047" lon="7.28547">
        <ele>1063</ele>
        <time>2018-06-16T07:01:49Z</time>
      </trkpt>
      <trkpt lat="44.05054" lon="7.28552">
        <ele>1064</ele>
        <time>2018-06-16T07:01:56Z</time>
      </trkpt>
      <trkpt lat="44.05056" lon="7.28556">
        <ele>1064</ele>
        <time>2018-06-16T07:01:59Z</time>
      </trkpt>
      <trkpt lat="44.05059" lon="7.28558">
        <ele>1065</ele>
        <time>2018-06-16T07:02:02Z</time>
      </trkpt>
      <trkpt lat="44.05062" lon="7.28563">
        <ele>1065</ele>
        <time>2018-06-16T07:02:06Z</time>
      </trkpt>
      <trkpt lat="44.05065" lon="7.28568">
        <ele>1066</ele>
        <time>2018-06-16T07:02:11Z</time>
      </trkpt>
      <trkpt lat="44.0507" lon="7.28572">
        <ele>1068</ele>
        <time>2018-06-16T07:02:16Z</time>
      </trkpt>
      <trkpt lat="44.05074" lon="7.28574">
        <ele>1069</ele>
        <time>2018-06-16T07:02:19Z</time>
      </trkpt>
      <trkpt lat="44.05081" lon="7.28582">
        <ele>1073</ele>
        <time>2018-06-16T07:02:27Z</time>
      </trkpt>
      <trkpt lat="44.05082" lon="7.2859">
        <ele>1067</ele>
        <time>2018-06-16T07:02:34Z</time>
      </trkpt>
      <trkpt lat="44.05083" lon="7.28593">
        <ele>1065</ele>
        <time>2018-06-16T07:02:36Z</time>
      </trkpt>
      <trkpt lat="44.05084" lon="7.28615">
        <ele>1085</ele>
        <time>2018-06-16T07:02:49Z</time>
      </trkpt>
      <trkpt lat="44.05085" lon="7.28626">
        <ele>1085</ele>
        <time>2018-06-16T07:02:55Z</time>
      </trkpt>
      <trkpt lat="44.05086" lon="7.28642">
        <ele>1081</ele>
        <time>2018-06-16T07:03:05Z</time>
      </trkpt>
      <trkpt lat="44.05087" lon="7.28646">
        <ele>1080</ele>
        <time>2018-06-16T07:03:08Z</time>
      </trkpt>
      <trkpt lat="44.05089" lon="7.28661">
        <ele>1071</ele>
        <time>2018-06-16T07:03:19Z</time>
      </trkpt>
      <trkpt lat="44.0509" lon="7.28678">
        <ele>1070</ele>
        <time>2018-06-16T07:03:31Z</time>
      </trkpt>
      <trkpt lat="44.05093" lon="7.28696">
        <ele>1073</ele>
        <time>2018-06-16T07:03:43Z</time>
      </trkpt>
      <trkpt lat="44.05094" lon="7.287">
        <ele>1074</ele>
        <time>2018-06-16T07:03:46Z</time>
      </trkpt>
      <trkpt lat="44.05095" lon="7.28713">
        <ele>1073</ele>
        <time>2018-06-16T07:03:55Z</time>
      </trkpt>
      <trkpt lat="44.05102" lon="7.28724">
        <ele>1073</ele>
        <time>2018-06-16T07:04:04Z</time>
      </trkpt>
      <trkpt lat="44.05104" lon="7.28725">
        <ele>1073</ele>
        <time>2018-06-16T07:04:06Z</time>
      </trkpt>
      <trkpt lat="44.05109" lon="7.28729">
        <ele>1074</ele>
        <time>2018-06-16T07:04:12Z</time>
      </trkpt>
      <trkpt lat="44.05115" lon="7.28731">
        <ele>1076</ele>
        <time>2018-06-16T07:04:18Z</time>
      </trkpt>
      <trkpt lat="44.05125" lon="7.28737">
        <ele>1078</ele>
        <time>2018-06-16T07:04:27Z</time>
      </trkpt>
      <trkpt lat="44.05134" lon="7.28744">
        <ele>1081</ele>
        <time>2018-06-16T07:04:38Z</time>
      </trkpt>
      <trkpt lat="44.05144" lon="7.28751">
        <ele>1085</ele>
        <time>2018-06-16T07:04:48Z</time>
      </trkpt>
      <trkpt lat="44.05148" lon="7.28754">
        <ele>1086</ele>
        <time>2018-06-16T07:04:51Z</time>
      </trkpt>
      <trkpt lat="44.05149" lon="7.28768">
        <ele>1086</ele>
        <time>2018-06-16T07:05:00Z</time>
      </trkpt>
      <trkpt lat="44.05141" lon="7.28778">
        <ele>1084</ele>
        <time>2018-06-16T07:05:11Z</time>
      </trkpt>
      <trkpt lat="44.05137" lon="7.28784">
        <ele>1084</ele>
        <time>2018-06-16T07:05:14Z</time>
      </trkpt>
      <trkpt lat="44.05126" lon="7.28796">
        <ele>1083</ele>
        <time>2018-06-16T07:05:26Z</time>
      </trkpt>
      <trkpt lat="44.05123" lon="7.28797">
        <ele>1083</ele>
        <time>2018-06-16T07:05:28Z</time>
      </trkpt>
      <trkpt lat="44.05121" lon="7.28798">
        <ele>1082</ele>
        <time>2018-06-16T07:05:30Z</time>
      </trkpt>
      <trkpt lat="44.05113" lon="7.28804">
        <ele>1082</ele>
        <time>2018-06-16T07:05:39Z</time>
      </trkpt>
      <trkpt lat="44.05102" lon="7.28811">
        <ele>1080</ele>
        <time>2018-06-16T07:05:53Z</time>
      </trkpt>
      <trkpt lat="44.05098" lon="7.28814">
        <ele>1080</ele>
        <time>2018-06-16T07:05:57Z</time>
      </trkpt>
      <trkpt lat="44.05082" lon="7.28825">
        <ele>1074</ele>
        <time>2018-06-16T07:06:12Z</time>
      </trkpt>
      <trkpt lat="44.05079" lon="7.28829">
        <ele>1075</ele>
        <time>2018-06-16T07:06:14Z</time>
      </trkpt>
      <trkpt lat="44.05069" lon="7.28837">
        <ele>1086</ele>
        <time>2018-06-16T07:06:23Z</time>
      </trkpt>
      <trkpt lat="44.05054" lon="7.28844">
        <ele>1091</ele>
        <time>2018-06-16T07:06:36Z</time>
      </trkpt>
      <trkpt lat="44.05051" lon="7.28846">
        <ele>1091</ele>
        <time>2018-06-16T07:06:38Z</time>
      </trkpt>
      <trkpt lat="44.05049" lon="7.28847">
        <ele>1092</ele>
        <time>2018-06-16T07:06:40Z</time>
      </trkpt>
      <trkpt lat="44.05046" lon="7.28847">
        <ele>1092</ele>
        <time>2018-06-16T07:06:42Z</time>
      </trkpt>
      <trkpt lat="44.05035" lon="7.28848">
        <ele>1092</ele>
        <time>2018-06-16T07:06:52Z</time>
      </trkpt>
      <trkpt lat="44.05028" lon="7.28849">
        <ele>1091</ele>
        <time>2018-06-16T07:06:57Z</time>
      </trkpt>
      <trkpt lat="44.05019" lon="7.28848">
        <ele>1090</ele>
        <time>2018-06-16T07:07:07Z</time>
      </trkpt>
      <trkpt lat="44.05005" lon="7.28846">
        <ele>1087</ele>
        <time>2018-06-16T07:07:20Z</time>
      </trkpt>
      <trkpt lat="44.04996" lon="7.28843">
        <ele>1083</ele>
        <time>2018-06-16T07:07:31Z</time>
      </trkpt>
      <trkpt lat="44.04995" lon="7.28844">
        <ele>1083</ele>
        <time>2018-06-16T07:07:54Z</time>
      </trkpt>
      <trkpt lat="44.04992" lon="7.28845">
        <ele>1084</ele>
        <time>2018-06-16T07:08:07Z</time>
      </trkpt>
      <trkpt lat="44.04985" lon="7.28849">
        <ele>1085</ele>
        <time>2018-06-16T07:08:14Z</time>
      </trkpt>
      <trkpt lat="44.04982" lon="7.28849">
        <ele>1085</ele>
        <time>2018-06-16T07:08:18Z</time>
      </trkpt>
      <trkpt lat="44.04978" lon="7.2885">
        <ele>1086</ele>
        <time>2018-06-16T07:08:27Z</time>
      </trkpt>
      <trkpt lat="44.04962" lon="7.28852">
        <ele>1086</ele>
        <time>2018-06-16T07:08:38Z</time>
      </trkpt>
      <trkpt lat="44.04955" lon="7.28851">
        <ele>1085</ele>
        <time>2018-06-16T07:08:51Z</time>
      </trkpt>
      <trkpt lat="44.0494" lon="7.28852">
        <ele>1084</ele>
        <time>2018-06-16T07:09:05Z</time>
      </trkpt>
      <trkpt lat="44.04937" lon="7.28851">
        <ele>1084</ele>
        <time>2018-06-16T07:09:08Z</time>
      </trkpt>
      <trkpt lat="44.04932" lon="7.28849">
        <ele>1083</ele>
        <time>2018-06-16T07:09:18Z</time>
      </trkpt>
      <trkpt lat="44.0492" lon="7.28843">
        <ele>1079</ele>
        <time>2018-06-16T07:09:32Z</time>
      </trkpt>
      <trkpt lat="44.04913" lon="7.2884">
        <ele>1076</ele>
        <time>2018-06-16T07:09:44Z</time>
      </trkpt>
      <trkpt lat="44.04901" lon="7.28844">
        <ele>1076</ele>
        <time>2018-06-16T07:10:00Z</time>
      </trkpt>
      <trkpt lat="44.04897" lon="7.28846">
        <ele>1076</ele>
        <time>2018-06-16T07:10:06Z</time>
      </trkpt>
      <trkpt lat="44.04893" lon="7.28849">
        <ele>1076</ele>
        <time>2018-06-16T07:10:09Z</time>
      </trkpt>
      <trkpt lat="44.04885" lon="7.28853">
        <ele>1076</ele>
        <time>2018-06-16T07:10:17Z</time>
      </trkpt>
      <trkpt lat="44.04876" lon="7.28856">
        <ele>1075</ele>
        <time>2018-06-16T07:10:31Z</time>
      </trkpt>
      <trkpt lat="44.0487" lon="7.28858">
        <ele>1075</ele>
        <time>2018-06-16T07:10:43Z</time>
      </trkpt>
      <trkpt lat="44.04866" lon="7.2886">
        <ele>1075</ele>
        <time>2018-06-16T07:10:58Z</time>
      </trkpt>
      <trkpt lat="44.04861" lon="7.28863">
        <ele>1075</ele>
        <time>2018-06-16T07:11:17Z</time>
      </trkpt>
      <trkpt lat="44.04859" lon="7.28863">
        <ele>1075</ele>
        <time>2018-06-16T07:11:20Z</time>
      </trkpt>
      <trkpt lat="44.04846" lon="7.2886">
        <ele>1074</ele>
        <time>2018-06-16T07:11:34Z</time>
      </trkpt>
      <trkpt lat="44.04842" lon="7.28858">
        <ele>1073</ele>
        <time>2018-06-16T07:11:48Z</time>
      </trkpt>
      <trkpt lat="44.04846" lon="7.28861">
        <ele>1074</ele>
        <time>2018-06-16T07:12:01Z</time>
      </trkpt>
      <trkpt lat="44.0485" lon="7.28866">
        <ele>1074</ele>
        <time>2018-06-16T07:12:13Z</time>
      </trkpt>
      <trkpt lat="44.04853" lon="7.28869">
        <ele>1075</ele>
        <time>2018-06-16T07:12:26Z</time>
      </trkpt>
      <trkpt lat="44.0485" lon="7.28873">
        <ele>1075</ele>
        <time>2018-06-16T07:12:40Z</time>
      </trkpt>
      <trkpt lat="44.04848" lon="7.28878">
        <ele>1075</ele>
        <time>2018-06-16T07:12:48Z</time>
      </trkpt>
      <trkpt lat="44.04847" lon="7.2888">
        <ele>1075</ele>
        <time>2018-06-16T07:12:50Z</time>
      </trkpt>
      <trkpt lat="44.04847" lon="7.28883">
        <ele>1075</ele>
        <time>2018-06-16T07:12:53Z</time>
      </trkpt>
      <trkpt lat="44.0485" lon="7.28893">
        <ele>1075</ele>
        <time>2018-06-16T07:13:06Z</time>
      </trkpt>
      <trkpt lat="44.04851" lon="7.28895">
        <ele>1075</ele>
        <time>2018-06-16T07:13:08Z</time>
      </trkpt>
      <trkpt lat="44.04859" lon="7.28904">
        <ele>1076</ele>
        <time>2018-06-16T07:13:20Z</time>
      </trkpt>
      <trkpt lat="44.04863" lon="7.28908">
        <ele>1077</ele>
        <time>2018-06-16T07:13:25Z</time>
      </trkpt>
      <trkpt lat="44.04866" lon="7.28916">
        <ele>1077</ele>
        <time>2018-06-16T07:13:37Z</time>
      </trkpt>
      <trkpt lat="44.04869" lon="7.28917">
        <ele>1080</ele>
        <time>2018-06-16T07:13:44Z</time>
      </trkpt>
      <trkpt lat="44.04872" lon="7.28928">
        <ele>1081</ele>
        <time>2018-06-16T07:13:55Z</time>
      </trkpt>
      <trkpt lat="44.04877" lon="7.28936">
        <ele>1082</ele>
        <time>2018-06-16T07:14:05Z</time>
      </trkpt>
      <trkpt lat="44.04885" lon="7.28941">
        <ele>1083</ele>
        <time>2018-06-16T07:14:18Z</time>
      </trkpt>
      <trkpt lat="44.04893" lon="7.28943">
        <ele>1084</ele>
        <time>2018-06-16T07:14:31Z</time>
      </trkpt>
      <trkpt lat="44.04896" lon="7.28949">
        <ele>1084</ele>
        <time>2018-06-16T07:14:45Z</time>
      </trkpt>
      <trkpt lat="44.04901" lon="7.28957">
        <ele>1085</ele>
        <time>2018-06-16T07:14:58Z</time>
      </trkpt>
      <trkpt lat="44.04907" lon="7.28962">
        <ele>1086</ele>
        <time>2018-06-16T07:15:10Z</time>
      </trkpt>
      <trkpt lat="44.04912" lon="7.2897">
        <ele>1087</ele>
        <time>2018-06-16T07:15:22Z</time>
      </trkpt>
      <trkpt lat="44.04917" lon="7.28978">
        <ele>1103</ele>
        <time>2018-06-16T07:15:34Z</time>
      </trkpt>
      <trkpt lat="44.0492" lon="7.28983">
        <ele>1103</ele>
        <time>2018-06-16T07:15:48Z</time>
      </trkpt>
      <trkpt lat="44.04921" lon="7.28982">
        <ele>1103</ele>
        <time>2018-06-16T07:16:00Z</time>
      </trkpt>
      <trkpt lat="44.04923" lon="7.2898">
        <ele>1104</ele>
        <time>2018-06-16T07:16:12Z</time>
      </trkpt>
      <trkpt lat="44.04927" lon="7.2898">
        <ele>1104</ele>
        <time>2018-06-16T07:16:21Z</time>
      </trkpt>
      <trkpt lat="44.04932" lon="7.28982">
        <ele>1105</ele>
        <time>2018-06-16T07:16:36Z</time>
      </trkpt>
      <trkpt lat="44.04937" lon="7.28985">
        <ele>1106</ele>
        <time>2018-06-16T07:16:50Z</time>
      </trkpt>
      <trkpt lat="44.0494" lon="7.28991">
        <ele>1106</ele>
        <time>2018-06-16T07:17:01Z</time>
      </trkpt>
      <trkpt lat="44.04942" lon="7.28992">
        <ele>1107</ele>
        <time>2018-06-16T07:17:13Z</time>
      </trkpt>
      <trkpt lat="44.04943" lon="7.28992">
        <ele>1107</ele>
        <time>2018-06-16T07:17:26Z</time>
      </trkpt>
      <trkpt lat="44.04946" lon="7.28989">
        <ele>1108</ele>
        <time>2018-06-16T07:17:39Z</time>
      </trkpt>
      <trkpt lat="44.04951" lon="7.28986">
        <ele>1109</ele>
        <time>2018-06-16T07:17:50Z</time>
      </trkpt>
      <trkpt lat="44.04957" lon="7.28985">
        <ele>1110</ele>
        <time>2018-06-16T07:17:59Z</time>
      </trkpt>
      <trkpt lat="44.0496" lon="7.28988">
        <ele>1111</ele>
        <time>2018-06-16T07:18:12Z</time>
      </trkpt>
      <trkpt lat="44.04961" lon="7.28992">
        <ele>1112</ele>
        <time>2018-06-16T07:18:20Z</time>
      </trkpt>
      <trkpt lat="44.04964" lon="7.28999">
        <ele>1113</ele>
        <time>2018-06-16T07:18:32Z</time>
      </trkpt>
      <trkpt lat="44.04967" lon="7.29001">
        <ele>1118</ele>
        <time>2018-06-16T07:18:47Z</time>
      </trkpt>
      <trkpt lat="44.04971" lon="7.29009">
        <ele>1119</ele>
        <time>2018-06-16T07:18:58Z</time>
      </trkpt>
      <trkpt lat="44.04972" lon="7.29011">
        <ele>1119</ele>
        <time>2018-06-16T07:19:08Z</time>
      </trkpt>
      <trkpt lat="44.04977" lon="7.29009">
        <ele>1121</ele>
        <time>2018-06-16T07:19:23Z</time>
      </trkpt>
      <trkpt lat="44.04981" lon="7.2901">
        <ele>1122</ele>
        <time>2018-06-16T07:19:38Z</time>
      </trkpt>
      <trkpt lat="44.04984" lon="7.29011">
        <ele>1123</ele>
        <time>2018-06-16T07:19:48Z</time>
      </trkpt>
      <trkpt lat="44.04992" lon="7.29008">
        <ele>1126</ele>
        <time>2018-06-16T07:20:00Z</time>
      </trkpt>
      <trkpt lat="44.04996" lon="7.29009">
        <ele>1127</ele>
        <time>2018-06-16T07:20:11Z</time>
      </trkpt>
      <trkpt lat="44.04998" lon="7.29011">
        <ele>1127</ele>
        <time>2018-06-16T07:20:18Z</time>
      </trkpt>
      <trkpt lat="44.04998" lon="7.29019">
        <ele>1124</ele>
        <time>2018-06-16T07:20:28Z</time>
      </trkpt>
      <trkpt lat="44.04999" lon="7.29023">
        <ele>1123</ele>
        <time>2018-06-16T07:20:39Z</time>
      </trkpt>
      <trkpt lat="44.05002" lon="7.29024">
        <ele>1144</ele>
        <time>2018-06-16T07:20:54Z</time>
      </trkpt>
      <trkpt lat="44.05007" lon="7.29021">
        <ele>1144</ele>
        <time>2018-06-16T07:21:07Z</time>
      </trkpt>
      <trkpt lat="44.05012" lon="7.29019">
        <ele>1144</ele>
        <time>2018-06-16T07:21:19Z</time>
      </trkpt>
      <trkpt lat="44.05016" lon="7.29017">
        <ele>1145</ele>
        <time>2018-06-16T07:21:33Z</time>
      </trkpt>
      <trkpt lat="44.05022" lon="7.29019">
        <ele>1147</ele>
        <time>2018-06-16T07:21:45Z</time>
      </trkpt>
      <trkpt lat="44.05026" lon="7.2902">
        <ele>1148</ele>
        <time>2018-06-16T07:21:56Z</time>
      </trkpt>
      <trkpt lat="44.05031" lon="7.29021">
        <ele>1149</ele>
        <time>2018-06-16T07:22:07Z</time>
      </trkpt>
      <trkpt lat="44.05034" lon="7.2902">
        <ele>1150</ele>
        <time>2018-06-16T07:22:17Z</time>
      </trkpt>
      <trkpt lat="44.05038" lon="7.2902">
        <ele>1151</ele>
        <time>2018-06-16T07:22:29Z</time>
      </trkpt>
      <trkpt lat="44.0504" lon="7.29021">
        <ele>1152</ele>
        <time>2018-06-16T07:22:34Z</time>
      </trkpt>
      <trkpt lat="44.05044" lon="7.29023">
        <ele>1153</ele>
        <time>2018-06-16T07:22:46Z</time>
      </trkpt>
      <trkpt lat="44.05048" lon="7.29025">
        <ele>1154</ele>
        <time>2018-06-16T07:22:55Z</time>
      </trkpt>
      <trkpt lat="44.05054" lon="7.29027">
        <ele>1155</ele>
        <time>2018-06-16T07:23:08Z</time>
      </trkpt>
      <trkpt lat="44.05058" lon="7.29027">
        <ele>1156</ele>
        <time>2018-06-16T07:23:19Z</time>
      </trkpt>
      <trkpt lat="44.05061" lon="7.29031">
        <ele>1157</ele>
        <time>2018-06-16T07:23:30Z</time>
      </trkpt>
      <trkpt lat="44.05065" lon="7.2903">
        <ele>1157</ele>
        <time>2018-06-16T07:23:46Z</time>
      </trkpt>
      <trkpt lat="44.05066" lon="7.2903">
        <ele>1158</ele>
        <time>2018-06-16T07:24:04Z</time>
      </trkpt>
      <trkpt lat="44.0507" lon="7.29032">
        <ele>1158</ele>
        <time>2018-06-16T07:24:19Z</time>
      </trkpt>
      <trkpt lat="44.05074" lon="7.29031">
        <ele>1159</ele>
        <time>2018-06-16T07:24:30Z</time>
      </trkpt>
      <trkpt lat="44.05077" lon="7.29032">
        <ele>1159</ele>
        <time>2018-06-16T07:24:42Z</time>
      </trkpt>
      <trkpt lat="44.0508" lon="7.29034">
        <ele>1159</ele>
        <time>2018-06-16T07:24:52Z</time>
      </trkpt>
      <trkpt lat="44.05085" lon="7.29034">
        <ele>1183</ele>
        <time>2018-06-16T07:25:05Z</time>
      </trkpt>
      <trkpt lat="44.05093" lon="7.29034">
        <ele>1184</ele>
        <time>2018-06-16T07:25:20Z</time>
      </trkpt>
      <trkpt lat="44.05096" lon="7.29034">
        <ele>1185</ele>
        <time>2018-06-16T07:25:33Z</time>
      </trkpt>
      <trkpt lat="44.051" lon="7.29037">
        <ele>1186</ele>
        <time>2018-06-16T07:25:44Z</time>
      </trkpt>
      <trkpt lat="44.05101" lon="7.2904">
        <ele>1187</ele>
        <time>2018-06-16T07:25:57Z</time>
      </trkpt>
      <trkpt lat="44.05102" lon="7.29045">
        <ele>1188</ele>
        <time>2018-06-16T07:26:11Z</time>
      </trkpt>
      <trkpt lat="44.05101" lon="7.2905">
        <ele>1189</ele>
        <time>2018-06-16T07:26:34Z</time>
      </trkpt>
      <trkpt lat="44.051" lon="7.29052">
        <ele>1189</ele>
        <time>2018-06-16T07:26:36Z</time>
      </trkpt>
      <trkpt lat="44.05096" lon="7.29058">
        <ele>1189</ele>
        <time>2018-06-16T07:26:48Z</time>
      </trkpt>
      <trkpt lat="44.05092" lon="7.29066">
        <ele>1189</ele>
        <time>2018-06-16T07:27:00Z</time>
      </trkpt>
      <trkpt lat="44.05091" lon="7.29075">
        <ele>1189</ele>
        <time>2018-06-16T07:27:15Z</time>
      </trkpt>
      <trkpt lat="44.05092" lon="7.29078">
        <ele>1189</ele>
        <time>2018-06-16T07:27:27Z</time>
      </trkpt>
      <trkpt lat="44.05091" lon="7.29085">
        <ele>1192</ele>
        <time>2018-06-16T07:27:38Z</time>
      </trkpt>
      <trkpt lat="44.05089" lon="7.29094">
        <ele>1194</ele>
        <time>2018-06-16T07:27:50Z</time>
      </trkpt>
      <trkpt lat="44.05087" lon="7.29096">
        <ele>1194</ele>
        <time>2018-06-16T07:28:02Z</time>
      </trkpt>
      <trkpt lat="44.0509" lon="7.29102">
        <ele>1197</ele>
        <time>2018-06-16T07:28:15Z</time>
      </trkpt>
      <trkpt lat="44.0509" lon="7.29096">
        <ele>1195</ele>
        <time>2018-06-16T07:29:03Z</time>
      </trkpt>
      <trkpt lat="44.05088" lon="7.29092">
        <ele>1193</ele>
        <time>2018-06-16T07:29:15Z</time>
      </trkpt>
      <trkpt lat="44.05088" lon="7.29094">
        <ele>1194</ele>
        <time>2018-06-16T07:29:53Z</time>
      </trkpt>
      <trkpt lat="44.05086" lon="7.29095">
        <ele>1194</ele>
        <time>2018-06-16T07:30:03Z</time>
      </trkpt>
      <trkpt lat="44.05086" lon="7.29095">
        <ele>1194</ele>
        <time>2018-06-16T07:30:16Z</time>
      </trkpt>
      <trkpt lat="44.05086" lon="7.29095">
        <ele>1194</ele>
        <time>2018-06-16T07:30:44Z</time>
      </trkpt>
      <trkpt lat="44.05088" lon="7.29091">
        <ele>1193</ele>
        <time>2018-06-16T07:33:12Z</time>
      </trkpt>
      <trkpt lat="44.05088" lon="7.29091">
        <ele>1193</ele>
        <time>2018-06-16T07:34:17Z</time>
      </trkpt>
      <trkpt lat="44.05086" lon="7.29093">
        <ele>1193</ele>
        <time>2018-06-16T07:34:29Z</time>
      </trkpt>
      <trkpt lat="44.05086" lon="7.29093">
        <ele>1193</ele>
        <time>2018-06-16T07:34:51Z</time>
      </trkpt>
      <trkpt lat="44.05086" lon="7.29094">
        <ele>1193</ele>
        <time>2018-06-16T07:35:30Z</time>
      </trkpt>
      <trkpt lat="44.05087" lon="7.29095">
        <ele>1194</ele>
        <time>2018-06-16T07:36:09Z</time>
      </trkpt>
      <trkpt lat="44.05087" lon="7.29097">
        <ele>1195</ele>
        <time>2018-06-16T07:36:33Z</time>
      </trkpt>
      <trkpt lat="44.05089" lon="7.29093">
        <ele>1194</ele>
        <time>2018-06-16T07:37:03Z</time>
      </trkpt>
      <trkpt lat="44.05094" lon="7.2909">
        <ele>1195</ele>
        <time>2018-06-16T07:37:26Z</time>
      </trkpt>
      <trkpt lat="44.05104" lon="7.29087">
        <ele>1199</ele>
        <time>2018-06-16T07:37:40Z</time>
      </trkpt>
      <trkpt lat="44.0511" lon="7.2908">
        <ele>1194</ele>
        <time>2018-06-16T07:37:50Z</time>
      </trkpt>
      <trkpt lat="44.05118" lon="7.29075">
        <ele>1196</ele>
        <time>2018-06-16T07:38:01Z</time>
      </trkpt>
      <trkpt lat="44.05128" lon="7.29069">
        <ele>1199</ele>
        <time>2018-06-16T07:38:14Z</time>
      </trkpt>
      <trkpt lat="44.05137" lon="7.2906">
        <ele>1200</ele>
        <time>2018-06-16T07:38:26Z</time>
      </trkpt>
      <trkpt lat="44.05138" lon="7.29059">
        <ele>1200</ele>
        <time>2018-06-16T07:38:27Z</time>
      </trkpt>
      <trkpt lat="44.05148" lon="7.29055">
        <ele>1201</ele>
        <time>2018-06-16T07:38:41Z</time>
      </trkpt>
      <trkpt lat="44.05156" lon="7.29048">
        <ele>1201</ele>
        <time>2018-06-16T07:38:53Z</time>
      </trkpt>
      <trkpt lat="44.05163" lon="7.29044">
        <ele>1200</ele>
        <time>2018-06-16T07:39:05Z</time>
      </trkpt>
      <trkpt lat="44.05169" lon="7.29043">
        <ele>1217</ele>
        <time>2018-06-16T07:39:20Z</time>
      </trkpt>
      <trkpt lat="44.05174" lon="7.29041">
        <ele>1216</ele>
        <time>2018-06-16T07:39:26Z</time>
      </trkpt>
      <trkpt lat="44.0518" lon="7.29037">
        <ele>1215</ele>
        <time>2018-06-16T07:39:38Z</time>
      </trkpt>
      <trkpt lat="44.0519" lon="7.29032">
        <ele>1215</ele>
        <time>2018-06-16T07:39:49Z</time>
      </trkpt>
      <trkpt lat="44.05198" lon="7.29027">
        <ele>1214</ele>
        <time>2018-06-16T07:40:00Z</time>
      </trkpt>
      <trkpt lat="44.05203" lon="7.29029">
        <ele>1216</ele>
        <time>2018-06-16T07:40:11Z</time>
      </trkpt>
      <trkpt lat="44.0521" lon="7.29038">
        <ele>1218</ele>
        <time>2018-06-16T07:40:23Z</time>
      </trkpt>
      <trkpt lat="44.05211" lon="7.29038">
        <ele>1218</ele>
        <time>2018-06-16T07:40:24Z</time>
      </trkpt>
      <trkpt lat="44.05212" lon="7.29044">
        <ele>1220</ele>
        <time>2018-06-16T07:40:29Z</time>
      </trkpt>
      <trkpt lat="44.05216" lon="7.29054">
        <ele>1223</ele>
        <time>2018-06-16T07:40:40Z</time>
      </trkpt>
      <trkpt lat="44.05222" lon="7.2906">
        <ele>1225</ele>
        <time>2018-06-16T07:40:52Z</time>
      </trkpt>
      <trkpt lat="44.05227" lon="7.29066">
        <ele>1227</ele>
        <time>2018-06-16T07:41:03Z</time>
      </trkpt>
      <trkpt lat="44.05236" lon="7.29074">
        <ele>1233</ele>
        <time>2018-06-16T07:41:19Z</time>
      </trkpt>
      <trkpt lat="44.05243" lon="7.29077">
        <ele>1237</ele>
        <time>2018-06-16T07:41:30Z</time>
      </trkpt>
      <trkpt lat="44.05244" lon="7.29077">
        <ele>1237</ele>
        <time>2018-06-16T07:41:31Z</time>
      </trkpt>
      <trkpt lat="44.05253" lon="7.29079">
        <ele>1240</ele>
        <time>2018-06-16T07:41:41Z</time>
      </trkpt>
      <trkpt lat="44.0526" lon="7.2908">
        <ele>1237</ele>
        <time>2018-06-16T07:41:52Z</time>
      </trkpt>
      <trkpt lat="44.05268" lon="7.29084">
        <ele>1248</ele>
        <time>2018-06-16T07:42:03Z</time>
      </trkpt>
      <trkpt lat="44.05277" lon="7.29088">
        <ele>1249</ele>
        <time>2018-06-16T07:42:15Z</time>
      </trkpt>
      <trkpt lat="44.05279" lon="7.29094">
        <ele>1250</ele>
        <time>2018-06-16T07:42:26Z</time>
      </trkpt>
      <trkpt lat="44.05282" lon="7.29097">
        <ele>1250</ele>
        <time>2018-06-16T07:42:36Z</time>
      </trkpt>
      <trkpt lat="44.05287" lon="7.291">
        <ele>1250</ele>
        <time>2018-06-16T07:42:49Z</time>
      </trkpt>
      <trkpt lat="44.05293" lon="7.29108">
        <ele>1251</ele>
        <time>2018-06-16T07:43:00Z</time>
      </trkpt>
      <trkpt lat="44.05297" lon="7.29111">
        <ele>1251</ele>
        <time>2018-06-16T07:43:04Z</time>
      </trkpt>
      <trkpt lat="44.053" lon="7.29117">
        <ele>1252</ele>
        <time>2018-06-16T07:43:15Z</time>
      </trkpt>
      <trkpt lat="44.05306" lon="7.29121">
        <ele>1253</ele>
        <time>2018-06-16T07:43:28Z</time>
      </trkpt>
      <trkpt lat="44.05312" lon="7.29127">
        <ele>1254</ele>
        <time>2018-06-16T07:43:45Z</time>
      </trkpt>
      <trkpt lat="44.05316" lon="7.29141">
        <ele>1259</ele>
        <time>2018-06-16T07:43:59Z</time>
      </trkpt>
      <trkpt lat="44.0532" lon="7.29144">
        <ele>1260</ele>
        <time>2018-06-16T07:44:11Z</time>
      </trkpt>
      <trkpt lat="44.05321" lon="7.29145">
        <ele>1261</ele>
        <time>2018-06-16T07:44:13Z</time>
      </trkpt>
      <trkpt lat="44.05327" lon="7.29152">
        <ele>1264</ele>
        <time>2018-06-16T07:44:23Z</time>
      </trkpt>
      <trkpt lat="44.05336" lon="7.29155">
        <ele>1268</ele>
        <time>2018-06-16T07:44:36Z</time>
      </trkpt>
      <trkpt lat="44.0534" lon="7.29158">
        <ele>1269</ele>
        <time>2018-06-16T07:44:39Z</time>
      </trkpt>
      <trkpt lat="44.05344" lon="7.29164">
        <ele>1269</ele>
        <time>2018-06-16T07:44:45Z</time>
      </trkpt>
      <trkpt lat="44.05349" lon="7.29172">
        <ele>1283</ele>
        <time>2018-06-16T07:44:58Z</time>
      </trkpt>
      <trkpt lat="44.05353" lon="7.29178">
        <ele>1286</ele>
        <time>2018-06-16T07:45:09Z</time>
      </trkpt>
      <trkpt lat="44.05361" lon="7.29182">
        <ele>1288</ele>
        <time>2018-06-16T07:45:21Z</time>
      </trkpt>
      <trkpt lat="44.05367" lon="7.29186">
        <ele>1289</ele>
        <time>2018-06-16T07:45:32Z</time>
      </trkpt>
      <trkpt lat="44.05377" lon="7.29186">
        <ele>1290</ele>
        <time>2018-06-16T07:45:47Z</time>
      </trkpt>
      <trkpt lat="44.05385" lon="7.29187">
        <ele>1290</ele>
        <time>2018-06-16T07:45:59Z</time>
      </trkpt>
      <trkpt lat="44.05389" lon="7.29188">
        <ele>1290</ele>
        <time>2018-06-16T07:46:09Z</time>
      </trkpt>
      <trkpt lat="44.05404" lon="7.29184">
        <ele>1288</ele>
        <time>2018-06-16T07:46:22Z</time>
      </trkpt>
      <trkpt lat="44.05407" lon="7.29183">
        <ele>1287</ele>
        <time>2018-06-16T07:46:41Z</time>
      </trkpt>
      <trkpt lat="44.05406" lon="7.29188">
        <ele>1289</ele>
        <time>2018-06-16T07:46:56Z</time>
      </trkpt>
      <trkpt lat="44.05403" lon="7.29199">
        <ele>1292</ele>
        <time>2018-06-16T07:47:09Z</time>
      </trkpt>
      <trkpt lat="44.05393" lon="7.29203">
        <ele>1293</ele>
        <time>2018-06-16T07:47:22Z</time>
      </trkpt>
      <trkpt lat="44.05386" lon="7.29207">
        <ele>1294</ele>
        <time>2018-06-16T07:47:35Z</time>
      </trkpt>
      <trkpt lat="44.05384" lon="7.29209">
        <ele>1294</ele>
        <time>2018-06-16T07:47:44Z</time>
      </trkpt>
      <trkpt lat="44.05374" lon="7.29213">
        <ele>1295</ele>
        <time>2018-06-16T07:47:59Z</time>
      </trkpt>
      <trkpt lat="44.05369" lon="7.29213">
        <ele>1295</ele>
        <time>2018-06-16T07:48:11Z</time>
      </trkpt>
      <trkpt lat="44.05357" lon="7.29215">
        <ele>1295</ele>
        <time>2018-06-16T07:48:24Z</time>
      </trkpt>
      <trkpt lat="44.05346" lon="7.29217">
        <ele>1296</ele>
        <time>2018-06-16T07:48:39Z</time>
      </trkpt>
      <trkpt lat="44.05337" lon="7.29216">
        <ele>1296</ele>
        <time>2018-06-16T07:48:51Z</time>
      </trkpt>
      <trkpt lat="44.05333" lon="7.29218">
        <ele>1290</ele>
        <time>2018-06-16T07:49:04Z</time>
      </trkpt>
      <trkpt lat="44.05331" lon="7.29219">
        <ele>1291</ele>
        <time>2018-06-16T07:49:17Z</time>
      </trkpt>
      <trkpt lat="44.05328" lon="7.29218">
        <ele>1290</ele>
        <time>2018-06-16T07:49:30Z</time>
      </trkpt>
      <trkpt lat="44.05318" lon="7.29217">
        <ele>1289</ele>
        <time>2018-06-16T07:49:40Z</time>
      </trkpt>
      <trkpt lat="44.05311" lon="7.29218">
        <ele>1288</ele>
        <time>2018-06-16T07:49:52Z</time>
      </trkpt>
      <trkpt lat="44.05301" lon="7.29215">
        <ele>1286</ele>
        <time>2018-06-16T07:50:06Z</time>
      </trkpt>
      <trkpt lat="44.05295" lon="7.29213">
        <ele>1286</ele>
        <time>2018-06-16T07:50:16Z</time>
      </trkpt>
      <trkpt lat="44.05284" lon="7.29208">
        <ele>1284</ele>
        <time>2018-06-16T07:50:29Z</time>
      </trkpt>
      <trkpt lat="44.05283" lon="7.29207">
        <ele>1284</ele>
        <time>2018-06-16T07:50:34Z</time>
      </trkpt>
      <trkpt lat="44.05272" lon="7.29203">
        <ele>1283</ele>
        <time>2018-06-16T07:50:47Z</time>
      </trkpt>
      <trkpt lat="44.05269" lon="7.29201">
        <ele>1282</ele>
        <time>2018-06-16T07:51:00Z</time>
      </trkpt>
      <trkpt lat="44.05268" lon="7.29208">
        <ele>1283</ele>
        <time>2018-06-16T07:51:11Z</time>
      </trkpt>
      <trkpt lat="44.05268" lon="7.2921">
        <ele>1283</ele>
        <time>2018-06-16T07:51:13Z</time>
      </trkpt>
      <trkpt lat="44.05271" lon="7.29219">
        <ele>1284</ele>
        <time>2018-06-16T07:51:26Z</time>
      </trkpt>
      <trkpt lat="44.0528" lon="7.29224">
        <ele>1285</ele>
        <time>2018-06-16T07:51:40Z</time>
      </trkpt>
      <trkpt lat="44.0528" lon="7.29229">
        <ele>1286</ele>
        <time>2018-06-16T07:51:51Z</time>
      </trkpt>
      <trkpt lat="44.05282" lon="7.29239">
        <ele>1287</ele>
        <time>2018-06-16T07:52:02Z</time>
      </trkpt>
      <trkpt lat="44.05283" lon="7.29245">
        <ele>1287</ele>
        <time>2018-06-16T07:52:13Z</time>
      </trkpt>
      <trkpt lat="44.05286" lon="7.29251">
        <ele>1296</ele>
        <time>2018-06-16T07:52:25Z</time>
      </trkpt>
      <trkpt lat="44.0529" lon="7.29258">
        <ele>1297</ele>
        <time>2018-06-16T07:52:38Z</time>
      </trkpt>
      <trkpt lat="44.05293" lon="7.29263">
        <ele>1298</ele>
        <time>2018-06-16T07:52:51Z</time>
      </trkpt>
      <trkpt lat="44.05293" lon="7.29268">
        <ele>1299</ele>
        <time>2018-06-16T07:53:04Z</time>
      </trkpt>
      <trkpt lat="44.05299" lon="7.29272">
        <ele>1300</ele>
        <time>2018-06-16T07:53:15Z</time>
      </trkpt>
      <trkpt lat="44.053" lon="7.29278">
        <ele>1300</ele>
        <time>2018-06-16T07:53:24Z</time>
      </trkpt>
      <trkpt lat="44.05305" lon="7.29285">
        <ele>1302</ele>
        <time>2018-06-16T07:53:37Z</time>
      </trkpt>
      <trkpt lat="44.0531" lon="7.29287">
        <ele>1303</ele>
        <time>2018-06-16T07:53:50Z</time>
      </trkpt>
      <trkpt lat="44.05311" lon="7.29295">
        <ele>1304</ele>
        <time>2018-06-16T07:54:04Z</time>
      </trkpt>
      <trkpt lat="44.05319" lon="7.29299">
        <ele>1306</ele>
        <time>2018-06-16T07:54:17Z</time>
      </trkpt>
      <trkpt lat="44.05325" lon="7.29301">
        <ele>1308</ele>
        <time>2018-06-16T07:54:29Z</time>
      </trkpt>
      <trkpt lat="44.05328" lon="7.293">
        <ele>1308</ele>
        <time>2018-06-16T07:54:35Z</time>
      </trkpt>
      <trkpt lat="44.05332" lon="7.293">
        <ele>1308</ele>
        <time>2018-06-16T07:54:47Z</time>
      </trkpt>
      <trkpt lat="44.05332" lon="7.293">
        <ele>1308</ele>
        <time>2018-06-16T07:54:48Z</time>
      </trkpt>
      <trkpt lat="44.05339" lon="7.29302">
        <ele>1326</ele>
        <time>2018-06-16T07:55:06Z</time>
      </trkpt>
      <trkpt lat="44.05347" lon="7.29305">
        <ele>1326</ele>
        <time>2018-06-16T07:55:17Z</time>
      </trkpt>
      <trkpt lat="44.05352" lon="7.29309">
        <ele>1327</ele>
        <time>2018-06-16T07:55:32Z</time>
      </trkpt>
      <trkpt lat="44.05357" lon="7.29313">
        <ele>1328</ele>
        <time>2018-06-16T07:55:45Z</time>
      </trkpt>
      <trkpt lat="44.05365" lon="7.29316">
        <ele>1329</ele>
        <time>2018-06-16T07:55:58Z</time>
      </trkpt>
      <trkpt lat="44.05371" lon="7.29319">
        <ele>1330</ele>
        <time>2018-06-16T07:56:08Z</time>
      </trkpt>
      <trkpt lat="44.05376" lon="7.29322">
        <ele>1331</ele>
        <time>2018-06-16T07:56:20Z</time>
      </trkpt>
      <trkpt lat="44.05378" lon="7.29324">
        <ele>1332</ele>
        <time>2018-06-16T07:56:30Z</time>
      </trkpt>
      <trkpt lat="44.05386" lon="7.29326">
        <ele>1334</ele>
        <time>2018-06-16T07:56:43Z</time>
      </trkpt>
      <trkpt lat="44.0539" lon="7.29326">
        <ele>1335</ele>
        <time>2018-06-16T07:56:54Z</time>
      </trkpt>
      <trkpt lat="44.05395" lon="7.29327">
        <ele>1337</ele>
        <time>2018-06-16T07:57:08Z</time>
      </trkpt>
      <trkpt lat="44.05399" lon="7.29328">
        <ele>1339</ele>
        <time>2018-06-16T07:57:19Z</time>
      </trkpt>
      <trkpt lat="44.054" lon="7.29331">
        <ele>1340</ele>
        <time>2018-06-16T07:57:41Z</time>
      </trkpt>
      <trkpt lat="44.05401" lon="7.29331">
        <ele>1340</ele>
        <time>2018-06-16T07:58:35Z</time>
      </trkpt>
      <trkpt lat="44.05405" lon="7.29332">
        <ele>1342</ele>
        <time>2018-06-16T07:58:45Z</time>
      </trkpt>
      <trkpt lat="44.05405" lon="7.29337">
        <ele>1349</ele>
        <time>2018-06-16T07:58:57Z</time>
      </trkpt>
      <trkpt lat="44.05402" lon="7.2934">
        <ele>1349</ele>
        <time>2018-06-16T07:59:10Z</time>
      </trkpt>
      <trkpt lat="44.05399" lon="7.29345">
        <ele>1348</ele>
        <time>2018-06-16T07:59:24Z</time>
      </trkpt>
      <trkpt lat="44.05396" lon="7.29351">
        <ele>1348</ele>
        <time>2018-06-16T07:59:35Z</time>
      </trkpt>
      <trkpt lat="44.05394" lon="7.29355">
        <ele>1347</ele>
        <time>2018-06-16T07:59:48Z</time>
      </trkpt>
      <trkpt lat="44.0539" lon="7.29363">
        <ele>1347</ele>
        <time>2018-06-16T08:00:02Z</time>
      </trkpt>
      <trkpt lat="44.05386" lon="7.29367">
        <ele>1347</ele>
        <time>2018-06-16T08:00:15Z</time>
      </trkpt>
      <trkpt lat="44.05382" lon="7.29375">
        <ele>1346</ele>
        <time>2018-06-16T08:00:27Z</time>
      </trkpt>
      <trkpt lat="44.05381" lon="7.29376">
        <ele>1346</ele>
        <time>2018-06-16T08:00:46Z</time>
      </trkpt>
      <trkpt lat="44.0538" lon="7.29377">
        <ele>1346</ele>
        <time>2018-06-16T08:01:16Z</time>
      </trkpt>
      <trkpt lat="44.05379" lon="7.29376">
        <ele>1346</ele>
        <time>2018-06-16T08:01:40Z</time>
      </trkpt>
      <trkpt lat="44.05379" lon="7.29376">
        <ele>1346</ele>
        <time>2018-06-16T08:01:47Z</time>
      </trkpt>
      <trkpt lat="44.05379" lon="7.29376">
        <ele>1346</ele>
        <time>2018-06-16T08:03:21Z</time>
      </trkpt>
      <trkpt lat="44.05379" lon="7.29375">
        <ele>1346</ele>
        <time>2018-06-16T08:05:17Z</time>
      </trkpt>
      <trkpt lat="44.05372" lon="7.29373">
        <ele>1344</ele>
        <time>2018-06-16T08:06:32Z</time>
      </trkpt>
      <trkpt lat="44.05367" lon="7.29375">
        <ele>1343</ele>
        <time>2018-06-16T08:06:46Z</time>
      </trkpt>
      <trkpt lat="44.05363" lon="7.29381">
        <ele>1343</ele>
        <time>2018-06-16T08:07:00Z</time>
      </trkpt>
      <trkpt lat="44.05363" lon="7.29388">
        <ele>1343</ele>
        <time>2018-06-16T08:07:14Z</time>
      </trkpt>
      <trkpt lat="44.05361" lon="7.29397">
        <ele>1342</ele>
        <time>2018-06-16T08:07:27Z</time>
      </trkpt>
      <trkpt lat="44.05358" lon="7.29406">
        <ele>1341</ele>
        <time>2018-06-16T08:07:43Z</time>
      </trkpt>
      <trkpt lat="44.05352" lon="7.29413">
        <ele>1338</ele>
        <time>2018-06-16T08:07:55Z</time>
      </trkpt>
      <trkpt lat="44.05351" lon="7.29425">
        <ele>1336</ele>
        <time>2018-06-16T08:08:10Z</time>
      </trkpt>
      <trkpt lat="44.05348" lon="7.29432">
        <ele>1335</ele>
        <time>2018-06-16T08:08:24Z</time>
      </trkpt>
      <trkpt lat="44.05348" lon="7.29435">
        <ele>1336</ele>
        <time>2018-06-16T08:08:36Z</time>
      </trkpt>
      <trkpt lat="44.05345" lon="7.29437">
        <ele>1335</ele>
        <time>2018-06-16T08:08:56Z</time>
      </trkpt>
      <trkpt lat="44.05343" lon="7.29439">
        <ele>1335</ele>
        <time>2018-06-16T08:09:09Z</time>
      </trkpt>
      <trkpt lat="44.05338" lon="7.29442">
        <ele>1335</ele>
        <time>2018-06-16T08:09:20Z</time>
      </trkpt>
      <trkpt lat="44.05338" lon="7.29438">
        <ele>1334</ele>
        <time>2018-06-16T08:09:31Z</time>
      </trkpt>
      <trkpt lat="44.05338" lon="7.29437">
        <ele>1334</ele>
        <time>2018-06-16T08:09:45Z</time>
      </trkpt>
      <trkpt lat="44.05334" lon="7.29431">
        <ele>1333</ele>
        <time>2018-06-16T08:09:57Z</time>
      </trkpt>
      <trkpt lat="44.05329" lon="7.29422">
        <ele>1320</ele>
        <time>2018-06-16T08:10:10Z</time>
      </trkpt>
      <trkpt lat="44.05325" lon="7.29417">
        <ele>1320</ele>
        <time>2018-06-16T08:10:23Z</time>
      </trkpt>
      <trkpt lat="44.05325" lon="7.29418">
        <ele>1318</ele>
        <time>2018-06-16T08:10:26Z</time>
      </trkpt>
      <trkpt lat="44.05326" lon="7.29426">
        <ele>1315</ele>
        <time>2018-06-16T08:10:37Z</time>
      </trkpt>
      <trkpt lat="44.05326" lon="7.2943">
        <ele>1312</ele>
        <time>2018-06-16T08:10:52Z</time>
      </trkpt>
      <trkpt lat="44.05324" lon="7.29438">
        <ele>1308</ele>
        <time>2018-06-16T08:11:06Z</time>
      </trkpt>
      <trkpt lat="44.05319" lon="7.29431">
        <ele>1308</ele>
        <time>2018-06-16T08:11:18Z</time>
      </trkpt>
      <trkpt lat="44.05317" lon="7.29434">
        <ele>1306</ele>
        <time>2018-06-16T08:11:34Z</time>
      </trkpt>
      <trkpt lat="44.05316" lon="7.29444">
        <ele>1303</ele>
        <time>2018-06-16T08:11:48Z</time>
      </trkpt>
      <trkpt lat="44.05315" lon="7.29453">
        <ele>1301</ele>
        <time>2018-06-16T08:12:02Z</time>
      </trkpt>
      <trkpt lat="44.0531" lon="7.29459">
        <ele>1299</ele>
        <time>2018-06-16T08:12:16Z</time>
      </trkpt>
      <trkpt lat="44.05309" lon="7.29459">
        <ele>1298</ele>
        <time>2018-06-16T08:12:31Z</time>
      </trkpt>
      <trkpt lat="44.05307" lon="7.29464">
        <ele>1297</ele>
        <time>2018-06-16T08:12:49Z</time>
      </trkpt>
      <trkpt lat="44.05305" lon="7.2947">
        <ele>1297</ele>
        <time>2018-06-16T08:13:07Z</time>
      </trkpt>
      <trkpt lat="44.05301" lon="7.2948">
        <ele>1296</ele>
        <time>2018-06-16T08:13:22Z</time>
      </trkpt>
      <trkpt lat="44.05299" lon="7.29494">
        <ele>1295</ele>
        <time>2018-06-16T08:13:38Z</time>
      </trkpt>
      <trkpt lat="44.05296" lon="7.29494">
        <ele>1293</ele>
        <time>2018-06-16T08:13:49Z</time>
      </trkpt>
      <trkpt lat="44.05296" lon="7.29495">
        <ele>1293</ele>
        <time>2018-06-16T08:14:03Z</time>
      </trkpt>
      <trkpt lat="44.05295" lon="7.29493">
        <ele>1293</ele>
        <time>2018-06-16T08:14:35Z</time>
      </trkpt>
      <trkpt lat="44.05292" lon="7.29486">
        <ele>1291</ele>
        <time>2018-06-16T08:14:50Z</time>
      </trkpt>
      <trkpt lat="44.05289" lon="7.29482">
        <ele>1291</ele>
        <time>2018-06-16T08:15:02Z</time>
      </trkpt>
      <trkpt lat="44.05289" lon="7.29492">
        <ele>1290</ele>
        <time>2018-06-16T08:15:19Z</time>
      </trkpt>
      <trkpt lat="44.05286" lon="7.29492">
        <ele>1288</ele>
        <time>2018-06-16T08:15:30Z</time>
      </trkpt>
      <trkpt lat="44.05281" lon="7.295">
        <ele>1275</ele>
        <time>2018-06-16T08:15:43Z</time>
      </trkpt>
      <trkpt lat="44.05277" lon="7.29504">
        <ele>1273</ele>
        <time>2018-06-16T08:15:56Z</time>
      </trkpt>
      <trkpt lat="44.05275" lon="7.29511">
        <ele>1272</ele>
        <time>2018-06-16T08:16:09Z</time>
      </trkpt>
      <trkpt lat="44.05273" lon="7.29511">
        <ele>1272</ele>
        <time>2018-06-16T08:16:34Z</time>
      </trkpt>
      <trkpt lat="44.05272" lon="7.29519">
        <ele>1271</ele>
        <time>2018-06-16T08:16:56Z</time>
      </trkpt>
      <trkpt lat="44.05268" lon="7.29513">
        <ele>1270</ele>
        <time>2018-06-16T08:17:09Z</time>
      </trkpt>
      <trkpt lat="44.05265" lon="7.29515">
        <ele>1269</ele>
        <time>2018-06-16T08:17:19Z</time>
      </trkpt>
      <trkpt lat="44.05264" lon="7.29522">
        <ele>1270</ele>
        <time>2018-06-16T08:17:32Z</time>
      </trkpt>
      <trkpt lat="44.05258" lon="7.29527">
        <ele>1269</ele>
        <time>2018-06-16T08:17:45Z</time>
      </trkpt>
      <trkpt lat="44.05256" lon="7.29529">
        <ele>1268</ele>
        <time>2018-06-16T08:17:58Z</time>
      </trkpt>
      <trkpt lat="44.0525" lon="7.29522">
        <ele>1268</ele>
        <time>2018-06-16T08:18:12Z</time>
      </trkpt>
      <trkpt lat="44.05249" lon="7.29519">
        <ele>1244</ele>
        <time>2018-06-16T08:18:28Z</time>
      </trkpt>
      <trkpt lat="44.05246" lon="7.29522">
        <ele>1242</ele>
        <time>2018-06-16T08:18:40Z</time>
      </trkpt>
      <trkpt lat="44.05243" lon="7.29529">
        <ele>1238</ele>
        <time>2018-06-16T08:18:53Z</time>
      </trkpt>
      <trkpt lat="44.05241" lon="7.29539">
        <ele>1236</ele>
        <time>2018-06-16T08:19:06Z</time>
      </trkpt>
      <trkpt lat="44.05237" lon="7.29546">
        <ele>1234</ele>
        <time>2018-06-16T08:19:22Z</time>
      </trkpt>
      <trkpt lat="44.05233" lon="7.29542">
        <ele>1234</ele>
        <time>2018-06-16T08:19:37Z</time>
      </trkpt>
      <trkpt lat="44.05231" lon="7.29541">
        <ele>1233</ele>
        <time>2018-06-16T08:19:51Z</time>
      </trkpt>
      <trkpt lat="44.05229" lon="7.2955">
        <ele>1232</ele>
        <time>2018-06-16T08:20:03Z</time>
      </trkpt>
      <trkpt lat="44.05231" lon="7.29557">
        <ele>1233</ele>
        <time>2018-06-16T08:20:17Z</time>
      </trkpt>
      <trkpt lat="44.05224" lon="7.29557">
        <ele>1231</ele>
        <time>2018-06-16T08:20:31Z</time>
      </trkpt>
      <trkpt lat="44.05223" lon="7.2956">
        <ele>1231</ele>
        <time>2018-06-16T08:20:56Z</time>
      </trkpt>
      <trkpt lat="44.05221" lon="7.29565">
        <ele>1230</ele>
        <time>2018-06-16T08:21:10Z</time>
      </trkpt>
      <trkpt lat="44.05215" lon="7.29559">
        <ele>1228</ele>
        <time>2018-06-16T08:21:23Z</time>
      </trkpt>
      <trkpt lat="44.05213" lon="7.29559">
        <ele>1227</ele>
        <time>2018-06-16T08:21:36Z</time>
      </trkpt>
      <trkpt lat="44.05212" lon="7.29566">
        <ele>1227</ele>
        <time>2018-06-16T08:21:47Z</time>
      </trkpt>
      <trkpt lat="44.05206" lon="7.29561">
        <ele>1225</ele>
        <time>2018-06-16T08:22:00Z</time>
      </trkpt>
      <trkpt lat="44.05204" lon="7.29564">
        <ele>1224</ele>
        <time>2018-06-16T08:22:13Z</time>
      </trkpt>
      <trkpt lat="44.05204" lon="7.29573">
        <ele>1224</ele>
        <time>2018-06-16T08:22:26Z</time>
      </trkpt>
      <trkpt lat="44.05202" lon="7.29577">
        <ele>1223</ele>
        <time>2018-06-16T08:22:38Z</time>
      </trkpt>
      <trkpt lat="44.05195" lon="7.29575">
        <ele>1220</ele>
        <time>2018-06-16T08:22:52Z</time>
      </trkpt>
      <trkpt lat="44.05192" lon="7.29577">
        <ele>1219</ele>
        <time>2018-06-16T08:23:06Z</time>
      </trkpt>
      <trkpt lat="44.05189" lon="7.29575">
        <ele>1218</ele>
        <time>2018-06-16T08:23:21Z</time>
      </trkpt>
      <trkpt lat="44.05189" lon="7.29579">
        <ele>1217</ele>
        <time>2018-06-16T08:23:34Z</time>
      </trkpt>
      <trkpt lat="44.05185" lon="7.2958">
        <ele>1215</ele>
        <time>2018-06-16T08:23:47Z</time>
      </trkpt>
      <trkpt lat="44.0518" lon="7.29579">
        <ele>1213</ele>
        <time>2018-06-16T08:24:02Z</time>
      </trkpt>
      <trkpt lat="44.05178" lon="7.29579">
        <ele>1212</ele>
        <time>2018-06-16T08:24:06Z</time>
      </trkpt>
      <trkpt lat="44.05176" lon="7.29582">
        <ele>1210</ele>
        <time>2018-06-16T08:24:21Z</time>
      </trkpt>
      <trkpt lat="44.05175" lon="7.29582">
        <ele>1210</ele>
        <time>2018-06-16T08:24:41Z</time>
      </trkpt>
      <trkpt lat="44.05174" lon="7.29592">
        <ele>1205</ele>
        <time>2018-06-16T08:24:57Z</time>
      </trkpt>
      <trkpt lat="44.05171" lon="7.29597">
        <ele>1205</ele>
        <time>2018-06-16T08:25:09Z</time>
      </trkpt>
      <trkpt lat="44.05173" lon="7.29605">
        <ele>1206</ele>
        <time>2018-06-16T08:25:32Z</time>
      </trkpt>
      <trkpt lat="44.05176" lon="7.29617">
        <ele>1205</ele>
        <time>2018-06-16T08:25:46Z</time>
      </trkpt>
      <trkpt lat="44.05175" lon="7.29622">
        <ele>1204</ele>
        <time>2018-06-16T08:26:00Z</time>
      </trkpt>
      <trkpt lat="44.05176" lon="7.2963">
        <ele>1202</ele>
        <time>2018-06-16T08:26:11Z</time>
      </trkpt>
      <trkpt lat="44.05182" lon="7.29638">
        <ele>1200</ele>
        <time>2018-06-16T08:26:24Z</time>
      </trkpt>
      <trkpt lat="44.05189" lon="7.29647">
        <ele>1200</ele>
        <time>2018-06-16T08:26:39Z</time>
      </trkpt>
      <trkpt lat="44.05188" lon="7.29654">
        <ele>1197</ele>
        <time>2018-06-16T08:26:50Z</time>
      </trkpt>
      <trkpt lat="44.0518" lon="7.29651">
        <ele>1195</ele>
        <time>2018-06-16T08:27:01Z</time>
      </trkpt>
      <trkpt lat="44.05173" lon="7.29654">
        <ele>1191</ele>
        <time>2018-06-16T08:27:16Z</time>
      </trkpt>
      <trkpt lat="44.05172" lon="7.29656">
        <ele>1189</ele>
        <time>2018-06-16T08:27:30Z</time>
      </trkpt>
      <trkpt lat="44.05178" lon="7.29662">
        <ele>1189</ele>
        <time>2018-06-16T08:27:45Z</time>
      </trkpt>
      <trkpt lat="44.05181" lon="7.29668">
        <ele>1176</ele>
        <time>2018-06-16T08:27:54Z</time>
      </trkpt>
      <trkpt lat="44.05178" lon="7.29671">
        <ele>1176</ele>
        <time>2018-06-16T08:28:08Z</time>
      </trkpt>
      <trkpt lat="44.05173" lon="7.29672">
        <ele>1176</ele>
        <time>2018-06-16T08:28:20Z</time>
      </trkpt>
      <trkpt lat="44.05177" lon="7.29675">
        <ele>1175</ele>
        <time>2018-06-16T08:28:34Z</time>
      </trkpt>
      <trkpt lat="44.05179" lon="7.29677">
        <ele>1175</ele>
        <time>2018-06-16T08:28:49Z</time>
      </trkpt>
      <trkpt lat="44.05181" lon="7.2968">
        <ele>1175</ele>
        <time>2018-06-16T08:29:07Z</time>
      </trkpt>
      <trkpt lat="44.05176" lon="7.29683">
        <ele>1174</ele>
        <time>2018-06-16T08:29:41Z</time>
      </trkpt>
      <trkpt lat="44.0517" lon="7.29684">
        <ele>1174</ele>
        <time>2018-06-16T08:29:54Z</time>
      </trkpt>
      <trkpt lat="44.05175" lon="7.2969">
        <ele>1173</ele>
        <time>2018-06-16T08:30:07Z</time>
      </trkpt>
      <trkpt lat="44.0518" lon="7.29692">
        <ele>1172</ele>
        <time>2018-06-16T08:30:18Z</time>
      </trkpt>
      <trkpt lat="44.0519" lon="7.29695">
        <ele>1173</ele>
        <time>2018-06-16T08:30:33Z</time>
      </trkpt>
      <trkpt lat="44.05194" lon="7.29699">
        <ele>1172</ele>
        <time>2018-06-16T08:30:44Z</time>
      </trkpt>
      <trkpt lat="44.05194" lon="7.29705">
        <ele>1171</ele>
        <time>2018-06-16T08:30:58Z</time>
      </trkpt>
      <trkpt lat="44.05191" lon="7.29707">
        <ele>1170</ele>
        <time>2018-06-16T08:31:07Z</time>
      </trkpt>
      <trkpt lat="44.05184" lon="7.29712">
        <ele>1167</ele>
        <time>2018-06-16T08:31:22Z</time>
      </trkpt>
      <trkpt lat="44.05186" lon="7.29715">
        <ele>1167</ele>
        <time>2018-06-16T08:31:44Z</time>
      </trkpt>
      <trkpt lat="44.05191" lon="7.29721">
        <ele>1165</ele>
        <time>2018-06-16T08:32:01Z</time>
      </trkpt>
      <trkpt lat="44.05189" lon="7.29724">
        <ele>1164</ele>
        <time>2018-06-16T08:32:04Z</time>
      </trkpt>
      <trkpt lat="44.05183" lon="7.29727">
        <ele>1162</ele>
        <time>2018-06-16T08:32:15Z</time>
      </trkpt>
      <trkpt lat="44.05179" lon="7.29732">
        <ele>1158</ele>
        <time>2018-06-16T08:32:26Z</time>
      </trkpt>
      <trkpt lat="44.05172" lon="7.29737">
        <ele>1153</ele>
        <time>2018-06-16T08:32:40Z</time>
      </trkpt>
      <trkpt lat="44.05171" lon="7.29738">
        <ele>1153</ele>
        <time>2018-06-16T08:33:01Z</time>
      </trkpt>
      <trkpt lat="44.05169" lon="7.29739">
        <ele>1152</ele>
        <time>2018-06-16T08:33:30Z</time>
      </trkpt>
      <trkpt lat="44.05162" lon="7.29739">
        <ele>1140</ele>
        <time>2018-06-16T08:33:44Z</time>
      </trkpt>
      <trkpt lat="44.05155" lon="7.29739">
        <ele>1140</ele>
        <time>2018-06-16T08:33:57Z</time>
      </trkpt>
      <trkpt lat="44.05147" lon="7.29737">
        <ele>1139</ele>
        <time>2018-06-16T08:34:10Z</time>
      </trkpt>
      <trkpt lat="44.05141" lon="7.29736">
        <ele>1138</ele>
        <time>2018-06-16T08:34:22Z</time>
      </trkpt>
      <trkpt lat="44.05141" lon="7.29738">
        <ele>1138</ele>
        <time>2018-06-16T08:34:34Z</time>
      </trkpt>
      <trkpt lat="44.05145" lon="7.29744">
        <ele>1138</ele>
        <time>2018-06-16T08:34:42Z</time>
      </trkpt>
      <trkpt lat="44.05149" lon="7.29747">
        <ele>1138</ele>
        <time>2018-06-16T08:35:00Z</time>
      </trkpt>
      <trkpt lat="44.05154" lon="7.29752">
        <ele>1126</ele>
        <time>2018-06-16T08:35:13Z</time>
      </trkpt>
      <trkpt lat="44.05149" lon="7.29758">
        <ele>1121</ele>
        <time>2018-06-16T08:35:27Z</time>
      </trkpt>
      <trkpt lat="44.05156" lon="7.29763">
        <ele>1123</ele>
        <time>2018-06-16T08:35:40Z</time>
      </trkpt>
      <trkpt lat="44.05159" lon="7.29765">
        <ele>1123</ele>
        <time>2018-06-16T08:35:46Z</time>
      </trkpt>
      <trkpt lat="44.05161" lon="7.29767">
        <ele>1122</ele>
        <time>2018-06-16T08:35:49Z</time>
      </trkpt>
      <trkpt lat="44.05154" lon="7.29777">
        <ele>1115</ele>
        <time>2018-06-16T08:36:02Z</time>
      </trkpt>
      <trkpt lat="44.0515" lon="7.29779">
        <ele>1114</ele>
        <time>2018-06-16T08:36:08Z</time>
      </trkpt>
      <trkpt lat="44.05145" lon="7.2978">
        <ele>1112</ele>
        <time>2018-06-16T08:36:22Z</time>
      </trkpt>
      <trkpt lat="44.05142" lon="7.29788">
        <ele>1109</ele>
        <time>2018-06-16T08:36:35Z</time>
      </trkpt>
      <trkpt lat="44.05137" lon="7.29789">
        <ele>1108</ele>
        <time>2018-06-16T08:36:46Z</time>
      </trkpt>
      <trkpt lat="44.05129" lon="7.2979">
        <ele>1106</ele>
        <time>2018-06-16T08:36:57Z</time>
      </trkpt>
      <trkpt lat="44.05123" lon="7.29788">
        <ele>1106</ele>
        <time>2018-06-16T08:37:10Z</time>
      </trkpt>
      <trkpt lat="44.05126" lon="7.29792">
        <ele>1105</ele>
        <time>2018-06-16T08:37:21Z</time>
      </trkpt>
      <trkpt lat="44.0512" lon="7.29794">
        <ele>1104</ele>
        <time>2018-06-16T08:37:31Z</time>
      </trkpt>
      <trkpt lat="44.05118" lon="7.298">
        <ele>1102</ele>
        <time>2018-06-16T08:37:42Z</time>
      </trkpt>
      <trkpt lat="44.05117" lon="7.29805">
        <ele>1101</ele>
        <time>2018-06-16T08:37:52Z</time>
      </trkpt>
      <trkpt lat="44.05117" lon="7.29807">
        <ele>1100</ele>
        <time>2018-06-16T08:37:55Z</time>
      </trkpt>
      <trkpt lat="44.05119" lon="7.29815">
        <ele>1099</ele>
        <time>2018-06-16T08:38:03Z</time>
      </trkpt>
      <trkpt lat="44.05123" lon="7.29833">
        <ele>1098</ele>
        <time>2018-06-16T08:38:18Z</time>
      </trkpt>
      <trkpt lat="44.05124" lon="7.29838">
        <ele>1077</ele>
        <time>2018-06-16T08:38:28Z</time>
      </trkpt>
      <trkpt lat="44.05126" lon="7.29837">
        <ele>1077</ele>
        <time>2018-06-16T08:38:32Z</time>
      </trkpt>
      <trkpt lat="44.05128" lon="7.29837">
        <ele>1078</ele>
        <time>2018-06-16T08:38:41Z</time>
      </trkpt>
      <trkpt lat="44.05136" lon="7.29843">
        <ele>1079</ele>
        <time>2018-06-16T08:38:54Z</time>
      </trkpt>
      <trkpt lat="44.05142" lon="7.29848">
        <ele>1080</ele>
        <time>2018-06-16T08:39:07Z</time>
      </trkpt>
      <trkpt lat="44.05143" lon="7.29848">
        <ele>1080</ele>
        <time>2018-06-16T08:39:08Z</time>
      </trkpt>
      <trkpt lat="44.05149" lon="7.29856">
        <ele>1080</ele>
        <time>2018-06-16T08:39:21Z</time>
      </trkpt>
      <trkpt lat="44.05151" lon="7.29859">
        <ele>1079</ele>
        <time>2018-06-16T08:39:33Z</time>
      </trkpt>
      <trkpt lat="44.05152" lon="7.29865">
        <ele>1078</ele>
        <time>2018-06-16T08:39:45Z</time>
      </trkpt>
      <trkpt lat="44.05156" lon="7.29869">
        <ele>1077</ele>
        <time>2018-06-16T08:40:00Z</time>
      </trkpt>
      <trkpt lat="44.05159" lon="7.29875">
        <ele>1076</ele>
        <time>2018-06-16T08:40:11Z</time>
      </trkpt>
      <trkpt lat="44.05158" lon="7.2988">
        <ele>1074</ele>
        <time>2018-06-16T08:40:25Z</time>
      </trkpt>
      <trkpt lat="44.05155" lon="7.29887">
        <ele>1073</ele>
        <time>2018-06-16T08:40:38Z</time>
      </trkpt>
      <trkpt lat="44.05155" lon="7.29889">
        <ele>1072</ele>
        <time>2018-06-16T08:40:53Z</time>
      </trkpt>
      <trkpt lat="44.05153" lon="7.29894">
        <ele>1071</ele>
        <time>2018-06-16T08:40:58Z</time>
      </trkpt>
      <trkpt lat="44.05148" lon="7.29899">
        <ele>1070</ele>
        <time>2018-06-16T08:41:10Z</time>
      </trkpt>
      <trkpt lat="44.05144" lon="7.29901">
        <ele>1070</ele>
        <time>2018-06-16T08:41:25Z</time>
      </trkpt>
      <trkpt lat="44.05142" lon="7.29902">
        <ele>1069</ele>
        <time>2018-06-16T08:41:38Z</time>
      </trkpt>
      <trkpt lat="44.05142" lon="7.29903">
        <ele>1069</ele>
        <time>2018-06-16T08:41:52Z</time>
      </trkpt>
      <trkpt lat="44.05142" lon="7.29904">
        <ele>1069</ele>
        <time>2018-06-16T08:42:14Z</time>
      </trkpt>
      <trkpt lat="44.05136" lon="7.29908">
        <ele>1068</ele>
        <time>2018-06-16T08:42:27Z</time>
      </trkpt>
      <trkpt lat="44.05128" lon="7.29908">
        <ele>1067</ele>
        <time>2018-06-16T08:42:41Z</time>
      </trkpt>
      <trkpt lat="44.05127" lon="7.29912">
        <ele>1066</ele>
        <time>2018-06-16T08:42:55Z</time>
      </trkpt>
      <trkpt lat="44.05125" lon="7.29914">
        <ele>1066</ele>
        <time>2018-06-16T08:43:05Z</time>
      </trkpt>
      <trkpt lat="44.05126" lon="7.29916">
        <ele>1066</ele>
        <time>2018-06-16T08:43:18Z</time>
      </trkpt>
      <trkpt lat="44.05126" lon="7.29917">
        <ele>1059</ele>
        <time>2018-06-16T08:43:23Z</time>
      </trkpt>
      <trkpt lat="44.05124" lon="7.29919">
        <ele>1058</ele>
        <time>2018-06-16T08:43:34Z</time>
      </trkpt>
      <trkpt lat="44.05122" lon="7.2992">
        <ele>1058</ele>
        <time>2018-06-16T08:43:46Z</time>
      </trkpt>
      <trkpt lat="44.05121" lon="7.2992">
        <ele>1058</ele>
        <time>2018-06-16T08:44:03Z</time>
      </trkpt>
      <trkpt lat="44.05121" lon="7.29925">
        <ele>1058</ele>
        <time>2018-06-16T08:44:13Z</time>
      </trkpt>
      <trkpt lat="44.05121" lon="7.29925">
        <ele>1058</ele>
        <time>2018-06-16T08:44:22Z</time>
      </trkpt>
      <trkpt lat="44.05121" lon="7.29926">
        <ele>1058</ele>
        <time>2018-06-16T08:44:40Z</time>
      </trkpt>
      <trkpt lat="44.05121" lon="7.29925">
        <ele>1058</ele>
        <time>2018-06-16T08:45:28Z</time>
      </trkpt>
      <trkpt lat="44.05118" lon="7.29926">
        <ele>1057</ele>
        <time>2018-06-16T08:47:18Z</time>
      </trkpt>
      <trkpt lat="44.05118" lon="7.29928">
        <ele>1057</ele>
        <time>2018-06-16T08:48:08Z</time>
      </trkpt>
      <trkpt lat="44.05118" lon="7.29929">
        <ele>1057</ele>
        <time>2018-06-16T08:48:48Z</time>
      </trkpt>
      <trkpt lat="44.05119" lon="7.29929">
        <ele>1058</ele>
        <time>2018-06-16T08:49:02Z</time>
      </trkpt>
      <trkpt lat="44.05119" lon="7.29928">
        <ele>1057</ele>
        <time>2018-06-16T08:49:55Z</time>
      </trkpt>
      <trkpt lat="44.05121" lon="7.29934">
        <ele>1058</ele>
        <time>2018-06-16T08:51:47Z</time>
      </trkpt>
      <trkpt lat="44.05123" lon="7.29936">
        <ele>1059</ele>
        <time>2018-06-16T08:52:01Z</time>
      </trkpt>
      <trkpt lat="44.05124" lon="7.29939">
        <ele>1059</ele>
        <time>2018-06-16T08:52:04Z</time>
      </trkpt>
      <trkpt lat="44.05121" lon="7.29946">
        <ele>1059</ele>
        <time>2018-06-16T08:52:16Z</time>
      </trkpt>
      <trkpt lat="44.05119" lon="7.29947">
        <ele>1059</ele>
        <time>2018-06-16T08:52:33Z</time>
      </trkpt>
      <trkpt lat="44.05119" lon="7.2995">
        <ele>1059</ele>
        <time>2018-06-16T08:53:02Z</time>
      </trkpt>
      <trkpt lat="44.05116" lon="7.29948">
        <ele>1058</ele>
        <time>2018-06-16T08:53:16Z</time>
      </trkpt>
      <trkpt lat="44.05108" lon="7.29953">
        <ele>1058</ele>
        <time>2018-06-16T08:53:36Z</time>
      </trkpt>
      <trkpt lat="44.051" lon="7.29953">
        <ele>1057</ele>
        <time>2018-06-16T08:53:44Z</time>
      </trkpt>
      <trkpt lat="44.05094" lon="7.29959">
        <ele>1057</ele>
        <time>2018-06-16T08:53:54Z</time>
      </trkpt>
      <trkpt lat="44.05095" lon="7.29965">
        <ele>1058</ele>
        <time>2018-06-16T08:54:01Z</time>
      </trkpt>
      <trkpt lat="44.05096" lon="7.2997">
        <ele>1058</ele>
        <time>2018-06-16T08:54:05Z</time>
      </trkpt>
      <trkpt lat="44.05092" lon="7.29978">
        <ele>1058</ele>
        <time>2018-06-16T08:54:17Z</time>
      </trkpt>
      <trkpt lat="44.05085" lon="7.29984">
        <ele>1058</ele>
        <time>2018-06-16T08:54:28Z</time>
      </trkpt>
      <trkpt lat="44.05082" lon="7.29985">
        <ele>1050</ele>
        <time>2018-06-16T08:54:35Z</time>
      </trkpt>
      <trkpt lat="44.05072" lon="7.2999">
        <ele>1050</ele>
        <time>2018-06-16T08:54:43Z</time>
      </trkpt>
      <trkpt lat="44.05061" lon="7.29998">
        <ele>1047</ele>
        <time>2018-06-16T08:54:55Z</time>
      </trkpt>
      <trkpt lat="44.0505" lon="7.30004">
        <ele>1061</ele>
        <time>2018-06-16T08:55:06Z</time>
      </trkpt>
      <trkpt lat="44.05039" lon="7.30018">
        <ele>1061</ele>
        <time>2018-06-16T08:55:18Z</time>
      </trkpt>
      <trkpt lat="44.05038" lon="7.30021">
        <ele>1061</ele>
        <time>2018-06-16T08:55:21Z</time>
      </trkpt>
      <trkpt lat="44.05035" lon="7.30027">
        <ele>1062</ele>
        <time>2018-06-16T08:55:29Z</time>
      </trkpt>
      <trkpt lat="44.05026" lon="7.30022">
        <ele>1060</ele>
        <time>2018-06-16T08:55:35Z</time>
      </trkpt>
      <trkpt lat="44.05015" lon="7.30018">
        <ele>1056</ele>
        <time>2018-06-16T08:55:46Z</time>
      </trkpt>
      <trkpt lat="44.05001" lon="7.30023">
        <ele>1056</ele>
        <time>2018-06-16T08:55:59Z</time>
      </trkpt>
      <trkpt lat="44.04994" lon="7.30025">
        <ele>1049</ele>
        <time>2018-06-16T08:56:11Z</time>
      </trkpt>
      <trkpt lat="44.04987" lon="7.30028">
        <ele>1050</ele>
        <time>2018-06-16T08:56:20Z</time>
      </trkpt>
      <trkpt lat="44.04975" lon="7.30039">
        <ele>1052</ele>
        <time>2018-06-16T08:56:32Z</time>
      </trkpt>
      <trkpt lat="44.04965" lon="7.30043">
        <ele>1052</ele>
        <time>2018-06-16T08:56:44Z</time>
      </trkpt>
      <trkpt lat="44.04957" lon="7.30045">
        <ele>1052</ele>
        <time>2018-06-16T08:56:50Z</time>
      </trkpt>
      <trkpt lat="44.04948" lon="7.30049">
        <ele>1052</ele>
        <time>2018-06-16T08:57:03Z</time>
      </trkpt>
      <trkpt lat="44.04948" lon="7.30048">
        <ele>1052</ele>
        <time>2018-06-16T08:57:19Z</time>
      </trkpt>
      <trkpt lat="44.04938" lon="7.30052">
        <ele>1052</ele>
        <time>2018-06-16T08:57:35Z</time>
      </trkpt>
      <trkpt lat="44.04929" lon="7.30054">
        <ele>1053</ele>
        <time>2018-06-16T08:57:49Z</time>
      </trkpt>
      <trkpt lat="44.04918" lon="7.30062">
        <ele>1054</ele>
        <time>2018-06-16T08:58:00Z</time>
      </trkpt>
      <trkpt lat="44.04912" lon="7.30063">
        <ele>1047</ele>
        <time>2018-06-16T08:58:05Z</time>
      </trkpt>
      <trkpt lat="44.04907" lon="7.30065">
        <ele>1047</ele>
        <time>2018-06-16T08:58:09Z</time>
      </trkpt>
      <trkpt lat="44.04897" lon="7.30073">
        <ele>1047</ele>
        <time>2018-06-16T08:58:24Z</time>
      </trkpt>
      <trkpt lat="44.04889" lon="7.30074">
        <ele>1046</ele>
        <time>2018-06-16T08:58:39Z</time>
      </trkpt>
      <trkpt lat="44.04882" lon="7.30076">
        <ele>1044</ele>
        <time>2018-06-16T08:58:50Z</time>
      </trkpt>
      <trkpt lat="44.04874" lon="7.30082">
        <ele>1044</ele>
        <time>2018-06-16T08:59:01Z</time>
      </trkpt>
      <trkpt lat="44.04867" lon="7.30086">
        <ele>1063</ele>
        <time>2018-06-16T08:59:09Z</time>
      </trkpt>
      <trkpt lat="44.04853" lon="7.3009">
        <ele>1059</ele>
        <time>2018-06-16T08:59:21Z</time>
      </trkpt>
      <trkpt lat="44.0485" lon="7.30091">
        <ele>1058</ele>
        <time>2018-06-16T08:59:24Z</time>
      </trkpt>
      <trkpt lat="44.04841" lon="7.30094">
        <ele>1056</ele>
        <time>2018-06-16T08:59:36Z</time>
      </trkpt>
      <trkpt lat="44.04836" lon="7.30094">
        <ele>1055</ele>
        <time>2018-06-16T08:59:41Z</time>
      </trkpt>
      <trkpt lat="44.04822" lon="7.30098">
        <ele>1047</ele>
        <time>2018-06-16T08:59:54Z</time>
      </trkpt>
      <trkpt lat="44.0481" lon="7.30104">
        <ele>1047</ele>
        <time>2018-06-16T09:00:07Z</time>
      </trkpt>
      <trkpt lat="44.04806" lon="7.30105">
        <ele>1047</ele>
        <time>2018-06-16T09:00:19Z</time>
      </trkpt>
      <trkpt lat="44.04794" lon="7.3011">
        <ele>1046</ele>
        <time>2018-06-16T09:00:31Z</time>
      </trkpt>
      <trkpt lat="44.04782" lon="7.30115">
        <ele>1044</ele>
        <time>2018-06-16T09:00:44Z</time>
      </trkpt>
      <trkpt lat="44.04776" lon="7.30117">
        <ele>1044</ele>
        <time>2018-06-16T09:00:56Z</time>
      </trkpt>
      <trkpt lat="44.04769" lon="7.30122">
        <ele>1044</ele>
        <time>2018-06-16T09:01:04Z</time>
      </trkpt>
      <trkpt lat="44.04761" lon="7.30133">
        <ele>1045</ele>
        <time>2018-06-16T09:01:17Z</time>
      </trkpt>
      <trkpt lat="44.04756" lon="7.30141">
        <ele>1045</ele>
        <time>2018-06-16T09:01:28Z</time>
      </trkpt>
      <trkpt lat="44.04747" lon="7.30155">
        <ele>1037</ele>
        <time>2018-06-16T09:01:42Z</time>
      </trkpt>
      <trkpt lat="44.04745" lon="7.3017">
        <ele>1044</ele>
        <time>2018-06-16T09:01:56Z</time>
      </trkpt>
      <trkpt lat="44.0474" lon="7.30175">
        <ele>1043</ele>
        <time>2018-06-16T09:02:08Z</time>
      </trkpt>
      <trkpt lat="44.04737" lon="7.3018">
        <ele>1042</ele>
        <time>2018-06-16T09:02:12Z</time>
      </trkpt>
      <trkpt lat="44.04735" lon="7.3019">
        <ele>1042</ele>
        <time>2018-06-16T09:02:27Z</time>
      </trkpt>
      <trkpt lat="44.04733" lon="7.30193">
        <ele>1041</ele>
        <time>2018-06-16T09:02:37Z</time>
      </trkpt>
      <trkpt lat="44.04728" lon="7.302">
        <ele>1041</ele>
        <time>2018-06-16T09:02:45Z</time>
      </trkpt>
      <trkpt lat="44.04717" lon="7.30214">
        <ele>1040</ele>
        <time>2018-06-16T09:02:59Z</time>
      </trkpt>
      <trkpt lat="44.04715" lon="7.30214">
        <ele>1040</ele>
        <time>2018-06-16T09:03:02Z</time>
      </trkpt>
      <trkpt lat="44.04706" lon="7.30226">
        <ele>1039</ele>
        <time>2018-06-16T09:03:14Z</time>
      </trkpt>
      <trkpt lat="44.047" lon="7.30234">
        <ele>1038</ele>
        <time>2018-06-16T09:03:24Z</time>
      </trkpt>
      <trkpt lat="44.04687" lon="7.30233">
        <ele>1035</ele>
        <time>2018-06-16T09:03:37Z</time>
      </trkpt>
      <trkpt lat="44.04685" lon="7.30227">
        <ele>1035</ele>
        <time>2018-06-16T09:03:50Z</time>
      </trkpt>
      <trkpt lat="44.04682" lon="7.30227">
        <ele>1034</ele>
        <time>2018-06-16T09:04:11Z</time>
      </trkpt>
      <trkpt lat="44.04681" lon="7.30222">
        <ele>1034</ele>
        <time>2018-06-16T09:04:23Z</time>
      </trkpt>
      <trkpt lat="44.0468" lon="7.30217">
        <ele>1034</ele>
        <time>2018-06-16T09:04:43Z</time>
      </trkpt>
      <trkpt lat="44.04684" lon="7.30201">
        <ele>1033</ele>
        <time>2018-06-16T09:04:56Z</time>
      </trkpt>
      <trkpt lat="44.04683" lon="7.30192">
        <ele>1032</ele>
        <time>2018-06-16T09:05:08Z</time>
      </trkpt>
      <trkpt lat="44.04685" lon="7.3019">
        <ele>1032</ele>
        <time>2018-06-16T09:05:29Z</time>
      </trkpt>
      <trkpt lat="44.04687" lon="7.30187">
        <ele>1032</ele>
        <time>2018-06-16T09:05:45Z</time>
      </trkpt>
      <trkpt lat="44.04686" lon="7.30186">
        <ele>1031</ele>
        <time>2018-06-16T09:06:05Z</time>
      </trkpt>
      <trkpt lat="44.04685" lon="7.30188">
        <ele>1032</ele>
        <time>2018-06-16T09:06:16Z</time>
      </trkpt>
      <trkpt lat="44.04681" lon="7.30191">
        <ele>1031</ele>
        <time>2018-06-16T09:06:40Z</time>
      </trkpt>
      <trkpt lat="44.04671" lon="7.30197">
        <ele>1031</ele>
        <time>2018-06-16T09:06:54Z</time>
      </trkpt>
      <trkpt lat="44.04666" lon="7.30201">
        <ele>1013</ele>
        <time>2018-06-16T09:07:00Z</time>
      </trkpt>
      <trkpt lat="44.04664" lon="7.30215">
        <ele>1014</ele>
        <time>2018-06-16T09:07:10Z</time>
      </trkpt>
      <trkpt lat="44.04663" lon="7.30226">
        <ele>1016</ele>
        <time>2018-06-16T09:07:19Z</time>
      </trkpt>
      <trkpt lat="44.04659" lon="7.30237">
        <ele>1018</ele>
        <time>2018-06-16T09:07:26Z</time>
      </trkpt>
      <trkpt lat="44.04651" lon="7.30257">
        <ele>1018</ele>
        <time>2018-06-16T09:07:40Z</time>
      </trkpt>
      <trkpt lat="44.04648" lon="7.30264">
        <ele>1016</ele>
        <time>2018-06-16T09:07:45Z</time>
      </trkpt>
      <trkpt lat="44.04641" lon="7.30276">
        <ele>1013</ele>
        <time>2018-06-16T09:07:59Z</time>
      </trkpt>
      <trkpt lat="44.0464" lon="7.3029">
        <ele>1012</ele>
        <time>2018-06-16T09:08:08Z</time>
      </trkpt>
      <trkpt lat="44.04641" lon="7.30297">
        <ele>1012</ele>
        <time>2018-06-16T09:08:13Z</time>
      </trkpt>
      <trkpt lat="44.04641" lon="7.30301">
        <ele>1012</ele>
        <time>2018-06-16T09:08:16Z</time>
      </trkpt>
      <trkpt lat="44.04643" lon="7.30313">
        <ele>1013</ele>
        <time>2018-06-16T09:08:24Z</time>
      </trkpt>
      <trkpt lat="44.04643" lon="7.3033">
        <ele>1015</ele>
        <time>2018-06-16T09:08:38Z</time>
      </trkpt>
      <trkpt lat="44.04645" lon="7.30344">
        <ele>1013</ele>
        <time>2018-06-16T09:08:49Z</time>
      </trkpt>
      <trkpt lat="44.04635" lon="7.30357">
        <ele>1008</ele>
        <time>2018-06-16T09:09:03Z</time>
      </trkpt>
      <trkpt lat="44.04628" lon="7.30342">
        <ele>1006</ele>
        <time>2018-06-16T09:09:17Z</time>
      </trkpt>
      <trkpt lat="44.04632" lon="7.30345">
        <ele>1007</ele>
        <time>2018-06-16T09:09:30Z</time>
      </trkpt>
      <trkpt lat="44.04633" lon="7.30345">
        <ele>1008</ele>
        <time>2018-06-16T09:09:43Z</time>
      </trkpt>
      <trkpt lat="44.0463" lon="7.3034">
        <ele>1007</ele>
        <time>2018-06-16T09:09:55Z</time>
      </trkpt>
      <trkpt lat="44.04622" lon="7.30327">
        <ele>1007</ele>
        <time>2018-06-16T09:10:07Z</time>
      </trkpt>
      <trkpt lat="44.04615" lon="7.30317">
        <ele>1005</ele>
        <time>2018-06-16T09:10:19Z</time>
      </trkpt>
      <trkpt lat="44.04614" lon="7.30313">
        <ele>1005</ele>
        <time>2018-06-16T09:10:23Z</time>
      </trkpt>
      <trkpt lat="44.04609" lon="7.303">
        <ele>1005</ele>
        <time>2018-06-16T09:10:35Z</time>
      </trkpt>
      <trkpt lat="44.04608" lon="7.30295">
        <ele>1005</ele>
        <time>2018-06-16T09:10:38Z</time>
      </trkpt>
      <trkpt lat="44.04607" lon="7.30289">
        <ele>1005</ele>
        <time>2018-06-16T09:10:42Z</time>
      </trkpt>
      <trkpt lat="44.04605" lon="7.30288">
        <ele>1004</ele>
        <time>2018-06-16T09:10:44Z</time>
      </trkpt>
      <trkpt lat="44.04603" lon="7.30286">
        <ele>1004</ele>
        <time>2018-06-16T09:10:47Z</time>
      </trkpt>
      <trkpt lat="44.04599" lon="7.30289">
        <ele>1003</ele>
        <time>2018-06-16T09:11:01Z</time>
      </trkpt>
      <trkpt lat="44.046" lon="7.30292">
        <ele>1003</ele>
        <time>2018-06-16T09:11:05Z</time>
      </trkpt>
      <trkpt lat="44.04603" lon="7.30299">
        <ele>1003</ele>
        <time>2018-06-16T09:11:18Z</time>
      </trkpt>
      <trkpt lat="44.04605" lon="7.30307">
        <ele>1003</ele>
        <time>2018-06-16T09:11:25Z</time>
      </trkpt>
      <trkpt lat="44.04608" lon="7.30323">
        <ele>1002</ele>
        <time>2018-06-16T09:11:36Z</time>
      </trkpt>
      <trkpt lat="44.04609" lon="7.30334">
        <ele>999</ele>
        <time>2018-06-16T09:11:42Z</time>
      </trkpt>
      <trkpt lat="44.04613" lon="7.30348">
        <ele>1001</ele>
        <time>2018-06-16T09:11:51Z</time>
      </trkpt>
      <trkpt lat="44.04616" lon="7.30356">
        <ele>1002</ele>
        <time>2018-06-16T09:11:57Z</time>
      </trkpt>
      <trkpt lat="44.04617" lon="7.3036">
        <ele>1002</ele>
        <time>2018-06-16T09:12:00Z</time>
      </trkpt>
      <trkpt lat="44.04618" lon="7.30365">
        <ele>1003</ele>
        <time>2018-06-16T09:12:04Z</time>
      </trkpt>
      <trkpt lat="44.0462" lon="7.30373">
        <ele>1003</ele>
        <time>2018-06-16T09:12:16Z</time>
      </trkpt>
      <trkpt lat="44.04622" lon="7.30382">
        <ele>1003</ele>
        <time>2018-06-16T09:12:22Z</time>
      </trkpt>
      <trkpt lat="44.04623" lon="7.30395">
        <ele>1003</ele>
        <time>2018-06-16T09:12:31Z</time>
      </trkpt>
      <trkpt lat="44.04623" lon="7.30412">
        <ele>1002</ele>
        <time>2018-06-16T09:12:43Z</time>
      </trkpt>
      <trkpt lat="44.04624" lon="7.30426">
        <ele>998</ele>
        <time>2018-06-16T09:12:52Z</time>
      </trkpt>
      <trkpt lat="44.04625" lon="7.30429">
        <ele>998</ele>
        <time>2018-06-16T09:12:54Z</time>
      </trkpt>
      <trkpt lat="44.04625" lon="7.30438">
        <ele>998</ele>
        <time>2018-06-16T09:13:01Z</time>
      </trkpt>
      <trkpt lat="44.04626" lon="7.30454">
        <ele>997</ele>
        <time>2018-06-16T09:13:14Z</time>
      </trkpt>
      <trkpt lat="44.0463" lon="7.30474">
        <ele>997</ele>
        <time>2018-06-16T09:13:27Z</time>
      </trkpt>
      <trkpt lat="44.04632" lon="7.3049">
        <ele>998</ele>
        <time>2018-06-16T09:13:38Z</time>
      </trkpt>
      <trkpt lat="44.04632" lon="7.30507">
        <ele>987</ele>
        <time>2018-06-16T09:13:49Z</time>
      </trkpt>
      <trkpt lat="44.04633" lon="7.30516">
        <ele>985</ele>
        <time>2018-06-16T09:13:55Z</time>
      </trkpt>
      <trkpt lat="44.04633" lon="7.30519">
        <ele>985</ele>
        <time>2018-06-16T09:13:57Z</time>
      </trkpt>
      <trkpt lat="44.04633" lon="7.30526">
        <ele>984</ele>
        <time>2018-06-16T09:14:01Z</time>
      </trkpt>
      <trkpt lat="44.04632" lon="7.30536">
        <ele>982</ele>
        <time>2018-06-16T09:14:08Z</time>
      </trkpt>
      <trkpt lat="44.04634" lon="7.3055">
        <ele>980</ele>
        <time>2018-06-16T09:14:18Z</time>
      </trkpt>
      <trkpt lat="44.04633" lon="7.30553">
        <ele>980</ele>
        <time>2018-06-16T09:14:20Z</time>
      </trkpt>
      <trkpt lat="44.04633" lon="7.3057">
        <ele>978</ele>
        <time>2018-06-16T09:14:32Z</time>
      </trkpt>
      <trkpt lat="44.04632" lon="7.30577">
        <ele>977</ele>
        <time>2018-06-16T09:14:37Z</time>
      </trkpt>
      <trkpt lat="44.0463" lon="7.3059">
        <ele>960</ele>
        <time>2018-06-16T09:14:46Z</time>
      </trkpt>
      <trkpt lat="44.04633" lon="7.30604">
        <ele>959</ele>
        <time>2018-06-16T09:14:59Z</time>
      </trkpt>
      <trkpt lat="44.04635" lon="7.30611">
        <ele>959</ele>
        <time>2018-06-16T09:15:06Z</time>
      </trkpt>
      <trkpt lat="44.04636" lon="7.30614">
        <ele>959</ele>
        <time>2018-06-16T09:15:09Z</time>
      </trkpt>
      <trkpt lat="44.04639" lon="7.30621">
        <ele>959</ele>
        <time>2018-06-16T09:15:14Z</time>
      </trkpt>
      <trkpt lat="44.04648" lon="7.30627">
        <ele>960</ele>
        <time>2018-06-16T09:15:26Z</time>
      </trkpt>
      <trkpt lat="44.04658" lon="7.30629">
        <ele>962</ele>
        <time>2018-06-16T09:15:36Z</time>
      </trkpt>
      <trkpt lat="44.04668" lon="7.30633">
        <ele>995</ele>
        <time>2018-06-16T09:15:48Z</time>
      </trkpt>
      <trkpt lat="44.04669" lon="7.30634">
        <ele>995</ele>
        <time>2018-06-16T09:15:49Z</time>
      </trkpt>
      <trkpt lat="44.04678" lon="7.30637">
        <ele>995</ele>
        <time>2018-06-16T09:15:58Z</time>
      </trkpt>
      <trkpt lat="44.04682" lon="7.3064">
        <ele>995</ele>
        <time>2018-06-16T09:16:02Z</time>
      </trkpt>
      <trkpt lat="44.04686" lon="7.30647">
        <ele>995</ele>
        <time>2018-06-16T09:16:07Z</time>
      </trkpt>
      <trkpt lat="44.04684" lon="7.30656">
        <ele>991</ele>
        <time>2018-06-16T09:16:14Z</time>
      </trkpt>
      <trkpt lat="44.04681" lon="7.30679">
        <ele>978</ele>
        <time>2018-06-16T09:16:27Z</time>
      </trkpt>
      <trkpt lat="44.04681" lon="7.30682">
        <ele>978</ele>
        <time>2018-06-16T09:16:29Z</time>
      </trkpt>
      <trkpt lat="44.04675" lon="7.30702">
        <ele>976</ele>
        <time>2018-06-16T09:16:43Z</time>
      </trkpt>
      <trkpt lat="44.04675" lon="7.30708">
        <ele>975</ele>
        <time>2018-06-16T09:16:47Z</time>
      </trkpt>
      <trkpt lat="44.04679" lon="7.30731">
        <ele>969</ele>
        <time>2018-06-16T09:17:04Z</time>
      </trkpt>
      <trkpt lat="44.04683" lon="7.30743">
        <ele>966</ele>
        <time>2018-06-16T09:17:14Z</time>
      </trkpt>
      <trkpt lat="44.04684" lon="7.30748">
        <ele>966</ele>
        <time>2018-06-16T09:17:18Z</time>
      </trkpt>
      <trkpt lat="44.04692" lon="7.30767">
        <ele>958</ele>
        <time>2018-06-16T09:17:33Z</time>
      </trkpt>
      <trkpt lat="44.04695" lon="7.3077">
        <ele>959</ele>
        <time>2018-06-16T09:17:36Z</time>
      </trkpt>
      <trkpt lat="44.04698" lon="7.30775">
        <ele>959</ele>
        <time>2018-06-16T09:17:40Z</time>
      </trkpt>
      <trkpt lat="44.04708" lon="7.30789">
        <ele>960</ele>
        <time>2018-06-16T09:17:53Z</time>
      </trkpt>
      <trkpt lat="44.04718" lon="7.30807">
        <ele>961</ele>
        <time>2018-06-16T09:18:07Z</time>
      </trkpt>
      <trkpt lat="44.04726" lon="7.30823">
        <ele>962</ele>
        <time>2018-06-16T09:18:19Z</time>
      </trkpt>
      <trkpt lat="44.04729" lon="7.30828">
        <ele>962</ele>
        <time>2018-06-16T09:18:23Z</time>
      </trkpt>
      <trkpt lat="44.0474" lon="7.30844">
        <ele>952</ele>
        <time>2018-06-16T09:18:37Z</time>
      </trkpt>
      <trkpt lat="44.04745" lon="7.30851">
        <ele>950</ele>
        <time>2018-06-16T09:18:44Z</time>
      </trkpt>
      <trkpt lat="44.04753" lon="7.30865">
        <ele>971</ele>
        <time>2018-06-16T09:18:57Z</time>
      </trkpt>
      <trkpt lat="44.04759" lon="7.30882">
        <ele>967</ele>
        <time>2018-06-16T09:19:11Z</time>
      </trkpt>
      <trkpt lat="44.04761" lon="7.30887">
        <ele>965</ele>
        <time>2018-06-16T09:19:15Z</time>
      </trkpt>
      <trkpt lat="44.04765" lon="7.30896">
        <ele>962</ele>
        <time>2018-06-16T09:19:27Z</time>
      </trkpt>
      <trkpt lat="44.04767" lon="7.30899">
        <ele>962</ele>
        <time>2018-06-16T09:19:31Z</time>
      </trkpt>
      <trkpt lat="44.04776" lon="7.30907">
        <ele>964</ele>
        <time>2018-06-16T09:19:44Z</time>
      </trkpt>
      <trkpt lat="44.04782" lon="7.30918">
        <ele>949</ele>
        <time>2018-06-16T09:19:56Z</time>
      </trkpt>
      <trkpt lat="44.04778" lon="7.30923">
        <ele>947</ele>
        <time>2018-06-16T09:20:07Z</time>
      </trkpt>
      <trkpt lat="44.04771" lon="7.30925">
        <ele>944</ele>
        <time>2018-06-16T09:20:21Z</time>
      </trkpt>
      <trkpt lat="44.04771" lon="7.30925">
        <ele>944</ele>
        <time>2018-06-16T09:21:03Z</time>
      </trkpt>
      <trkpt lat="44.04771" lon="7.30926">
        <ele>944</ele>
        <time>2018-06-16T09:21:26Z</time>
      </trkpt>
      <trkpt lat="44.0477" lon="7.30927">
        <ele>944</ele>
        <time>2018-06-16T09:21:42Z</time>
      </trkpt>
      <trkpt lat="44.04771" lon="7.30927">
        <ele>944</ele>
        <time>2018-06-16T09:22:23Z</time>
      </trkpt>
      <trkpt lat="44.04771" lon="7.30925">
        <ele>944</ele>
        <time>2018-06-16T09:22:46Z</time>
      </trkpt>
      <trkpt lat="44.0477" lon="7.30927">
        <ele>944</ele>
        <time>2018-06-16T09:23:14Z</time>
      </trkpt>
      <trkpt lat="44.0477" lon="7.30931">
        <ele>944</ele>
        <time>2018-06-16T09:23:28Z</time>
      </trkpt>
      <trkpt lat="44.04769" lon="7.30931">
        <ele>944</ele>
        <time>2018-06-16T09:24:02Z</time>
      </trkpt>
      <trkpt lat="44.04767" lon="7.3093">
        <ele>943</ele>
        <time>2018-06-16T09:24:25Z</time>
      </trkpt>
      <trkpt lat="44.04764" lon="7.30928">
        <ele>942</ele>
        <time>2018-06-16T09:25:12Z</time>
      </trkpt>
      <trkpt lat="44.04763" lon="7.30927">
        <ele>942</ele>
        <time>2018-06-16T09:25:13Z</time>
      </trkpt>
      <trkpt lat="44.04762" lon="7.30926">
        <ele>941</ele>
        <time>2018-06-16T09:25:28Z</time>
      </trkpt>
      <trkpt lat="44.04754" lon="7.30921">
        <ele>937</ele>
        <time>2018-06-16T09:25:43Z</time>
      </trkpt>
      <trkpt lat="44.04746" lon="7.30912">
        <ele>934</ele>
        <time>2018-06-16T09:25:53Z</time>
      </trkpt>
      <trkpt lat="44.04741" lon="7.30905">
        <ele>934</ele>
        <time>2018-06-16T09:25:59Z</time>
      </trkpt>
      <trkpt lat="44.04729" lon="7.30889">
        <ele>934</ele>
        <time>2018-06-16T09:26:14Z</time>
      </trkpt>
      <trkpt lat="44.04726" lon="7.30883">
        <ele>935</ele>
        <time>2018-06-16T09:26:26Z</time>
      </trkpt>
      <trkpt lat="44.04732" lon="7.30885">
        <ele>935</ele>
        <time>2018-06-16T09:26:38Z</time>
      </trkpt>
      <trkpt lat="44.04733" lon="7.3089">
        <ele>935</ele>
        <time>2018-06-16T09:26:45Z</time>
      </trkpt>
      <trkpt lat="44.04734" lon="7.30891">
        <ele>935</ele>
        <time>2018-06-16T09:26:47Z</time>
      </trkpt>
      <trkpt lat="44.04743" lon="7.30904">
        <ele>934</ele>
        <time>2018-06-16T09:27:00Z</time>
      </trkpt>
      <trkpt lat="44.0475" lon="7.30912">
        <ele>941</ele>
        <time>2018-06-16T09:27:08Z</time>
      </trkpt>
      <trkpt lat="44.04754" lon="7.30922">
        <ele>938</ele>
        <time>2018-06-16T09:27:17Z</time>
      </trkpt>
      <trkpt lat="44.04758" lon="7.30932">
        <ele>941</ele>
        <time>2018-06-16T09:27:24Z</time>
      </trkpt>
      <trkpt lat="44.04763" lon="7.30947">
        <ele>943</ele>
        <time>2018-06-16T09:27:34Z</time>
      </trkpt>
      <trkpt lat="44.04764" lon="7.30951">
        <ele>943</ele>
        <time>2018-06-16T09:27:37Z</time>
      </trkpt>
      <trkpt lat="44.04766" lon="7.30955">
        <ele>943</ele>
        <time>2018-06-16T09:27:40Z</time>
      </trkpt>
      <trkpt lat="44.04768" lon="7.30961">
        <ele>943</ele>
        <time>2018-06-16T09:27:44Z</time>
      </trkpt>
      <trkpt lat="44.04773" lon="7.30973">
        <ele>942</ele>
        <time>2018-06-16T09:27:53Z</time>
      </trkpt>
      <trkpt lat="44.04776" lon="7.30977">
        <ele>941</ele>
        <time>2018-06-16T09:27:56Z</time>
      </trkpt>
      <trkpt lat="44.04784" lon="7.30993">
        <ele>942</ele>
        <time>2018-06-16T09:28:10Z</time>
      </trkpt>
      <trkpt lat="44.04786" lon="7.30996">
        <ele>942</ele>
        <time>2018-06-16T09:28:14Z</time>
      </trkpt>
      <trkpt lat="44.04787" lon="7.30999">
        <ele>943</ele>
        <time>2018-06-16T09:28:17Z</time>
      </trkpt>
      <trkpt lat="44.04791" lon="7.31007">
        <ele>936</ele>
        <time>2018-06-16T09:28:28Z</time>
      </trkpt>
      <trkpt lat="44.04797" lon="7.31014">
        <ele>937</ele>
        <time>2018-06-16T09:28:37Z</time>
      </trkpt>
      <trkpt lat="44.04797" lon="7.31015">
        <ele>937</ele>
        <time>2018-06-16T09:28:38Z</time>
      </trkpt>
      <trkpt lat="44.04803" lon="7.31029">
        <ele>937</ele>
        <time>2018-06-16T09:28:50Z</time>
      </trkpt>
      <trkpt lat="44.04807" lon="7.31035">
        <ele>938</ele>
        <time>2018-06-16T09:28:58Z</time>
      </trkpt>
      <trkpt lat="44.04816" lon="7.31049">
        <ele>937</ele>
        <time>2018-06-16T09:29:12Z</time>
      </trkpt>
      <trkpt lat="44.04818" lon="7.31051">
        <ele>937</ele>
        <time>2018-06-16T09:29:15Z</time>
      </trkpt>
      <trkpt lat="44.04825" lon="7.31069">
        <ele>936</ele>
        <time>2018-06-16T09:29:29Z</time>
      </trkpt>
      <trkpt lat="44.04827" lon="7.31072">
        <ele>936</ele>
        <time>2018-06-16T09:29:33Z</time>
      </trkpt>
      <trkpt lat="44.04832" lon="7.31076">
        <ele>936</ele>
        <time>2018-06-16T09:29:39Z</time>
      </trkpt>
      <trkpt lat="44.04837" lon="7.31094">
        <ele>943</ele>
        <time>2018-06-16T09:29:53Z</time>
      </trkpt>
      <trkpt lat="44.04836" lon="7.31097">
        <ele>944</ele>
        <time>2018-06-16T09:30:06Z</time>
      </trkpt>
      <trkpt lat="44.04835" lon="7.31101">
        <ele>945</ele>
        <time>2018-06-16T09:30:17Z</time>
      </trkpt>
      <trkpt lat="44.0483" lon="7.31103">
        <ele>942</ele>
        <time>2018-06-16T09:30:26Z</time>
      </trkpt>
      <trkpt lat="44.04822" lon="7.31107">
        <ele>943</ele>
        <time>2018-06-16T09:30:33Z</time>
      </trkpt>
      <trkpt lat="44.0482" lon="7.31109">
        <ele>944</ele>
        <time>2018-06-16T09:30:35Z</time>
      </trkpt>
      <trkpt lat="44.04811" lon="7.31112">
        <ele>945</ele>
        <time>2018-06-16T09:30:44Z</time>
      </trkpt>
      <trkpt lat="44.04806" lon="7.31109">
        <ele>945</ele>
        <time>2018-06-16T09:30:59Z</time>
      </trkpt>
      <trkpt lat="44.04799" lon="7.31107">
        <ele>945</ele>
        <time>2018-06-16T09:31:10Z</time>
      </trkpt>
      <trkpt lat="44.04796" lon="7.31107">
        <ele>945</ele>
        <time>2018-06-16T09:31:35Z</time>
      </trkpt>
      <trkpt lat="44.04787" lon="7.31103">
        <ele>944</ele>
        <time>2018-06-16T09:31:47Z</time>
      </trkpt>
      <trkpt lat="44.04783" lon="7.311">
        <ele>944</ele>
        <time>2018-06-16T09:31:58Z</time>
      </trkpt>
      <trkpt lat="44.0477" lon="7.31095">
        <ele>941</ele>
        <time>2018-06-16T09:32:11Z</time>
      </trkpt>
      <trkpt lat="44.0476" lon="7.31088">
        <ele>937</ele>
        <time>2018-06-16T09:32:23Z</time>
      </trkpt>
      <trkpt lat="44.04757" lon="7.3109">
        <ele>937</ele>
        <time>2018-06-16T09:32:35Z</time>
      </trkpt>
      <trkpt lat="44.04755" lon="7.31093">
        <ele>938</ele>
        <time>2018-06-16T09:32:50Z</time>
      </trkpt>
      <trkpt lat="44.04749" lon="7.31092">
        <ele>943</ele>
        <time>2018-06-16T09:33:03Z</time>
      </trkpt>
      <trkpt lat="44.04738" lon="7.31097">
        <ele>951</ele>
        <time>2018-06-16T09:33:16Z</time>
      </trkpt>
      <trkpt lat="44.04736" lon="7.31099">
        <ele>953</ele>
        <time>2018-06-16T09:33:18Z</time>
      </trkpt>
      <trkpt lat="44.04722" lon="7.31095">
        <ele>959</ele>
        <time>2018-06-16T09:33:32Z</time>
      </trkpt>
      <trkpt lat="44.04717" lon="7.31091">
        <ele>960</ele>
        <time>2018-06-16T09:33:37Z</time>
      </trkpt>
      <trkpt lat="44.04711" lon="7.31082">
        <ele>935</ele>
        <time>2018-06-16T09:33:46Z</time>
      </trkpt>
      <trkpt lat="44.04707" lon="7.31076">
        <ele>936</ele>
        <time>2018-06-16T09:34:11Z</time>
      </trkpt>
      <trkpt lat="44.04702" lon="7.31075">
        <ele>937</ele>
        <time>2018-06-16T09:34:15Z</time>
      </trkpt>
      <trkpt lat="44.04691" lon="7.31073">
        <ele>940</ele>
        <time>2018-06-16T09:34:27Z</time>
      </trkpt>
      <trkpt lat="44.04679" lon="7.31063">
        <ele>940</ele>
        <time>2018-06-16T09:34:40Z</time>
      </trkpt>
      <trkpt lat="44.04676" lon="7.31061">
        <ele>940</ele>
        <time>2018-06-16T09:34:44Z</time>
      </trkpt>
      <trkpt lat="44.04662" lon="7.31056">
        <ele>947</ele>
        <time>2018-06-16T09:34:57Z</time>
      </trkpt>
      <trkpt lat="44.04649" lon="7.3105">
        <ele>946</ele>
        <time>2018-06-16T09:35:10Z</time>
      </trkpt>
      <trkpt lat="44.04635" lon="7.31044">
        <ele>945</ele>
        <time>2018-06-16T09:35:22Z</time>
      </trkpt>
      <trkpt lat="44.0463" lon="7.31042">
        <ele>945</ele>
        <time>2018-06-16T09:35:28Z</time>
      </trkpt>
      <trkpt lat="44.04619" lon="7.31036">
        <ele>945</ele>
        <time>2018-06-16T09:35:39Z</time>
      </trkpt>
      <trkpt lat="44.04606" lon="7.31023">
        <ele>942</ele>
        <time>2018-06-16T09:35:52Z</time>
      </trkpt>
      <trkpt lat="44.04592" lon="7.31018">
        <ele>940</ele>
        <time>2018-06-16T09:36:04Z</time>
      </trkpt>
      <trkpt lat="44.04576" lon="7.31017">
        <ele>941</ele>
        <time>2018-06-16T09:36:16Z</time>
      </trkpt>
      <trkpt lat="44.04566" lon="7.31014">
        <ele>942</ele>
        <time>2018-06-16T09:36:26Z</time>
      </trkpt>
      <trkpt lat="44.04557" lon="7.3101">
        <ele>942</ele>
        <time>2018-06-16T09:36:37Z</time>
      </trkpt>
      <trkpt lat="44.04546" lon="7.31001">
        <ele>942</ele>
        <time>2018-06-16T09:36:47Z</time>
      </trkpt>
      <trkpt lat="44.04536" lon="7.30993">
        <ele>919</ele>
        <time>2018-06-16T09:37:00Z</time>
      </trkpt>
      <trkpt lat="44.04539" lon="7.30992">
        <ele>919</ele>
        <time>2018-06-16T09:37:12Z</time>
      </trkpt>
      <trkpt lat="44.04546" lon="7.30998">
        <ele>920</ele>
        <time>2018-06-16T09:37:22Z</time>
      </trkpt>
      <trkpt lat="44.04548" lon="7.31001">
        <ele>942</ele>
        <time>2018-06-16T09:37:33Z</time>
      </trkpt>
      <trkpt lat="44.04537" lon="7.31002">
        <ele>942</ele>
        <time>2018-06-16T09:37:46Z</time>
      </trkpt>
      <trkpt lat="44.04528" lon="7.31006">
        <ele>941</ele>
        <time>2018-06-16T09:38:00Z</time>
      </trkpt>
      <trkpt lat="44.04525" lon="7.31018">
        <ele>943</ele>
        <time>2018-06-16T09:38:12Z</time>
      </trkpt>
      <trkpt lat="44.04521" lon="7.31029">
        <ele>945</ele>
        <time>2018-06-16T09:38:26Z</time>
      </trkpt>
      <trkpt lat="44.04516" lon="7.3104">
        <ele>948</ele>
        <time>2018-06-16T09:38:37Z</time>
      </trkpt>
      <trkpt lat="44.04511" lon="7.31053">
        <ele>951</ele>
        <time>2018-06-16T09:38:49Z</time>
      </trkpt>
      <trkpt lat="44.04508" lon="7.31067">
        <ele>954</ele>
        <time>2018-06-16T09:39:01Z</time>
      </trkpt>
      <trkpt lat="44.04501" lon="7.31077">
        <ele>958</ele>
        <time>2018-06-16T09:39:14Z</time>
      </trkpt>
      <trkpt lat="44.04495" lon="7.31083">
        <ele>957</ele>
        <time>2018-06-16T09:39:25Z</time>
      </trkpt>
      <trkpt lat="44.04487" lon="7.31087">
        <ele>965</ele>
        <time>2018-06-16T09:39:36Z</time>
      </trkpt>
      <trkpt lat="44.0448" lon="7.31089">
        <ele>966</ele>
        <time>2018-06-16T09:39:49Z</time>
      </trkpt>
      <trkpt lat="44.04476" lon="7.3109">
        <ele>966</ele>
        <time>2018-06-16T09:39:57Z</time>
      </trkpt>
      <trkpt lat="44.04471" lon="7.31099">
        <ele>967</ele>
        <time>2018-06-16T09:40:10Z</time>
      </trkpt>
      <trkpt lat="44.04465" lon="7.31105">
        <ele>968</ele>
        <time>2018-06-16T09:40:23Z</time>
      </trkpt>
      <trkpt lat="44.04458" lon="7.3111">
        <ele>968</ele>
        <time>2018-06-16T09:40:34Z</time>
      </trkpt>
      <trkpt lat="44.0445" lon="7.31119">
        <ele>969</ele>
        <time>2018-06-16T09:40:47Z</time>
      </trkpt>
      <trkpt lat="44.04446" lon="7.3112">
        <ele>969</ele>
        <time>2018-06-16T09:40:58Z</time>
      </trkpt>
      <trkpt lat="44.04442" lon="7.31122">
        <ele>968</ele>
        <time>2018-06-16T09:41:12Z</time>
      </trkpt>
      <trkpt lat="44.04434" lon="7.31128">
        <ele>969</ele>
        <time>2018-06-16T09:41:25Z</time>
      </trkpt>
      <trkpt lat="44.04428" lon="7.31145">
        <ele>971</ele>
        <time>2018-06-16T09:41:38Z</time>
      </trkpt>
      <trkpt lat="44.04425" lon="7.31157">
        <ele>972</ele>
        <time>2018-06-16T09:41:50Z</time>
      </trkpt>
      <trkpt lat="44.04422" lon="7.31168">
        <ele>978</ele>
        <time>2018-06-16T09:42:01Z</time>
      </trkpt>
      <trkpt lat="44.04418" lon="7.31182">
        <ele>986</ele>
        <time>2018-06-16T09:42:14Z</time>
      </trkpt>
      <trkpt lat="44.04414" lon="7.31196">
        <ele>992</ele>
        <time>2018-06-16T09:42:26Z</time>
      </trkpt>
      <trkpt lat="44.04411" lon="7.31212">
        <ele>997</ele>
        <time>2018-06-16T09:42:39Z</time>
      </trkpt>
      <trkpt lat="44.04411" lon="7.3122">
        <ele>998</ele>
        <time>2018-06-16T09:42:52Z</time>
      </trkpt>
      <trkpt lat="44.04412" lon="7.31232">
        <ele>1000</ele>
        <time>2018-06-16T09:43:05Z</time>
      </trkpt>
      <trkpt lat="44.04411" lon="7.3124">
        <ele>1001</ele>
        <time>2018-06-16T09:43:16Z</time>
      </trkpt>
      <trkpt lat="44.0441" lon="7.31245">
        <ele>1002</ele>
        <time>2018-06-16T09:43:32Z</time>
      </trkpt>
      <trkpt lat="44.04407" lon="7.31258">
        <ele>1011</ele>
        <time>2018-06-16T09:43:47Z</time>
      </trkpt>
      <trkpt lat="44.04406" lon="7.31265">
        <ele>1014</ele>
        <time>2018-06-16T09:44:01Z</time>
      </trkpt>
      <trkpt lat="44.04407" lon="7.3126">
        <ele>1012</ele>
        <time>2018-06-16T09:44:12Z</time>
      </trkpt>
      <trkpt lat="44.04412" lon="7.31264">
        <ele>1012</ele>
        <time>2018-06-16T09:44:25Z</time>
      </trkpt>
      <trkpt lat="44.04411" lon="7.31271">
        <ele>1015</ele>
        <time>2018-06-16T09:44:34Z</time>
      </trkpt>
      <trkpt lat="44.04411" lon="7.3128">
        <ele>1019</ele>
        <time>2018-06-16T09:44:45Z</time>
      </trkpt>
      <trkpt lat="44.0441" lon="7.31284">
        <ele>1020</ele>
        <time>2018-06-16T09:44:58Z</time>
      </trkpt>
      <trkpt lat="44.04408" lon="7.31298">
        <ele>1023</ele>
        <time>2018-06-16T09:45:10Z</time>
      </trkpt>
      <trkpt lat="44.04408" lon="7.31306">
        <ele>1025</ele>
        <time>2018-06-16T09:45:24Z</time>
      </trkpt>
      <trkpt lat="44.04408" lon="7.31315">
        <ele>1027</ele>
        <time>2018-06-16T09:45:36Z</time>
      </trkpt>
      <trkpt lat="44.04407" lon="7.31322">
        <ele>1028</ele>
        <time>2018-06-16T09:45:47Z</time>
      </trkpt>
      <trkpt lat="44.04406" lon="7.31335">
        <ele>1037</ele>
        <time>2018-06-16T09:46:03Z</time>
      </trkpt>
      <trkpt lat="44.04405" lon="7.31345">
        <ele>1040</ele>
        <time>2018-06-16T09:46:16Z</time>
      </trkpt>
      <trkpt lat="44.04405" lon="7.31346">
        <ele>1040</ele>
        <time>2018-06-16T09:46:35Z</time>
      </trkpt>
      <trkpt lat="44.04404" lon="7.31349">
        <ele>1041</ele>
        <time>2018-06-16T09:46:50Z</time>
      </trkpt>
      <trkpt lat="44.04403" lon="7.3135">
        <ele>1041</ele>
        <time>2018-06-16T09:46:55Z</time>
      </trkpt>
      <trkpt lat="44.04399" lon="7.31358">
        <ele>1044</ele>
        <time>2018-06-16T09:47:07Z</time>
      </trkpt>
      <trkpt lat="44.04389" lon="7.31364">
        <ele>1046</ele>
        <time>2018-06-16T09:47:20Z</time>
      </trkpt>
      <trkpt lat="44.04385" lon="7.31367">
        <ele>1047</ele>
        <time>2018-06-16T09:47:33Z</time>
      </trkpt>
      <trkpt lat="44.04385" lon="7.31366">
        <ele>1046</ele>
        <time>2018-06-16T09:47:38Z</time>
      </trkpt>
      <trkpt lat="44.0439" lon="7.31362">
        <ele>1045</ele>
        <time>2018-06-16T09:47:50Z</time>
      </trkpt>
      <trkpt lat="44.04391" lon="7.31361">
        <ele>1045</ele>
        <time>2018-06-16T09:48:01Z</time>
      </trkpt>
      <trkpt lat="44.04387" lon="7.3136">
        <ele>1045</ele>
        <time>2018-06-16T09:48:13Z</time>
      </trkpt>
      <trkpt lat="44.0438" lon="7.31358">
        <ele>1045</ele>
        <time>2018-06-16T09:48:24Z</time>
      </trkpt>
      <trkpt lat="44.04371" lon="7.31363">
        <ele>1046</ele>
        <time>2018-06-16T09:48:36Z</time>
      </trkpt>
      <trkpt lat="44.04366" lon="7.31371">
        <ele>1047</ele>
        <time>2018-06-16T09:48:49Z</time>
      </trkpt>
      <trkpt lat="44.04365" lon="7.31373">
        <ele>1047</ele>
        <time>2018-06-16T09:49:22Z</time>
      </trkpt>
      <trkpt lat="44.04361" lon="7.31371">
        <ele>1047</ele>
        <time>2018-06-16T09:49:33Z</time>
      </trkpt>
      <trkpt lat="44.04355" lon="7.31369">
        <ele>1047</ele>
        <time>2018-06-16T09:49:47Z</time>
      </trkpt>
      <trkpt lat="44.04354" lon="7.31364">
        <ele>1046</ele>
        <time>2018-06-16T09:50:04Z</time>
      </trkpt>
      <trkpt lat="44.04356" lon="7.31359">
        <ele>1046</ele>
        <time>2018-06-16T09:50:16Z</time>
      </trkpt>
      <trkpt lat="44.04354" lon="7.31356">
        <ele>1045</ele>
        <time>2018-06-16T09:50:28Z</time>
      </trkpt>
      <trkpt lat="44.04354" lon="7.31356">
        <ele>1045</ele>
        <time>2018-06-16T09:50:33Z</time>
      </trkpt>
      <trkpt lat="44.04347" lon="7.31355">
        <ele>1045</ele>
        <time>2018-06-16T09:50:44Z</time>
      </trkpt>
      <trkpt lat="44.0434" lon="7.31346">
        <ele>1044</ele>
        <time>2018-06-16T09:50:56Z</time>
      </trkpt>
      <trkpt lat="44.04332" lon="7.31334">
        <ele>1043</ele>
        <time>2018-06-16T09:51:07Z</time>
      </trkpt>
      <trkpt lat="44.04329" lon="7.31328">
        <ele>1047</ele>
        <time>2018-06-16T09:51:14Z</time>
      </trkpt>
      <trkpt lat="44.04329" lon="7.31326">
        <ele>1048</ele>
        <time>2018-06-16T09:51:25Z</time>
      </trkpt>
      <trkpt lat="44.04331" lon="7.31334">
        <ele>1044</ele>
        <time>2018-06-16T09:51:36Z</time>
      </trkpt>
      <trkpt lat="44.04335" lon="7.31342">
        <ele>1043</ele>
        <time>2018-06-16T09:51:47Z</time>
      </trkpt>
      <trkpt lat="44.04338" lon="7.31353">
        <ele>1045</ele>
        <time>2018-06-16T09:51:59Z</time>
      </trkpt>
      <trkpt lat="44.04332" lon="7.31354">
        <ele>1058</ele>
        <time>2018-06-16T09:52:12Z</time>
      </trkpt>
      <trkpt lat="44.04324" lon="7.31345">
        <ele>1056</ele>
        <time>2018-06-16T09:52:23Z</time>
      </trkpt>
      <trkpt lat="44.04322" lon="7.31338">
        <ele>1055</ele>
        <time>2018-06-16T09:52:39Z</time>
      </trkpt>
      <trkpt lat="44.04318" lon="7.31327">
        <ele>1053</ele>
        <time>2018-06-16T09:52:49Z</time>
      </trkpt>
      <trkpt lat="44.04317" lon="7.31328">
        <ele>1053</ele>
        <time>2018-06-16T09:53:03Z</time>
      </trkpt>
      <trkpt lat="44.04317" lon="7.31339">
        <ele>1059</ele>
        <time>2018-06-16T09:53:16Z</time>
      </trkpt>
      <trkpt lat="44.04317" lon="7.31349">
        <ele>1061</ele>
        <time>2018-06-16T09:53:27Z</time>
      </trkpt>
      <trkpt lat="44.04322" lon="7.31363">
        <ele>1064</ele>
        <time>2018-06-16T09:53:40Z</time>
      </trkpt>
      <trkpt lat="44.04324" lon="7.31372">
        <ele>1065</ele>
        <time>2018-06-16T09:53:51Z</time>
      </trkpt>
      <trkpt lat="44.04316" lon="7.3137">
        <ele>1066</ele>
        <time>2018-06-16T09:54:03Z</time>
      </trkpt>
      <trkpt lat="44.04314" lon="7.31366">
        <ele>1067</ele>
        <time>2018-06-16T09:54:13Z</time>
      </trkpt>
      <trkpt lat="44.04307" lon="7.31356">
        <ele>1067</ele>
        <time>2018-06-16T09:54:24Z</time>
      </trkpt>
      <trkpt lat="44.04303" lon="7.31346">
        <ele>1068</ele>
        <time>2018-06-16T09:54:37Z</time>
      </trkpt>
      <trkpt lat="44.04302" lon="7.31336">
        <ele>1068</ele>
        <time>2018-06-16T09:54:49Z</time>
      </trkpt>
      <trkpt lat="44.04308" lon="7.31341">
        <ele>1064</ele>
        <time>2018-06-16T09:55:00Z</time>
      </trkpt>
      <trkpt lat="44.04312" lon="7.31357">
        <ele>1065</ele>
        <time>2018-06-16T09:55:11Z</time>
      </trkpt>
      <trkpt lat="44.04312" lon="7.31366">
        <ele>1067</ele>
        <time>2018-06-16T09:55:18Z</time>
      </trkpt>
      <trkpt lat="44.04312" lon="7.31379">
        <ele>1068</ele>
        <time>2018-06-16T09:55:33Z</time>
      </trkpt>
      <trkpt lat="44.04307" lon="7.31377">
        <ele>1069</ele>
        <time>2018-06-16T09:55:45Z</time>
      </trkpt>
      <trkpt lat="44.043" lon="7.31371">
        <ele>1071</ele>
        <time>2018-06-16T09:55:57Z</time>
      </trkpt>
      <trkpt lat="44.04295" lon="7.31364">
        <ele>1073</ele>
        <time>2018-06-16T09:56:10Z</time>
      </trkpt>
      <trkpt lat="44.04288" lon="7.31349">
        <ele>1075</ele>
        <time>2018-06-16T09:56:24Z</time>
      </trkpt>
      <trkpt lat="44.04282" lon="7.31337">
        <ele>1079</ele>
        <time>2018-06-16T09:56:36Z</time>
      </trkpt>
      <trkpt lat="44.04282" lon="7.3133">
        <ele>1073</ele>
        <time>2018-06-16T09:56:47Z</time>
      </trkpt>
      <trkpt lat="44.04284" lon="7.31336">
        <ele>1078</ele>
        <time>2018-06-16T09:57:00Z</time>
      </trkpt>
      <trkpt lat="44.04281" lon="7.31345">
        <ele>1079</ele>
        <time>2018-06-16T09:57:12Z</time>
      </trkpt>
      <trkpt lat="44.04285" lon="7.3136">
        <ele>1077</ele>
        <time>2018-06-16T09:57:26Z</time>
      </trkpt>
      <trkpt lat="44.04286" lon="7.31374">
        <ele>1076</ele>
        <time>2018-06-16T09:57:38Z</time>
      </trkpt>
      <trkpt lat="44.04288" lon="7.31386">
        <ele>1076</ele>
        <time>2018-06-16T09:57:50Z</time>
      </trkpt>
      <trkpt lat="44.04289" lon="7.31394">
        <ele>1076</ele>
        <time>2018-06-16T09:58:03Z</time>
      </trkpt>
      <trkpt lat="44.04282" lon="7.31385">
        <ele>1078</ele>
        <time>2018-06-16T09:58:15Z</time>
      </trkpt>
      <trkpt lat="44.04279" lon="7.31376">
        <ele>1078</ele>
        <time>2018-06-16T09:58:28Z</time>
      </trkpt>
      <trkpt lat="44.04275" lon="7.31365">
        <ele>1080</ele>
        <time>2018-06-16T09:58:39Z</time>
      </trkpt>
      <trkpt lat="44.04269" lon="7.3136">
        <ele>1082</ele>
        <time>2018-06-16T09:58:53Z</time>
      </trkpt>
      <trkpt lat="44.04264" lon="7.31351">
        <ele>1086</ele>
        <time>2018-06-16T09:59:07Z</time>
      </trkpt>
      <trkpt lat="44.0426" lon="7.31342">
        <ele>1091</ele>
        <time>2018-06-16T09:59:26Z</time>
      </trkpt>
      <trkpt lat="44.04258" lon="7.31325">
        <ele>1089</ele>
        <time>2018-06-16T09:59:39Z</time>
      </trkpt>
      <trkpt lat="44.0426" lon="7.31317">
        <ele>1083</ele>
        <time>2018-06-16T09:59:45Z</time>
      </trkpt>
      <trkpt lat="44.04266" lon="7.31303">
        <ele>1075</ele>
        <time>2018-06-16T09:59:59Z</time>
      </trkpt>
      <trkpt lat="44.04267" lon="7.31302">
        <ele>1074</ele>
        <time>2018-06-16T10:00:11Z</time>
      </trkpt>
      <trkpt lat="44.04267" lon="7.31301">
        <ele>1074</ele>
        <time>2018-06-16T10:00:26Z</time>
      </trkpt>
      <trkpt lat="44.04264" lon="7.31297">
        <ele>1074</ele>
        <time>2018-06-16T10:00:32Z</time>
      </trkpt>
      <trkpt lat="44.04257" lon="7.31286">
        <ele>1075</ele>
        <time>2018-06-16T10:00:44Z</time>
      </trkpt>
      <trkpt lat="44.04253" lon="7.31275">
        <ele>1076</ele>
        <time>2018-06-16T10:00:56Z</time>
      </trkpt>
      <trkpt lat="44.0426" lon="7.31278">
        <ele>1074</ele>
        <time>2018-06-16T10:01:09Z</time>
      </trkpt>
      <trkpt lat="44.0426" lon="7.31278">
        <ele>1074</ele>
        <time>2018-06-16T10:01:14Z</time>
      </trkpt>
      <trkpt lat="44.0426" lon="7.31291">
        <ele>1074</ele>
        <time>2018-06-16T10:01:26Z</time>
      </trkpt>
      <trkpt lat="44.04258" lon="7.31301">
        <ele>1077</ele>
        <time>2018-06-16T10:01:37Z</time>
      </trkpt>
      <trkpt lat="44.04257" lon="7.31305">
        <ele>1078</ele>
        <time>2018-06-16T10:01:44Z</time>
      </trkpt>
      <trkpt lat="44.04253" lon="7.31314">
        <ele>1083</ele>
        <time>2018-06-16T10:01:57Z</time>
      </trkpt>
      <trkpt lat="44.04251" lon="7.31317">
        <ele>1085</ele>
        <time>2018-06-16T10:02:11Z</time>
      </trkpt>
      <trkpt lat="44.04249" lon="7.31333">
        <ele>1104</ele>
        <time>2018-06-16T10:02:25Z</time>
      </trkpt>
      <trkpt lat="44.04251" lon="7.31343">
        <ele>1094</ele>
        <time>2018-06-16T10:02:37Z</time>
      </trkpt>
      <trkpt lat="44.0425" lon="7.31357">
        <ele>1117</ele>
        <time>2018-06-16T10:02:51Z</time>
      </trkpt>
      <trkpt lat="44.04239" lon="7.31351">
        <ele>1117</ele>
        <time>2018-06-16T10:03:06Z</time>
      </trkpt>
      <trkpt lat="44.0423" lon="7.31342">
        <ele>1119</ele>
        <time>2018-06-16T10:03:16Z</time>
      </trkpt>
      <trkpt lat="44.04223" lon="7.31333">
        <ele>1114</ele>
        <time>2018-06-16T10:03:28Z</time>
      </trkpt>
      <trkpt lat="44.04219" lon="7.31321">
        <ele>1115</ele>
        <time>2018-06-16T10:03:41Z</time>
      </trkpt>
      <trkpt lat="44.04219" lon="7.31313">
        <ele>1115</ele>
        <time>2018-06-16T10:03:47Z</time>
      </trkpt>
      <trkpt lat="44.04221" lon="7.31302">
        <ele>1114</ele>
        <time>2018-06-16T10:03:58Z</time>
      </trkpt>
      <trkpt lat="44.04218" lon="7.31296">
        <ele>1114</ele>
        <time>2018-06-16T10:04:08Z</time>
      </trkpt>
      <trkpt lat="44.04216" lon="7.3129">
        <ele>1114</ele>
        <time>2018-06-16T10:04:19Z</time>
      </trkpt>
      <trkpt lat="44.04216" lon="7.3129">
        <ele>1114</ele>
        <time>2018-06-16T10:04:21Z</time>
      </trkpt>
      <trkpt lat="44.04216" lon="7.31279">
        <ele>1112</ele>
        <time>2018-06-16T10:04:39Z</time>
      </trkpt>
      <trkpt lat="44.0421" lon="7.31276">
        <ele>1113</ele>
        <time>2018-06-16T10:04:49Z</time>
      </trkpt>
      <trkpt lat="44.04208" lon="7.31276">
        <ele>1114</ele>
        <time>2018-06-16T10:05:01Z</time>
      </trkpt>
      <trkpt lat="44.04212" lon="7.31283">
        <ele>1114</ele>
        <time>2018-06-16T10:05:12Z</time>
      </trkpt>
      <trkpt lat="44.0421" lon="7.31287">
        <ele>1115</ele>
        <time>2018-06-16T10:05:32Z</time>
      </trkpt>
      <trkpt lat="44.04211" lon="7.31289">
        <ele>1115</ele>
        <time>2018-06-16T10:05:47Z</time>
      </trkpt>
      <trkpt lat="44.0421" lon="7.31292">
        <ele>1115</ele>
        <time>2018-06-16T10:06:01Z</time>
      </trkpt>
      <trkpt lat="44.0421" lon="7.31297">
        <ele>1116</ele>
        <time>2018-06-16T10:06:15Z</time>
      </trkpt>
      <trkpt lat="44.0421" lon="7.31299">
        <ele>1116</ele>
        <time>2018-06-16T10:06:27Z</time>
      </trkpt>
      <trkpt lat="44.04209" lon="7.31309">
        <ele>1118</ele>
        <time>2018-06-16T10:06:39Z</time>
      </trkpt>
      <trkpt lat="44.04206" lon="7.31308">
        <ele>1118</ele>
        <time>2018-06-16T10:06:44Z</time>
      </trkpt>
      <trkpt lat="44.04198" lon="7.31304">
        <ele>1120</ele>
        <time>2018-06-16T10:07:00Z</time>
      </trkpt>
      <trkpt lat="44.04193" lon="7.31304">
        <ele>1122</ele>
        <time>2018-06-16T10:07:25Z</time>
      </trkpt>
      <trkpt lat="44.04185" lon="7.313">
        <ele>1123</ele>
        <time>2018-06-16T10:07:37Z</time>
      </trkpt>
      <trkpt lat="44.0418" lon="7.31299">
        <ele>1124</ele>
        <time>2018-06-16T10:07:48Z</time>
      </trkpt>
      <trkpt lat="44.04179" lon="7.31298">
        <ele>1124</ele>
        <time>2018-06-16T10:08:09Z</time>
      </trkpt>
      <trkpt lat="44.04178" lon="7.31299">
        <ele>1124</ele>
        <time>2018-06-16T10:08:14Z</time>
      </trkpt>
      <trkpt lat="44.04172" lon="7.31285">
        <ele>1122</ele>
        <time>2018-06-16T10:08:25Z</time>
      </trkpt>
      <trkpt lat="44.04164" lon="7.31274">
        <ele>1138</ele>
        <time>2018-06-16T10:08:38Z</time>
      </trkpt>
      <trkpt lat="44.0416" lon="7.3127">
        <ele>1137</ele>
        <time>2018-06-16T10:08:50Z</time>
      </trkpt>
      <trkpt lat="44.0416" lon="7.31268">
        <ele>1136</ele>
        <time>2018-06-16T10:09:04Z</time>
      </trkpt>
      <trkpt lat="44.0416" lon="7.31268">
        <ele>1136</ele>
        <time>2018-06-16T10:09:19Z</time>
      </trkpt>
      <trkpt lat="44.04162" lon="7.31274">
        <ele>1139</ele>
        <time>2018-06-16T10:09:29Z</time>
      </trkpt>
      <trkpt lat="44.04168" lon="7.31284">
        <ele>1122</ele>
        <time>2018-06-16T10:09:42Z</time>
      </trkpt>
      <trkpt lat="44.04174" lon="7.3129">
        <ele>1122</ele>
        <time>2018-06-16T10:09:53Z</time>
      </trkpt>
      <trkpt lat="44.04176" lon="7.31292">
        <ele>1123</ele>
        <time>2018-06-16T10:10:08Z</time>
      </trkpt>
      <trkpt lat="44.04176" lon="7.31292">
        <ele>1123</ele>
        <time>2018-06-16T10:10:50Z</time>
      </trkpt>
      <trkpt lat="44.04177" lon="7.31293">
        <ele>1123</ele>
        <time>2018-06-16T10:11:11Z</time>
      </trkpt>
      <trkpt lat="44.04177" lon="7.31293">
        <ele>1123</ele>
        <time>2018-06-16T10:11:50Z</time>
      </trkpt>
      <trkpt lat="44.04177" lon="7.31293">
        <ele>1123</ele>
        <time>2018-06-16T10:12:27Z</time>
      </trkpt>
      <trkpt lat="44.04178" lon="7.31294">
        <ele>1123</ele>
        <time>2018-06-16T10:13:02Z</time>
      </trkpt>
      <trkpt lat="44.04183" lon="7.31294">
        <ele>1122</ele>
        <time>2018-06-16T10:13:12Z</time>
      </trkpt>
      <trkpt lat="44.04182" lon="7.31294">
        <ele>1122</ele>
        <time>2018-06-16T10:13:52Z</time>
      </trkpt>
      <trkpt lat="44.04178" lon="7.31292">
        <ele>1122</ele>
        <time>2018-06-16T10:14:09Z</time>
      </trkpt>
      <trkpt lat="44.0418" lon="7.31294">
        <ele>1122</ele>
        <time>2018-06-16T10:14:31Z</time>
      </trkpt>
      <trkpt lat="44.0418" lon="7.31295">
        <ele>1122</ele>
        <time>2018-06-16T10:14:50Z</time>
      </trkpt>
      <trkpt lat="44.04181" lon="7.31294">
        <ele>1122</ele>
        <time>2018-06-16T10:15:44Z</time>
      </trkpt>
      <trkpt lat="44.0418" lon="7.31295">
        <ele>1123</ele>
        <time>2018-06-16T10:16:05Z</time>
      </trkpt>
      <trkpt lat="44.04179" lon="7.31292">
        <ele>1122</ele>
        <time>2018-06-16T10:16:35Z</time>
      </trkpt>
      <trkpt lat="44.0418" lon="7.31294">
        <ele>1122</ele>
        <time>2018-06-16T10:16:51Z</time>
      </trkpt>
      <trkpt lat="44.04182" lon="7.31294">
        <ele>1122</ele>
        <time>2018-06-16T10:17:04Z</time>
      </trkpt>
      <trkpt lat="44.04182" lon="7.31294">
        <ele>1122</ele>
        <time>2018-06-16T10:17:29Z</time>
      </trkpt>
      <trkpt lat="44.04182" lon="7.31295">
        <ele>1122</ele>
        <time>2018-06-16T10:17:48Z</time>
      </trkpt>
      <trkpt lat="44.04182" lon="7.31296">
        <ele>1122</ele>
        <time>2018-06-16T10:18:14Z</time>
      </trkpt>
      <trkpt lat="44.04182" lon="7.31295">
        <ele>1122</ele>
        <time>2018-06-16T10:19:51Z</time>
      </trkpt>
      <trkpt lat="44.04181" lon="7.31295">
        <ele>1122</ele>
        <time>2018-06-16T10:26:56Z</time>
      </trkpt>
      <trkpt lat="44.04179" lon="7.31296">
        <ele>1123</ele>
        <time>2018-06-16T10:38:27Z</time>
      </trkpt>
      <trkpt lat="44.0418" lon="7.31296">
        <ele>1123</ele>
        <time>2018-06-16T10:41:03Z</time>
      </trkpt>
      <trkpt lat="44.04179" lon="7.31296">
        <ele>1123</ele>
        <time>2018-06-16T10:55:07Z</time>
      </trkpt>
      <trkpt lat="44.04178" lon="7.31296">
        <ele>1123</ele>
        <time>2018-06-16T10:57:53Z</time>
      </trkpt>
      <trkpt lat="44.04178" lon="7.31296">
        <ele>1123</ele>
        <time>2018-06-16T10:58:33Z</time>
      </trkpt>
      <trkpt lat="44.04177" lon="7.31296">
        <ele>1123</ele>
        <time>2018-06-16T10:59:06Z</time>
      </trkpt>
      <trkpt lat="44.04176" lon="7.31296">
        <ele>1124</ele>
        <time>2018-06-16T10:59:39Z</time>
      </trkpt>
      <trkpt lat="44.04176" lon="7.31295">
        <ele>1123</ele>
        <time>2018-06-16T11:01:15Z</time>
      </trkpt>
      <trkpt lat="44.04177" lon="7.31295">
        <ele>1123</ele>
        <time>2018-06-16T11:02:07Z</time>
      </trkpt>
      <trkpt lat="44.04176" lon="7.31295">
        <ele>1123</ele>
        <time>2018-06-16T11:03:00Z</time>
      </trkpt>
      <trkpt lat="44.04176" lon="7.31295">
        <ele>1123</ele>
        <time>2018-06-16T11:03:17Z</time>
      </trkpt>
      <trkpt lat="44.04178" lon="7.31294">
        <ele>1123</ele>
        <time>2018-06-16T11:03:37Z</time>
      </trkpt>
      <trkpt lat="44.04179" lon="7.31292">
        <ele>1122</ele>
        <time>2018-06-16T11:03:59Z</time>
      </trkpt>
      <trkpt lat="44.04178" lon="7.31293">
        <ele>1122</ele>
        <time>2018-06-16T11:04:52Z</time>
      </trkpt>
      <trkpt lat="44.04179" lon="7.31292">
        <ele>1122</ele>
        <time>2018-06-16T11:05:18Z</time>
      </trkpt>
      <trkpt lat="44.04172" lon="7.31288">
        <ele>1122</ele>
        <time>2018-06-16T11:05:56Z</time>
      </trkpt>
      <trkpt lat="44.0417" lon="7.31288">
        <ele>1122</ele>
        <time>2018-06-16T11:06:26Z</time>
      </trkpt>
      <trkpt lat="44.0417" lon="7.31287">
        <ele>1122</ele>
        <time>2018-06-16T11:07:04Z</time>
      </trkpt>
      <trkpt lat="44.04169" lon="7.31284">
        <ele>1122</ele>
        <time>2018-06-16T11:07:24Z</time>
      </trkpt>
      <trkpt lat="44.04165" lon="7.31278">
        <ele>1140</ele>
        <time>2018-06-16T11:08:09Z</time>
      </trkpt>
      <trkpt lat="44.04157" lon="7.3127">
        <ele>1137</ele>
        <time>2018-06-16T11:08:22Z</time>
      </trkpt>
      <trkpt lat="44.04155" lon="7.3127">
        <ele>1138</ele>
        <time>2018-06-16T11:08:35Z</time>
      </trkpt>
      <trkpt lat="44.04147" lon="7.31262">
        <ele>1138</ele>
        <time>2018-06-16T11:08:44Z</time>
      </trkpt>
      <trkpt lat="44.04144" lon="7.3125">
        <ele>1138</ele>
        <time>2018-06-16T11:08:55Z</time>
      </trkpt>
      <trkpt lat="44.04137" lon="7.31244">
        <ele>1120</ele>
        <time>2018-06-16T11:09:07Z</time>
      </trkpt>
      <trkpt lat="44.04128" lon="7.31237">
        <ele>1120</ele>
        <time>2018-06-16T11:09:19Z</time>
      </trkpt>
      <trkpt lat="44.04123" lon="7.31228">
        <ele>1120</ele>
        <time>2018-06-16T11:09:31Z</time>
      </trkpt>
      <trkpt lat="44.04119" lon="7.31224">
        <ele>1120</ele>
        <time>2018-06-16T11:09:37Z</time>
      </trkpt>
      <trkpt lat="44.04114" lon="7.31221">
        <ele>1120</ele>
        <time>2018-06-16T11:09:48Z</time>
      </trkpt>
      <trkpt lat="44.04111" lon="7.31219">
        <ele>1120</ele>
        <time>2018-06-16T11:09:52Z</time>
      </trkpt>
      <trkpt lat="44.041" lon="7.312">
        <ele>1117</ele>
        <time>2018-06-16T11:10:05Z</time>
      </trkpt>
      <trkpt lat="44.04093" lon="7.31188">
        <ele>1116</ele>
        <time>2018-06-16T11:10:18Z</time>
      </trkpt>
      <trkpt lat="44.04087" lon="7.31175">
        <ele>1114</ele>
        <time>2018-06-16T11:10:30Z</time>
      </trkpt>
      <trkpt lat="44.04079" lon="7.31164">
        <ele>1110</ele>
        <time>2018-06-16T11:10:42Z</time>
      </trkpt>
      <trkpt lat="44.04069" lon="7.31155">
        <ele>1106</ele>
        <time>2018-06-16T11:10:55Z</time>
      </trkpt>
      <trkpt lat="44.04063" lon="7.31144">
        <ele>1102</ele>
        <time>2018-06-16T11:11:10Z</time>
      </trkpt>
      <trkpt lat="44.04062" lon="7.31144">
        <ele>1102</ele>
        <time>2018-06-16T11:11:12Z</time>
      </trkpt>
      <trkpt lat="44.0405" lon="7.31142">
        <ele>1101</ele>
        <time>2018-06-16T11:11:27Z</time>
      </trkpt>
      <trkpt lat="44.04042" lon="7.3114">
        <ele>1101</ele>
        <time>2018-06-16T11:11:38Z</time>
      </trkpt>
      <trkpt lat="44.04032" lon="7.31138">
        <ele>1101</ele>
        <time>2018-06-16T11:11:51Z</time>
      </trkpt>
      <trkpt lat="44.04023" lon="7.31138">
        <ele>1102</ele>
        <time>2018-06-16T11:12:07Z</time>
      </trkpt>
      <trkpt lat="44.0402" lon="7.31137">
        <ele>1103</ele>
        <time>2018-06-16T11:12:10Z</time>
      </trkpt>
      <trkpt lat="44.04012" lon="7.31134">
        <ele>1102</ele>
        <time>2018-06-16T11:12:26Z</time>
      </trkpt>
      <trkpt lat="44.04008" lon="7.31134">
        <ele>1102</ele>
        <time>2018-06-16T11:12:46Z</time>
      </trkpt>
      <trkpt lat="44.04001" lon="7.31135">
        <ele>1103</ele>
        <time>2018-06-16T11:12:51Z</time>
      </trkpt>
      <trkpt lat="44.03991" lon="7.31132">
        <ele>1104</ele>
        <time>2018-06-16T11:13:03Z</time>
      </trkpt>
      <trkpt lat="44.03984" lon="7.31127">
        <ele>1102</ele>
        <time>2018-06-16T11:13:14Z</time>
      </trkpt>
      <trkpt lat="44.03976" lon="7.31118">
        <ele>1099</ele>
        <time>2018-06-16T11:13:26Z</time>
      </trkpt>
      <trkpt lat="44.03976" lon="7.31117">
        <ele>1099</ele>
        <time>2018-06-16T11:13:27Z</time>
      </trkpt>
      <trkpt lat="44.03978" lon="7.31116">
        <ele>1098</ele>
        <time>2018-06-16T11:13:31Z</time>
      </trkpt>
      <trkpt lat="44.03987" lon="7.31112">
        <ele>1096</ele>
        <time>2018-06-16T11:13:44Z</time>
      </trkpt>
      <trkpt lat="44.03996" lon="7.31104">
        <ele>1092</ele>
        <time>2018-06-16T11:13:55Z</time>
      </trkpt>
      <trkpt lat="44.04002" lon="7.311">
        <ele>1088</ele>
        <time>2018-06-16T11:14:05Z</time>
      </trkpt>
      <trkpt lat="44.03991" lon="7.31103">
        <ele>1092</ele>
        <time>2018-06-16T11:14:16Z</time>
      </trkpt>
      <trkpt lat="44.03982" lon="7.31098">
        <ele>1091</ele>
        <time>2018-06-16T11:14:28Z</time>
      </trkpt>
      <trkpt lat="44.03982" lon="7.31097">
        <ele>1091</ele>
        <time>2018-06-16T11:14:29Z</time>
      </trkpt>
      <trkpt lat="44.03975" lon="7.31094">
        <ele>1092</ele>
        <time>2018-06-16T11:14:42Z</time>
      </trkpt>
      <trkpt lat="44.03977" lon="7.31087">
        <ele>1090</ele>
        <time>2018-06-16T11:14:46Z</time>
      </trkpt>
      <trkpt lat="44.03983" lon="7.31079">
        <ele>1066</ele>
        <time>2018-06-16T11:14:59Z</time>
      </trkpt>
      <trkpt lat="44.03984" lon="7.3108">
        <ele>1066</ele>
        <time>2018-06-16T11:15:21Z</time>
      </trkpt>
      <trkpt lat="44.0399" lon="7.31075">
        <ele>1067</ele>
        <time>2018-06-16T11:15:36Z</time>
      </trkpt>
      <trkpt lat="44.0399" lon="7.31074">
        <ele>1067</ele>
        <time>2018-06-16T11:15:46Z</time>
      </trkpt>
      <trkpt lat="44.03981" lon="7.31075">
        <ele>1064</ele>
        <time>2018-06-16T11:15:59Z</time>
      </trkpt>
      <trkpt lat="44.03974" lon="7.31077">
        <ele>1063</ele>
        <time>2018-06-16T11:16:12Z</time>
      </trkpt>
      <trkpt lat="44.03973" lon="7.31073">
        <ele>1062</ele>
        <time>2018-06-16T11:16:15Z</time>
      </trkpt>
      <trkpt lat="44.03969" lon="7.3107">
        <ele>1060</ele>
        <time>2018-06-16T11:16:30Z</time>
      </trkpt>
      <trkpt lat="44.03965" lon="7.31076">
        <ele>1061</ele>
        <time>2018-06-16T11:16:42Z</time>
      </trkpt>
      <trkpt lat="44.03959" lon="7.31077">
        <ele>1061</ele>
        <time>2018-06-16T11:16:51Z</time>
      </trkpt>
      <trkpt lat="44.0394" lon="7.31071">
        <ele>1062</ele>
        <time>2018-06-16T11:17:03Z</time>
      </trkpt>
      <trkpt lat="44.03937" lon="7.31069">
        <ele>1062</ele>
        <time>2018-06-16T11:17:06Z</time>
      </trkpt>
      <trkpt lat="44.0392" lon="7.31051">
        <ele>1057</ele>
        <time>2018-06-16T11:17:21Z</time>
      </trkpt>
      <trkpt lat="44.03917" lon="7.31042">
        <ele>1053</ele>
        <time>2018-06-16T11:17:36Z</time>
      </trkpt>
      <trkpt lat="44.03914" lon="7.31041">
        <ele>1053</ele>
        <time>2018-06-16T11:17:48Z</time>
      </trkpt>
      <trkpt lat="44.03914" lon="7.31045">
        <ele>1055</ele>
        <time>2018-06-16T11:18:01Z</time>
      </trkpt>
      <trkpt lat="44.03913" lon="7.31047">
        <ele>1056</ele>
        <time>2018-06-16T11:18:14Z</time>
      </trkpt>
      <trkpt lat="44.0391" lon="7.31051">
        <ele>1058</ele>
        <time>2018-06-16T11:18:23Z</time>
      </trkpt>
      <trkpt lat="44.039" lon="7.31058">
        <ele>1059</ele>
        <time>2018-06-16T11:18:36Z</time>
      </trkpt>
      <trkpt lat="44.03897" lon="7.31057">
        <ele>1059</ele>
        <time>2018-06-16T11:18:39Z</time>
      </trkpt>
      <trkpt lat="44.03893" lon="7.31057">
        <ele>1059</ele>
        <time>2018-06-16T11:18:43Z</time>
      </trkpt>
      <trkpt lat="44.03881" lon="7.31065">
        <ele>1060</ele>
        <time>2018-06-16T11:18:58Z</time>
      </trkpt>
      <trkpt lat="44.03869" lon="7.31069">
        <ele>1060</ele>
        <time>2018-06-16T11:19:06Z</time>
      </trkpt>
      <trkpt lat="44.03868" lon="7.3107">
        <ele>1061</ele>
        <time>2018-06-16T11:19:08Z</time>
      </trkpt>
      <trkpt lat="44.03866" lon="7.3108">
        <ele>1062</ele>
        <time>2018-06-16T11:19:18Z</time>
      </trkpt>
      <trkpt lat="44.03858" lon="7.3108">
        <ele>1063</ele>
        <time>2018-06-16T11:19:23Z</time>
      </trkpt>
      <trkpt lat="44.03854" lon="7.31081">
        <ele>1064</ele>
        <time>2018-06-16T11:19:32Z</time>
      </trkpt>
      <trkpt lat="44.03843" lon="7.31078">
        <ele>1068</ele>
        <time>2018-06-16T11:19:46Z</time>
      </trkpt>
      <trkpt lat="44.03832" lon="7.31073">
        <ele>1068</ele>
        <time>2018-06-16T11:19:58Z</time>
      </trkpt>
      <trkpt lat="44.0383" lon="7.31072">
        <ele>1067</ele>
        <time>2018-06-16T11:19:59Z</time>
      </trkpt>
      <trkpt lat="44.03819" lon="7.3106">
        <ele>1061</ele>
        <time>2018-06-16T11:20:11Z</time>
      </trkpt>
      <trkpt lat="44.03803" lon="7.31056">
        <ele>1058</ele>
        <time>2018-06-16T11:20:22Z</time>
      </trkpt>
      <trkpt lat="44.03799" lon="7.31054">
        <ele>1058</ele>
        <time>2018-06-16T11:20:26Z</time>
      </trkpt>
      <trkpt lat="44.03794" lon="7.31031">
        <ele>1053</ele>
        <time>2018-06-16T11:20:40Z</time>
      </trkpt>
      <trkpt lat="44.03787" lon="7.31012">
        <ele>1050</ele>
        <time>2018-06-16T11:20:53Z</time>
      </trkpt>
      <trkpt lat="44.03785" lon="7.31011">
        <ele>1049</ele>
        <time>2018-06-16T11:20:56Z</time>
      </trkpt>
      <trkpt lat="44.03782" lon="7.31003">
        <ele>1048</ele>
        <time>2018-06-16T11:21:09Z</time>
      </trkpt>
      <trkpt lat="44.03786" lon="7.30994">
        <ele>1028</ele>
        <time>2018-06-16T11:21:21Z</time>
      </trkpt>
      <trkpt lat="44.03792" lon="7.30994">
        <ele>1028</ele>
        <time>2018-06-16T11:21:29Z</time>
      </trkpt>
      <trkpt lat="44.03805" lon="7.30997">
        <ele>1028</ele>
        <time>2018-06-16T11:21:40Z</time>
      </trkpt>
      <trkpt lat="44.03803" lon="7.30998">
        <ele>1028</ele>
        <time>2018-06-16T11:21:45Z</time>
      </trkpt>
      <trkpt lat="44.038" lon="7.30994">
        <ele>1027</ele>
        <time>2018-06-16T11:21:53Z</time>
      </trkpt>
      <trkpt lat="44.03798" lon="7.3099">
        <ele>1027</ele>
        <time>2018-06-16T11:22:05Z</time>
      </trkpt>
      <trkpt lat="44.03795" lon="7.30985">
        <ele>1027</ele>
        <time>2018-06-16T11:22:10Z</time>
      </trkpt>
      <trkpt lat="44.03789" lon="7.30975">
        <ele>1025</ele>
        <time>2018-06-16T11:22:20Z</time>
      </trkpt>
      <trkpt lat="44.03787" lon="7.3097">
        <ele>1025</ele>
        <time>2018-06-16T11:22:23Z</time>
      </trkpt>
      <trkpt lat="44.03784" lon="7.30949">
        <ele>1021</ele>
        <time>2018-06-16T11:22:35Z</time>
      </trkpt>
      <trkpt lat="44.03776" lon="7.3094">
        <ele>1020</ele>
        <time>2018-06-16T11:22:48Z</time>
      </trkpt>
      <trkpt lat="44.03781" lon="7.30935">
        <ele>1019</ele>
        <time>2018-06-16T11:22:54Z</time>
      </trkpt>
      <trkpt lat="44.03786" lon="7.30936">
        <ele>1019</ele>
        <time>2018-06-16T11:23:05Z</time>
      </trkpt>
      <trkpt lat="44.03791" lon="7.30937">
        <ele>1019</ele>
        <time>2018-06-16T11:23:19Z</time>
      </trkpt>
      <trkpt lat="44.03785" lon="7.30931">
        <ele>1018</ele>
        <time>2018-06-16T11:23:32Z</time>
      </trkpt>
      <trkpt lat="44.03782" lon="7.3092">
        <ele>1017</ele>
        <time>2018-06-16T11:23:43Z</time>
      </trkpt>
      <trkpt lat="44.03784" lon="7.30903">
        <ele>998</ele>
        <time>2018-06-16T11:23:56Z</time>
      </trkpt>
      <trkpt lat="44.03783" lon="7.30899">
        <ele>998</ele>
        <time>2018-06-16T11:23:58Z</time>
      </trkpt>
      <trkpt lat="44.0378" lon="7.30881">
        <ele>995</ele>
        <time>2018-06-16T11:24:11Z</time>
      </trkpt>
      <trkpt lat="44.03781" lon="7.30878">
        <ele>994</ele>
        <time>2018-06-16T11:24:13Z</time>
      </trkpt>
      <trkpt lat="44.03774" lon="7.30866">
        <ele>992</ele>
        <time>2018-06-16T11:24:24Z</time>
      </trkpt>
      <trkpt lat="44.03773" lon="7.30866">
        <ele>992</ele>
        <time>2018-06-16T11:24:25Z</time>
      </trkpt>
      <trkpt lat="44.03767" lon="7.30865">
        <ele>992</ele>
        <time>2018-06-16T11:24:36Z</time>
      </trkpt>
      <trkpt lat="44.03766" lon="7.30867">
        <ele>992</ele>
        <time>2018-06-16T11:24:40Z</time>
      </trkpt>
      <trkpt lat="44.03759" lon="7.30872">
        <ele>993</ele>
        <time>2018-06-16T11:24:52Z</time>
      </trkpt>
      <trkpt lat="44.03759" lon="7.30883">
        <ele>996</ele>
        <time>2018-06-16T11:25:03Z</time>
      </trkpt>
      <trkpt lat="44.03756" lon="7.30896">
        <ele>1000</ele>
        <time>2018-06-16T11:25:15Z</time>
      </trkpt>
      <trkpt lat="44.03754" lon="7.30913">
        <ele>1008</ele>
        <time>2018-06-16T11:25:31Z</time>
      </trkpt>
      <trkpt lat="44.03754" lon="7.30917">
        <ele>1013</ele>
        <time>2018-06-16T11:25:36Z</time>
      </trkpt>
      <trkpt lat="44.03754" lon="7.30928">
        <ele>1016</ele>
        <time>2018-06-16T11:25:47Z</time>
      </trkpt>
      <trkpt lat="44.03754" lon="7.30933">
        <ele>1017</ele>
        <time>2018-06-16T11:25:52Z</time>
      </trkpt>
      <trkpt lat="44.03755" lon="7.30936">
        <ele>1018</ele>
        <time>2018-06-16T11:25:55Z</time>
      </trkpt>
      <trkpt lat="44.03754" lon="7.30947">
        <ele>1021</ele>
        <time>2018-06-16T11:26:06Z</time>
      </trkpt>
      <trkpt lat="44.03753" lon="7.30953">
        <ele>1022</ele>
        <time>2018-06-16T11:26:16Z</time>
      </trkpt>
      <trkpt lat="44.03751" lon="7.30952">
        <ele>1022</ele>
        <time>2018-06-16T11:26:32Z</time>
      </trkpt>
      <trkpt lat="44.03736" lon="7.30953">
        <ele>1020</ele>
        <time>2018-06-16T11:26:46Z</time>
      </trkpt>
      <trkpt lat="44.0373" lon="7.30949">
        <ele>1019</ele>
        <time>2018-06-16T11:26:56Z</time>
      </trkpt>
      <trkpt lat="44.03721" lon="7.30943">
        <ele>1017</ele>
        <time>2018-06-16T11:27:05Z</time>
      </trkpt>
      <trkpt lat="44.03707" lon="7.30936">
        <ele>1016</ele>
        <time>2018-06-16T11:27:17Z</time>
      </trkpt>
      <trkpt lat="44.03699" lon="7.30929">
        <ele>1014</ele>
        <time>2018-06-16T11:27:27Z</time>
      </trkpt>
      <trkpt lat="44.03688" lon="7.30918">
        <ele>1011</ele>
        <time>2018-06-16T11:27:40Z</time>
      </trkpt>
      <trkpt lat="44.03687" lon="7.30917">
        <ele>1011</ele>
        <time>2018-06-16T11:27:59Z</time>
      </trkpt>
      <trkpt lat="44.03687" lon="7.30916">
        <ele>998</ele>
        <time>2018-06-16T11:28:29Z</time>
      </trkpt>
      <trkpt lat="44.03687" lon="7.30916">
        <ele>998</ele>
        <time>2018-06-16T11:28:56Z</time>
      </trkpt>
      <trkpt lat="44.03687" lon="7.30915">
        <ele>998</ele>
        <time>2018-06-16T11:29:56Z</time>
      </trkpt>
      <trkpt lat="44.03687" lon="7.30914">
        <ele>998</ele>
        <time>2018-06-16T11:30:48Z</time>
      </trkpt>
      <trkpt lat="44.03687" lon="7.30912">
        <ele>998</ele>
        <time>2018-06-16T11:31:36Z</time>
      </trkpt>
      <trkpt lat="44.03686" lon="7.30911">
        <ele>998</ele>
        <time>2018-06-16T11:32:29Z</time>
      </trkpt>
      <trkpt lat="44.03689" lon="7.30909">
        <ele>997</ele>
        <time>2018-06-16T11:33:15Z</time>
      </trkpt>
      <trkpt lat="44.03688" lon="7.30908">
        <ele>997</ele>
        <time>2018-06-16T11:33:52Z</time>
      </trkpt>
      <trkpt lat="44.03684" lon="7.30902">
        <ele>997</ele>
        <time>2018-06-16T11:34:05Z</time>
      </trkpt>
      <trkpt lat="44.03681" lon="7.3089">
        <ele>995</ele>
        <time>2018-06-16T11:34:19Z</time>
      </trkpt>
      <trkpt lat="44.03675" lon="7.30882">
        <ele>993</ele>
        <time>2018-06-16T11:34:31Z</time>
      </trkpt>
      <trkpt lat="44.03665" lon="7.30879">
        <ele>981</ele>
        <time>2018-06-16T11:34:44Z</time>
      </trkpt>
      <trkpt lat="44.03656" lon="7.30877">
        <ele>980</ele>
        <time>2018-06-16T11:34:56Z</time>
      </trkpt>
      <trkpt lat="44.03645" lon="7.30873">
        <ele>977</ele>
        <time>2018-06-16T11:35:09Z</time>
      </trkpt>
      <trkpt lat="44.0364" lon="7.3087">
        <ele>976</ele>
        <time>2018-06-16T11:35:20Z</time>
      </trkpt>
      <trkpt lat="44.03635" lon="7.30868">
        <ele>976</ele>
        <time>2018-06-16T11:35:31Z</time>
      </trkpt>
      <trkpt lat="44.03633" lon="7.30864">
        <ele>975</ele>
        <time>2018-06-16T11:35:39Z</time>
      </trkpt>
      <trkpt lat="44.03631" lon="7.30863">
        <ele>974</ele>
        <time>2018-06-16T11:35:42Z</time>
      </trkpt>
      <trkpt lat="44.03622" lon="7.30866">
        <ele>973</ele>
        <time>2018-06-16T11:35:56Z</time>
      </trkpt>
      <trkpt lat="44.03618" lon="7.30863">
        <ele>972</ele>
        <time>2018-06-16T11:36:08Z</time>
      </trkpt>
      <trkpt lat="44.03619" lon="7.30855">
        <ele>971</ele>
        <time>2018-06-16T11:36:19Z</time>
      </trkpt>
      <trkpt lat="44.03618" lon="7.30855">
        <ele>971</ele>
        <time>2018-06-16T11:36:20Z</time>
      </trkpt>
      <trkpt lat="44.03612" lon="7.30854">
        <ele>970</ele>
        <time>2018-06-16T11:36:34Z</time>
      </trkpt>
      <trkpt lat="44.03607" lon="7.30852">
        <ele>968</ele>
        <time>2018-06-16T11:36:43Z</time>
      </trkpt>
      <trkpt lat="44.03604" lon="7.30847">
        <ele>966</ele>
        <time>2018-06-16T11:36:54Z</time>
      </trkpt>
      <trkpt lat="44.03601" lon="7.3085">
        <ele>966</ele>
        <time>2018-06-16T11:37:07Z</time>
      </trkpt>
      <trkpt lat="44.03599" lon="7.30851">
        <ele>966</ele>
        <time>2018-06-16T11:37:18Z</time>
      </trkpt>
      <trkpt lat="44.03596" lon="7.30852">
        <ele>966</ele>
        <time>2018-06-16T11:37:35Z</time>
      </trkpt>
      <trkpt lat="44.03593" lon="7.3085">
        <ele>964</ele>
        <time>2018-06-16T11:37:54Z</time>
      </trkpt>
      <trkpt lat="44.03591" lon="7.30851">
        <ele>964</ele>
        <time>2018-06-16T11:38:00Z</time>
      </trkpt>
      <trkpt lat="44.03587" lon="7.30856">
        <ele>965</ele>
        <time>2018-06-16T11:38:13Z</time>
      </trkpt>
      <trkpt lat="44.03583" lon="7.30862">
        <ele>948</ele>
        <time>2018-06-16T11:38:25Z</time>
      </trkpt>
      <trkpt lat="44.03574" lon="7.30863">
        <ele>947</ele>
        <time>2018-06-16T11:38:38Z</time>
      </trkpt>
      <trkpt lat="44.03571" lon="7.30859">
        <ele>946</ele>
        <time>2018-06-16T11:38:43Z</time>
      </trkpt>
      <trkpt lat="44.03566" lon="7.30858">
        <ele>946</ele>
        <time>2018-06-16T11:38:54Z</time>
      </trkpt>
      <trkpt lat="44.03564" lon="7.30854">
        <ele>945</ele>
        <time>2018-06-16T11:39:07Z</time>
      </trkpt>
      <trkpt lat="44.03563" lon="7.30857">
        <ele>945</ele>
        <time>2018-06-16T11:39:11Z</time>
      </trkpt>
      <trkpt lat="44.0356" lon="7.30862">
        <ele>944</ele>
        <time>2018-06-16T11:39:23Z</time>
      </trkpt>
      <trkpt lat="44.03549" lon="7.30858">
        <ele>942</ele>
        <time>2018-06-16T11:39:37Z</time>
      </trkpt>
      <trkpt lat="44.03548" lon="7.30858">
        <ele>941</ele>
        <time>2018-06-16T11:39:50Z</time>
      </trkpt>
      <trkpt lat="44.03539" lon="7.30855">
        <ele>939</ele>
        <time>2018-06-16T11:40:02Z</time>
      </trkpt>
      <trkpt lat="44.03537" lon="7.30856">
        <ele>938</ele>
        <time>2018-06-16T11:40:09Z</time>
      </trkpt>
      <trkpt lat="44.03536" lon="7.30857">
        <ele>938</ele>
        <time>2018-06-16T11:40:13Z</time>
      </trkpt>
      <trkpt lat="44.03527" lon="7.30854">
        <ele>935</ele>
        <time>2018-06-16T11:40:25Z</time>
      </trkpt>
      <trkpt lat="44.03522" lon="7.30844">
        <ele>932</ele>
        <time>2018-06-16T11:40:37Z</time>
      </trkpt>
      <trkpt lat="44.03515" lon="7.30839">
        <ele>928</ele>
        <time>2018-06-16T11:40:50Z</time>
      </trkpt>
      <trkpt lat="44.03513" lon="7.3083">
        <ele>919</ele>
        <time>2018-06-16T11:41:01Z</time>
      </trkpt>
      <trkpt lat="44.03512" lon="7.3083">
        <ele>919</ele>
        <time>2018-06-16T11:41:13Z</time>
      </trkpt>
      <trkpt lat="44.03512" lon="7.30837">
        <ele>925</ele>
        <time>2018-06-16T11:41:24Z</time>
      </trkpt>
      <trkpt lat="44.03512" lon="7.30847">
        <ele>928</ele>
        <time>2018-06-16T11:41:36Z</time>
      </trkpt>
      <trkpt lat="44.03512" lon="7.3085">
        <ele>929</ele>
        <time>2018-06-16T11:41:39Z</time>
      </trkpt>
      <trkpt lat="44.03509" lon="7.30857">
        <ele>931</ele>
        <time>2018-06-16T11:41:51Z</time>
      </trkpt>
      <trkpt lat="44.03505" lon="7.30868">
        <ele>933</ele>
        <time>2018-06-16T11:42:03Z</time>
      </trkpt>
      <trkpt lat="44.03506" lon="7.30873">
        <ele>934</ele>
        <time>2018-06-16T11:42:10Z</time>
      </trkpt>
      <trkpt lat="44.0351" lon="7.3088">
        <ele>935</ele>
        <time>2018-06-16T11:42:24Z</time>
      </trkpt>
      <trkpt lat="44.03509" lon="7.30881">
        <ele>935</ele>
        <time>2018-06-16T11:42:29Z</time>
      </trkpt>
      <trkpt lat="44.03502" lon="7.30884">
        <ele>935</ele>
        <time>2018-06-16T11:42:39Z</time>
      </trkpt>
      <trkpt lat="44.03491" lon="7.30885">
        <ele>912</ele>
        <time>2018-06-16T11:42:51Z</time>
      </trkpt>
      <trkpt lat="44.03487" lon="7.30888">
        <ele>912</ele>
        <time>2018-06-16T11:42:55Z</time>
      </trkpt>
      <trkpt lat="44.03481" lon="7.30893">
        <ele>912</ele>
        <time>2018-06-16T11:43:08Z</time>
      </trkpt>
      <trkpt lat="44.03475" lon="7.30895">
        <ele>910</ele>
        <time>2018-06-16T11:43:20Z</time>
      </trkpt>
      <trkpt lat="44.03461" lon="7.30902">
        <ele>907</ele>
        <time>2018-06-16T11:43:35Z</time>
      </trkpt>
      <trkpt lat="44.03451" lon="7.30906">
        <ele>904</ele>
        <time>2018-06-16T11:43:48Z</time>
      </trkpt>
      <trkpt lat="44.03446" lon="7.3091">
        <ele>903</ele>
        <time>2018-06-16T11:44:00Z</time>
      </trkpt>
      <trkpt lat="44.03441" lon="7.30913">
        <ele>902</ele>
        <time>2018-06-16T11:44:15Z</time>
      </trkpt>
      <trkpt lat="44.03439" lon="7.30913">
        <ele>902</ele>
        <time>2018-06-16T11:44:40Z</time>
      </trkpt>
      <trkpt lat="44.03437" lon="7.30915">
        <ele>901</ele>
        <time>2018-06-16T11:45:02Z</time>
      </trkpt>
      <trkpt lat="44.03427" lon="7.30921">
        <ele>908</ele>
        <time>2018-06-16T11:45:14Z</time>
      </trkpt>
      <trkpt lat="44.0342" lon="7.30925">
        <ele>905</ele>
        <time>2018-06-16T11:45:25Z</time>
      </trkpt>
      <trkpt lat="44.03413" lon="7.30928">
        <ele>895</ele>
        <time>2018-06-16T11:45:42Z</time>
      </trkpt>
      <trkpt lat="44.03405" lon="7.30931">
        <ele>894</ele>
        <time>2018-06-16T11:45:52Z</time>
      </trkpt>
      <trkpt lat="44.03401" lon="7.30937">
        <ele>894</ele>
        <time>2018-06-16T11:46:00Z</time>
      </trkpt>
      <trkpt lat="44.03387" lon="7.30943">
        <ele>892</ele>
        <time>2018-06-16T11:46:11Z</time>
      </trkpt>
      <trkpt lat="44.03375" lon="7.30949">
        <ele>890</ele>
        <time>2018-06-16T11:46:26Z</time>
      </trkpt>
      <trkpt lat="44.03366" lon="7.30962">
        <ele>891</ele>
        <time>2018-06-16T11:46:39Z</time>
      </trkpt>
      <trkpt lat="44.03354" lon="7.3097">
        <ele>890</ele>
        <time>2018-06-16T11:46:52Z</time>
      </trkpt>
      <trkpt lat="44.0335" lon="7.30973">
        <ele>889</ele>
        <time>2018-06-16T11:46:56Z</time>
      </trkpt>
      <trkpt lat="44.03339" lon="7.30976">
        <ele>888</ele>
        <time>2018-06-16T11:47:09Z</time>
      </trkpt>
      <trkpt lat="44.03336" lon="7.3098">
        <ele>888</ele>
        <time>2018-06-16T11:47:12Z</time>
      </trkpt>
      <trkpt lat="44.03333" lon="7.30982">
        <ele>868</ele>
        <time>2018-06-16T11:47:15Z</time>
      </trkpt>
      <trkpt lat="44.03325" lon="7.30992">
        <ele>872</ele>
        <time>2018-06-16T11:47:30Z</time>
      </trkpt>
      <trkpt lat="44.03319" lon="7.31">
        <ele>870</ele>
        <time>2018-06-16T11:47:42Z</time>
      </trkpt>
      <trkpt lat="44.03311" lon="7.31012">
        <ele>880</ele>
        <time>2018-06-16T11:47:54Z</time>
      </trkpt>
      <trkpt lat="44.03308" lon="7.31021">
        <ele>879</ele>
        <time>2018-06-16T11:48:06Z</time>
      </trkpt>
      <trkpt lat="44.03307" lon="7.31024">
        <ele>879</ele>
        <time>2018-06-16T11:48:16Z</time>
      </trkpt>
      <trkpt lat="44.03296" lon="7.31034">
        <ele>878</ele>
        <time>2018-06-16T11:48:28Z</time>
      </trkpt>
      <trkpt lat="44.03292" lon="7.31047">
        <ele>879</ele>
        <time>2018-06-16T11:48:40Z</time>
      </trkpt>
      <trkpt lat="44.03289" lon="7.31069">
        <ele>881</ele>
        <time>2018-06-16T11:48:55Z</time>
      </trkpt>
      <trkpt lat="44.03288" lon="7.31072">
        <ele>881</ele>
        <time>2018-06-16T11:49:00Z</time>
      </trkpt>
      <trkpt lat="44.03281" lon="7.31081">
        <ele>879</ele>
        <time>2018-06-16T11:49:12Z</time>
      </trkpt>
      <trkpt lat="44.03279" lon="7.31082">
        <ele>879</ele>
        <time>2018-06-16T11:49:14Z</time>
      </trkpt>
      <trkpt lat="44.03271" lon="7.31096">
        <ele>896</ele>
        <time>2018-06-16T11:49:27Z</time>
      </trkpt>
      <trkpt lat="44.03267" lon="7.31093">
        <ele>892</ele>
        <time>2018-06-16T11:49:39Z</time>
      </trkpt>
      <trkpt lat="44.03269" lon="7.31087">
        <ele>892</ele>
        <time>2018-06-16T11:49:44Z</time>
      </trkpt>
      <trkpt lat="44.03274" lon="7.31072">
        <ele>876</ele>
        <time>2018-06-16T11:49:57Z</time>
      </trkpt>
      <trkpt lat="44.03273" lon="7.31064">
        <ele>876</ele>
        <time>2018-06-16T11:50:09Z</time>
      </trkpt>
      <trkpt lat="44.03274" lon="7.31046">
        <ele>874</ele>
        <time>2018-06-16T11:50:24Z</time>
      </trkpt>
      <trkpt lat="44.03275" lon="7.31037">
        <ele>872</ele>
        <time>2018-06-16T11:50:32Z</time>
      </trkpt>
      <trkpt lat="44.03275" lon="7.31032">
        <ele>871</ele>
        <time>2018-06-16T11:50:36Z</time>
      </trkpt>
      <trkpt lat="44.03279" lon="7.31012">
        <ele>867</ele>
        <time>2018-06-16T11:50:50Z</time>
      </trkpt>
      <trkpt lat="44.03282" lon="7.30996">
        <ele>850</ele>
        <time>2018-06-16T11:51:02Z</time>
      </trkpt>
      <trkpt lat="44.03283" lon="7.30986">
        <ele>850</ele>
        <time>2018-06-16T11:51:13Z</time>
      </trkpt>
      <trkpt lat="44.03288" lon="7.30967">
        <ele>850</ele>
        <time>2018-06-16T11:51:26Z</time>
      </trkpt>
      <trkpt lat="44.03292" lon="7.30955">
        <ele>848</ele>
        <time>2018-06-16T11:51:40Z</time>
      </trkpt>
      <trkpt lat="44.03296" lon="7.30944">
        <ele>848</ele>
        <time>2018-06-16T11:51:55Z</time>
      </trkpt>
      <trkpt lat="44.03303" lon="7.30932">
        <ele>848</ele>
        <time>2018-06-16T11:52:08Z</time>
      </trkpt>
      <trkpt lat="44.03306" lon="7.30931">
        <ele>849</ele>
        <time>2018-06-16T11:52:11Z</time>
      </trkpt>
      <trkpt lat="44.0331" lon="7.30921">
        <ele>850</ele>
        <time>2018-06-16T11:52:19Z</time>
      </trkpt>
      <trkpt lat="44.03312" lon="7.30919">
        <ele>850</ele>
        <time>2018-06-16T11:52:23Z</time>
      </trkpt>
      <trkpt lat="44.03314" lon="7.30916">
        <ele>838</ele>
        <time>2018-06-16T11:52:26Z</time>
      </trkpt>
      <trkpt lat="44.03326" lon="7.30907">
        <ele>843</ele>
        <time>2018-06-16T11:52:39Z</time>
      </trkpt>
      <trkpt lat="44.03337" lon="7.30904">
        <ele>858</ele>
        <time>2018-06-16T11:52:50Z</time>
      </trkpt>
      <trkpt lat="44.03344" lon="7.30901">
        <ele>859</ele>
        <time>2018-06-16T11:52:57Z</time>
      </trkpt>
      <trkpt lat="44.03356" lon="7.30894">
        <ele>861</ele>
        <time>2018-06-16T11:53:12Z</time>
      </trkpt>
      <trkpt lat="44.03361" lon="7.30883">
        <ele>862</ele>
        <time>2018-06-16T11:53:24Z</time>
      </trkpt>
      <trkpt lat="44.03364" lon="7.30875">
        <ele>861</ele>
        <time>2018-06-16T11:53:31Z</time>
      </trkpt>
      <trkpt lat="44.0337" lon="7.30867">
        <ele>861</ele>
        <time>2018-06-16T11:53:42Z</time>
      </trkpt>
      <trkpt lat="44.03376" lon="7.30859">
        <ele>862</ele>
        <time>2018-06-16T11:53:53Z</time>
      </trkpt>
      <trkpt lat="44.03375" lon="7.30857">
        <ele>862</ele>
        <time>2018-06-16T11:53:56Z</time>
      </trkpt>
      <trkpt lat="44.03362" lon="7.30852">
        <ele>856</ele>
        <time>2018-06-16T11:54:10Z</time>
      </trkpt>
      <trkpt lat="44.03361" lon="7.30851">
        <ele>856</ele>
        <time>2018-06-16T11:54:21Z</time>
      </trkpt>
      <trkpt lat="44.03355" lon="7.30851">
        <ele>853</ele>
        <time>2018-06-16T11:54:36Z</time>
      </trkpt>
      <trkpt lat="44.03354" lon="7.30845">
        <ele>851</ele>
        <time>2018-06-16T11:54:47Z</time>
      </trkpt>
      <trkpt lat="44.03354" lon="7.30843">
        <ele>851</ele>
        <time>2018-06-16T11:55:06Z</time>
      </trkpt>
      <trkpt lat="44.03353" lon="7.30839">
        <ele>849</ele>
        <time>2018-06-16T11:55:21Z</time>
      </trkpt>
      <trkpt lat="44.03352" lon="7.30835">
        <ele>848</ele>
        <time>2018-06-16T11:55:36Z</time>
      </trkpt>
      <trkpt lat="44.03352" lon="7.30829">
        <ele>840</ele>
        <time>2018-06-16T11:56:06Z</time>
      </trkpt>
      <trkpt lat="44.03349" lon="7.30823">
        <ele>839</ele>
        <time>2018-06-16T11:56:16Z</time>
      </trkpt>
      <trkpt lat="44.03348" lon="7.30813">
        <ele>840</ele>
        <time>2018-06-16T11:56:29Z</time>
      </trkpt>
      <trkpt lat="44.03348" lon="7.30797">
        <ele>841</ele>
        <time>2018-06-16T11:56:42Z</time>
      </trkpt>
      <trkpt lat="44.03346" lon="7.30786">
        <ele>840</ele>
        <time>2018-06-16T11:56:55Z</time>
      </trkpt>
      <trkpt lat="44.03348" lon="7.30765">
        <ele>835</ele>
        <time>2018-06-16T11:57:06Z</time>
      </trkpt>
      <trkpt lat="44.03351" lon="7.30745">
        <ele>825</ele>
        <time>2018-06-16T11:57:18Z</time>
      </trkpt>
      <trkpt lat="44.03353" lon="7.3074">
        <ele>826</ele>
        <time>2018-06-16T11:57:21Z</time>
      </trkpt>
      <trkpt lat="44.03361" lon="7.30728">
        <ele>828</ele>
        <time>2018-06-16T11:57:35Z</time>
      </trkpt>
      <trkpt lat="44.03364" lon="7.30723">
        <ele>828</ele>
        <time>2018-06-16T11:57:40Z</time>
      </trkpt>
      <trkpt lat="44.0337" lon="7.30708">
        <ele>827</ele>
        <time>2018-06-16T11:57:52Z</time>
      </trkpt>
      <trkpt lat="44.03376" lon="7.30701">
        <ele>828</ele>
        <time>2018-06-16T11:58:07Z</time>
      </trkpt>
      <trkpt lat="44.03379" lon="7.30697">
        <ele>828</ele>
        <time>2018-06-16T11:58:21Z</time>
      </trkpt>
      <trkpt lat="44.03383" lon="7.3069">
        <ele>828</ele>
        <time>2018-06-16T11:58:27Z</time>
      </trkpt>
      <trkpt lat="44.03391" lon="7.30677">
        <ele>829</ele>
        <time>2018-06-16T11:58:39Z</time>
      </trkpt>
      <trkpt lat="44.03395" lon="7.30669">
        <ele>830</ele>
        <time>2018-06-16T11:58:52Z</time>
      </trkpt>
      <trkpt lat="44.03399" lon="7.30662">
        <ele>815</ele>
        <time>2018-06-16T11:59:04Z</time>
      </trkpt>
      <trkpt lat="44.03405" lon="7.30657">
        <ele>818</ele>
        <time>2018-06-16T11:59:13Z</time>
      </trkpt>
      <trkpt lat="44.03409" lon="7.3065">
        <ele>815</ele>
        <time>2018-06-16T11:59:20Z</time>
      </trkpt>
      <trkpt lat="44.03418" lon="7.30638">
        <ele>828</ele>
        <time>2018-06-16T11:59:32Z</time>
      </trkpt>
      <trkpt lat="44.03427" lon="7.30628">
        <ele>826</ele>
        <time>2018-06-16T11:59:44Z</time>
      </trkpt>
      <trkpt lat="44.03431" lon="7.30623">
        <ele>825</ele>
        <time>2018-06-16T11:59:49Z</time>
      </trkpt>
      <trkpt lat="44.03433" lon="7.30622">
        <ele>825</ele>
        <time>2018-06-16T11:59:53Z</time>
      </trkpt>
      <trkpt lat="44.03425" lon="7.30635">
        <ele>828</ele>
        <time>2018-06-16T12:00:05Z</time>
      </trkpt>
      <trkpt lat="44.03414" lon="7.3064">
        <ele>811</ele>
        <time>2018-06-16T12:00:19Z</time>
      </trkpt>
      <trkpt lat="44.03405" lon="7.30649">
        <ele>814</ele>
        <time>2018-06-16T12:00:32Z</time>
      </trkpt>
      <trkpt lat="44.03398" lon="7.30652">
        <ele>812</ele>
        <time>2018-06-16T12:00:43Z</time>
      </trkpt>
      <trkpt lat="44.03389" lon="7.30656">
        <ele>809</ele>
        <time>2018-06-16T12:00:57Z</time>
      </trkpt>
      <trkpt lat="44.03387" lon="7.30656">
        <ele>808</ele>
        <time>2018-06-16T12:01:12Z</time>
      </trkpt>
      <trkpt lat="44.03379" lon="7.30656">
        <ele>805</ele>
        <time>2018-06-16T12:01:27Z</time>
      </trkpt>
      <trkpt lat="44.03375" lon="7.30656">
        <ele>803</ele>
        <time>2018-06-16T12:01:42Z</time>
      </trkpt>
      <trkpt lat="44.03368" lon="7.30658">
        <ele>802</ele>
        <time>2018-06-16T12:02:12Z</time>
      </trkpt>
      <trkpt lat="44.0336" lon="7.30663">
        <ele>800</ele>
        <time>2018-06-16T12:02:28Z</time>
      </trkpt>
      <trkpt lat="44.03353" lon="7.30663">
        <ele>799</ele>
        <time>2018-06-16T12:02:40Z</time>
      </trkpt>
      <trkpt lat="44.03344" lon="7.30667">
        <ele>807</ele>
        <time>2018-06-16T12:02:53Z</time>
      </trkpt>
      <trkpt lat="44.03332" lon="7.30676">
        <ele>793</ele>
        <time>2018-06-16T12:03:08Z</time>
      </trkpt>
      <trkpt lat="44.0332" lon="7.30683">
        <ele>790</ele>
        <time>2018-06-16T12:03:23Z</time>
      </trkpt>
      <trkpt lat="44.03309" lon="7.3069">
        <ele>788</ele>
        <time>2018-06-16T12:03:36Z</time>
      </trkpt>
      <trkpt lat="44.03299" lon="7.30694">
        <ele>786</ele>
        <time>2018-06-16T12:03:50Z</time>
      </trkpt>
      <trkpt lat="44.03291" lon="7.30705">
        <ele>785</ele>
        <time>2018-06-16T12:04:01Z</time>
      </trkpt>
      <trkpt lat="44.0329" lon="7.30707">
        <ele>785</ele>
        <time>2018-06-16T12:04:03Z</time>
      </trkpt>
      <trkpt lat="44.03288" lon="7.3071">
        <ele>785</ele>
        <time>2018-06-16T12:04:05Z</time>
      </trkpt>
      <trkpt lat="44.03286" lon="7.30713">
        <ele>785</ele>
        <time>2018-06-16T12:04:08Z</time>
      </trkpt>
      <trkpt lat="44.03281" lon="7.30719">
        <ele>784</ele>
        <time>2018-06-16T12:04:14Z</time>
      </trkpt>
      <trkpt lat="44.03281" lon="7.30731">
        <ele>784</ele>
        <time>2018-06-16T12:04:25Z</time>
      </trkpt>
      <trkpt lat="44.0328" lon="7.30743">
        <ele>785</ele>
        <time>2018-06-16T12:04:36Z</time>
      </trkpt>
      <trkpt lat="44.0328" lon="7.30761">
        <ele>796</ele>
        <time>2018-06-16T12:04:47Z</time>
      </trkpt>
      <trkpt lat="44.03279" lon="7.30771">
        <ele>797</ele>
        <time>2018-06-16T12:04:58Z</time>
      </trkpt>
      <trkpt lat="44.03277" lon="7.30769">
        <ele>796</ele>
        <time>2018-06-16T12:05:01Z</time>
      </trkpt>
      <trkpt lat="44.03272" lon="7.30758">
        <ele>791</ele>
        <time>2018-06-16T12:05:11Z</time>
      </trkpt>
      <trkpt lat="44.0327" lon="7.30754">
        <ele>790</ele>
        <time>2018-06-16T12:05:16Z</time>
      </trkpt>
      <trkpt lat="44.03263" lon="7.30739">
        <ele>779</ele>
        <time>2018-06-16T12:05:31Z</time>
      </trkpt>
      <trkpt lat="44.03259" lon="7.30723">
        <ele>779</ele>
        <time>2018-06-16T12:05:43Z</time>
      </trkpt>
      <trkpt lat="44.03259" lon="7.30708">
        <ele>778</ele>
        <time>2018-06-16T12:05:55Z</time>
      </trkpt>
      <trkpt lat="44.03259" lon="7.30707">
        <ele>778</ele>
        <time>2018-06-16T12:05:56Z</time>
      </trkpt>
      <trkpt lat="44.03261" lon="7.30701">
        <ele>777</ele>
        <time>2018-06-16T12:06:00Z</time>
      </trkpt>
      <trkpt lat="44.03265" lon="7.30685">
        <ele>774</ele>
        <time>2018-06-16T12:06:14Z</time>
      </trkpt>
      <trkpt lat="44.03267" lon="7.3068">
        <ele>773</ele>
        <time>2018-06-16T12:06:30Z</time>
      </trkpt>
      <trkpt lat="44.03269" lon="7.30675">
        <ele>772</ele>
        <time>2018-06-16T12:06:40Z</time>
      </trkpt>
      <trkpt lat="44.03275" lon="7.30657">
        <ele>762</ele>
        <time>2018-06-16T12:06:53Z</time>
      </trkpt>
      <trkpt lat="44.0328" lon="7.30642">
        <ele>763</ele>
        <time>2018-06-16T12:07:05Z</time>
      </trkpt>
      <trkpt lat="44.03291" lon="7.30633">
        <ele>765</ele>
        <time>2018-06-16T12:07:21Z</time>
      </trkpt>
      <trkpt lat="44.03296" lon="7.30627">
        <ele>765</ele>
        <time>2018-06-16T12:07:33Z</time>
      </trkpt>
      <trkpt lat="44.03295" lon="7.30627">
        <ele>765</ele>
        <time>2018-06-16T12:07:50Z</time>
      </trkpt>
      <trkpt lat="44.03295" lon="7.30626">
        <ele>765</ele>
        <time>2018-06-16T12:08:07Z</time>
      </trkpt>
      <trkpt lat="44.03294" lon="7.30624">
        <ele>764</ele>
        <time>2018-06-16T12:08:23Z</time>
      </trkpt>
      <trkpt lat="44.03292" lon="7.30612">
        <ele>762</ele>
        <time>2018-06-16T12:08:36Z</time>
      </trkpt>
      <trkpt lat="44.03293" lon="7.30606">
        <ele>761</ele>
        <time>2018-06-16T12:08:53Z</time>
      </trkpt>
      <trkpt lat="44.03294" lon="7.30603">
        <ele>761</ele>
        <time>2018-06-16T12:09:08Z</time>
      </trkpt>
      <trkpt lat="44.033" lon="7.30595">
        <ele>762</ele>
        <time>2018-06-16T12:09:21Z</time>
      </trkpt>
      <trkpt lat="44.03302" lon="7.30589">
        <ele>762</ele>
        <time>2018-06-16T12:09:27Z</time>
      </trkpt>
      <trkpt lat="44.03311" lon="7.30578">
        <ele>749</ele>
        <time>2018-06-16T12:09:40Z</time>
      </trkpt>
      <trkpt lat="44.03319" lon="7.30574">
        <ele>752</ele>
        <time>2018-06-16T12:09:53Z</time>
      </trkpt>
      <trkpt lat="44.0332" lon="7.30572">
        <ele>752</ele>
        <time>2018-06-16T12:09:55Z</time>
      </trkpt>
      <trkpt lat="44.03327" lon="7.30562">
        <ele>749</ele>
        <time>2018-06-16T12:10:07Z</time>
      </trkpt>
      <trkpt lat="44.03337" lon="7.30551">
        <ele>762</ele>
        <time>2018-06-16T12:10:21Z</time>
      </trkpt>
      <trkpt lat="44.03336" lon="7.30556">
        <ele>763</ele>
        <time>2018-06-16T12:10:33Z</time>
      </trkpt>
      <trkpt lat="44.03334" lon="7.30557">
        <ele>763</ele>
        <time>2018-06-16T12:10:55Z</time>
      </trkpt>
      <trkpt lat="44.03334" lon="7.30558">
        <ele>763</ele>
        <time>2018-06-16T12:11:56Z</time>
      </trkpt>
      <trkpt lat="44.03334" lon="7.30558">
        <ele>763</ele>
        <time>2018-06-16T12:13:12Z</time>
      </trkpt>
      <trkpt lat="44.03334" lon="7.30558">
        <ele>763</ele>
        <time>2018-06-16T12:13:29Z</time>
      </trkpt>
      <trkpt lat="44.03326" lon="7.30565">
        <ele>751</ele>
        <time>2018-06-16T12:13:48Z</time>
      </trkpt>
      <trkpt lat="44.03321" lon="7.30572">
        <ele>752</ele>
        <time>2018-06-16T12:14:01Z</time>
      </trkpt>
      <trkpt lat="44.03311" lon="7.30572">
        <ele>748</ele>
        <time>2018-06-16T12:14:13Z</time>
      </trkpt>
      <trkpt lat="44.03299" lon="7.30576">
        <ele>745</ele>
        <time>2018-06-16T12:14:26Z</time>
      </trkpt>
      <trkpt lat="44.03291" lon="7.30578">
        <ele>743</ele>
        <time>2018-06-16T12:14:39Z</time>
      </trkpt>
      <trkpt lat="44.0329" lon="7.30572">
        <ele>742</ele>
        <time>2018-06-16T12:14:48Z</time>
      </trkpt>
      <trkpt lat="44.03291" lon="7.30565">
        <ele>741</ele>
        <time>2018-06-16T12:15:00Z</time>
      </trkpt>
      <trkpt lat="44.03288" lon="7.30556">
        <ele>739</ele>
        <time>2018-06-16T12:15:10Z</time>
      </trkpt>
      <trkpt lat="44.03284" lon="7.30556">
        <ele>739</ele>
        <time>2018-06-16T12:15:17Z</time>
      </trkpt>
      <trkpt lat="44.03282" lon="7.30547">
        <ele>737</ele>
        <time>2018-06-16T12:15:29Z</time>
      </trkpt>
      <trkpt lat="44.03288" lon="7.30546">
        <ele>738</ele>
        <time>2018-06-16T12:15:40Z</time>
      </trkpt>
      <trkpt lat="44.03291" lon="7.30544">
        <ele>738</ele>
        <time>2018-06-16T12:15:48Z</time>
      </trkpt>
      <trkpt lat="44.03299" lon="7.30535">
        <ele>738</ele>
        <time>2018-06-16T12:16:04Z</time>
      </trkpt>
      <trkpt lat="44.033" lon="7.30523">
        <ele>736</ele>
        <time>2018-06-16T12:16:16Z</time>
      </trkpt>
      <trkpt lat="44.03297" lon="7.30521">
        <ele>735</ele>
        <time>2018-06-16T12:16:29Z</time>
      </trkpt>
      <trkpt lat="44.03295" lon="7.30515">
        <ele>734</ele>
        <time>2018-06-16T12:16:41Z</time>
      </trkpt>
      <trkpt lat="44.03289" lon="7.30512">
        <ele>733</ele>
        <time>2018-06-16T12:16:55Z</time>
      </trkpt>
      <trkpt lat="44.03282" lon="7.30511">
        <ele>731</ele>
        <time>2018-06-16T12:17:04Z</time>
      </trkpt>
      <trkpt lat="44.03274" lon="7.30509">
        <ele>728</ele>
        <time>2018-06-16T12:17:16Z</time>
      </trkpt>
      <trkpt lat="44.03268" lon="7.30513">
        <ele>726</ele>
        <time>2018-06-16T12:17:28Z</time>
      </trkpt>
      <trkpt lat="44.03264" lon="7.30502">
        <ele>722</ele>
        <time>2018-06-16T12:17:41Z</time>
      </trkpt>
      <trkpt lat="44.03259" lon="7.30496">
        <ele>711</ele>
        <time>2018-06-16T12:17:53Z</time>
      </trkpt>
      <trkpt lat="44.03255" lon="7.3049">
        <ele>710</ele>
        <time>2018-06-16T12:18:05Z</time>
      </trkpt>
      <trkpt lat="44.03254" lon="7.30486">
        <ele>710</ele>
        <time>2018-06-16T12:18:15Z</time>
      </trkpt>
      <trkpt lat="44.03249" lon="7.30475">
        <ele>694</ele>
        <time>2018-06-16T12:18:27Z</time>
      </trkpt>
      <trkpt lat="44.03248" lon="7.30472">
        <ele>692</ele>
        <time>2018-06-16T12:18:30Z</time>
      </trkpt>
      <trkpt lat="44.03254" lon="7.30465">
        <ele>708</ele>
        <time>2018-06-16T12:18:43Z</time>
      </trkpt>
      <trkpt lat="44.03252" lon="7.30455">
        <ele>706</ele>
        <time>2018-06-16T12:18:56Z</time>
      </trkpt>
      <trkpt lat="44.03255" lon="7.30449">
        <ele>705</ele>
        <time>2018-06-16T12:19:08Z</time>
      </trkpt>
      <trkpt lat="44.03256" lon="7.30448">
        <ele>704</ele>
        <time>2018-06-16T12:19:40Z</time>
      </trkpt>
      <trkpt lat="44.03256" lon="7.30448">
        <ele>704</ele>
        <time>2018-06-16T12:20:10Z</time>
      </trkpt>
      <trkpt lat="44.03259" lon="7.30435">
        <ele>700</ele>
        <time>2018-06-16T12:20:40Z</time>
      </trkpt>
      <trkpt lat="44.03264" lon="7.30421">
        <ele>698</ele>
        <time>2018-06-16T12:20:52Z</time>
      </trkpt>
      <trkpt lat="44.03272" lon="7.30412">
        <ele>691</ele>
        <time>2018-06-16T12:21:05Z</time>
      </trkpt>
      <trkpt lat="44.03276" lon="7.30408">
        <ele>692</ele>
        <time>2018-06-16T12:21:12Z</time>
      </trkpt>
      <trkpt lat="44.03284" lon="7.30399">
        <ele>693</ele>
        <time>2018-06-16T12:21:25Z</time>
      </trkpt>
      <trkpt lat="44.03292" lon="7.30392">
        <ele>694</ele>
        <time>2018-06-16T12:21:34Z</time>
      </trkpt>
      <trkpt lat="44.03298" lon="7.30385">
        <ele>695</ele>
        <time>2018-06-16T12:21:42Z</time>
      </trkpt>
      <trkpt lat="44.03305" lon="7.30374">
        <ele>694</ele>
        <time>2018-06-16T12:21:50Z</time>
      </trkpt>
      <trkpt lat="44.03308" lon="7.30369">
        <ele>694</ele>
        <time>2018-06-16T12:21:54Z</time>
      </trkpt>
      <trkpt lat="44.0331" lon="7.30367">
        <ele>694</ele>
        <time>2018-06-16T12:21:56Z</time>
      </trkpt>
      <trkpt lat="44.03319" lon="7.30354">
        <ele>694</ele>
        <time>2018-06-16T12:22:10Z</time>
      </trkpt>
      <trkpt lat="44.03319" lon="7.30353">
        <ele>694</ele>
        <time>2018-06-16T12:22:14Z</time>
      </trkpt>
      <trkpt lat="44.03315" lon="7.30352">
        <ele>693</ele>
        <time>2018-06-16T12:22:29Z</time>
      </trkpt>
      <trkpt lat="44.03314" lon="7.30352">
        <ele>693</ele>
        <time>2018-06-16T12:22:46Z</time>
      </trkpt>
      <trkpt lat="44.03315" lon="7.30353">
        <ele>693</ele>
        <time>2018-06-16T12:23:11Z</time>
      </trkpt>
      <trkpt lat="44.03314" lon="7.30353">
        <ele>693</ele>
        <time>2018-06-16T12:23:18Z</time>
      </trkpt>
      <trkpt lat="44.03313" lon="7.30352">
        <ele>693</ele>
        <time>2018-06-16T12:23:50Z</time>
      </trkpt>
      <trkpt lat="44.03306" lon="7.30349">
        <ele>693</ele>
        <time>2018-06-16T12:24:01Z</time>
      </trkpt>
      <trkpt lat="44.03305" lon="7.30349">
        <ele>692</ele>
        <time>2018-06-16T12:24:03Z</time>
      </trkpt>
      <trkpt lat="44.03296" lon="7.30346">
        <ele>691</ele>
        <time>2018-06-16T12:24:15Z</time>
      </trkpt>
      <trkpt lat="44.03287" lon="7.30349">
        <ele>690</ele>
        <time>2018-06-16T12:24:27Z</time>
      </trkpt>
      <trkpt lat="44.03278" lon="7.30356">
        <ele>689</ele>
        <time>2018-06-16T12:24:40Z</time>
      </trkpt>
      <trkpt lat="44.03277" lon="7.30356">
        <ele>689</ele>
        <time>2018-06-16T12:24:41Z</time>
      </trkpt>
      <trkpt lat="44.03263" lon="7.3036">
        <ele>688</ele>
        <time>2018-06-16T12:24:54Z</time>
      </trkpt>
      <trkpt lat="44.03251" lon="7.30358">
        <ele>687</ele>
        <time>2018-06-16T12:25:08Z</time>
      </trkpt>
      <trkpt lat="44.03241" lon="7.3036">
        <ele>676</ele>
        <time>2018-06-16T12:25:18Z</time>
      </trkpt>
      <trkpt lat="44.03237" lon="7.30361">
        <ele>676</ele>
        <time>2018-06-16T12:25:22Z</time>
      </trkpt>
      <trkpt lat="44.0323" lon="7.30367">
        <ele>676</ele>
        <time>2018-06-16T12:25:29Z</time>
      </trkpt>
      <trkpt lat="44.0322" lon="7.30374">
        <ele>675</ele>
        <time>2018-06-16T12:25:40Z</time>
      </trkpt>
      <trkpt lat="44.03219" lon="7.30376">
        <ele>675</ele>
        <time>2018-06-16T12:25:42Z</time>
      </trkpt>
      <trkpt lat="44.03211" lon="7.30379">
        <ele>674</ele>
        <time>2018-06-16T12:25:55Z</time>
      </trkpt>
      <trkpt lat="44.03206" lon="7.30384">
        <ele>674</ele>
        <time>2018-06-16T12:26:04Z</time>
      </trkpt>
      <trkpt lat="44.03195" lon="7.30391">
        <ele>672</ele>
        <time>2018-06-16T12:26:17Z</time>
      </trkpt>
      <trkpt lat="44.03194" lon="7.30392">
        <ele>672</ele>
        <time>2018-06-16T12:26:18Z</time>
      </trkpt>
      <trkpt lat="44.03182" lon="7.30402">
        <ele>670</ele>
        <time>2018-06-16T12:26:33Z</time>
      </trkpt>
      <trkpt lat="44.03179" lon="7.30406">
        <ele>669</ele>
        <time>2018-06-16T12:26:45Z</time>
      </trkpt>
      <trkpt lat="44.03171" lon="7.30414">
        <ele>666</ele>
        <time>2018-06-16T12:26:57Z</time>
      </trkpt>
      <trkpt lat="44.03169" lon="7.3042">
        <ele>666</ele>
        <time>2018-06-16T12:27:03Z</time>
      </trkpt>
      <trkpt lat="44.03169" lon="7.30422">
        <ele>668</ele>
        <time>2018-06-16T12:27:05Z</time>
      </trkpt>
      <trkpt lat="44.03164" lon="7.30428">
        <ele>663</ele>
        <time>2018-06-16T12:27:13Z</time>
      </trkpt>
      <trkpt lat="44.03161" lon="7.30433">
        <ele>663</ele>
        <time>2018-06-16T12:27:18Z</time>
      </trkpt>
      <trkpt lat="44.0316" lon="7.30435">
        <ele>663</ele>
        <time>2018-06-16T12:27:20Z</time>
      </trkpt>
      <trkpt lat="44.03158" lon="7.30442">
        <ele>663</ele>
        <time>2018-06-16T12:27:25Z</time>
      </trkpt>
      <trkpt lat="44.03155" lon="7.30447">
        <ele>663</ele>
        <time>2018-06-16T12:27:30Z</time>
      </trkpt>
      <trkpt lat="44.03155" lon="7.30455">
        <ele>663</ele>
        <time>2018-06-16T12:27:35Z</time>
      </trkpt>
      <trkpt lat="44.03155" lon="7.30459">
        <ele>663</ele>
        <time>2018-06-16T12:27:38Z</time>
      </trkpt>
      <trkpt lat="44.03154" lon="7.30462">
        <ele>663</ele>
        <time>2018-06-16T12:27:40Z</time>
      </trkpt>
      <trkpt lat="44.03151" lon="7.30479">
        <ele>665</ele>
        <time>2018-06-16T12:27:54Z</time>
      </trkpt>
      <trkpt lat="44.03147" lon="7.30493">
        <ele>665</ele>
        <time>2018-06-16T12:28:06Z</time>
      </trkpt>
      <trkpt lat="44.03145" lon="7.30505">
        <ele>669</ele>
        <time>2018-06-16T12:28:15Z</time>
      </trkpt>
      <trkpt lat="44.03143" lon="7.30513">
        <ele>668</ele>
        <time>2018-06-16T12:28:27Z</time>
      </trkpt>
      <trkpt lat="44.03141" lon="7.30522">
        <ele>668</ele>
        <time>2018-06-16T12:28:36Z</time>
      </trkpt>
      <trkpt lat="44.03136" lon="7.30532">
        <ele>668</ele>
        <time>2018-06-16T12:28:45Z</time>
      </trkpt>
      <trkpt lat="44.0313" lon="7.30542">
        <ele>668</ele>
        <time>2018-06-16T12:29:00Z</time>
      </trkpt>
      <trkpt lat="44.03123" lon="7.30559">
        <ele>668</ele>
        <time>2018-06-16T12:29:14Z</time>
      </trkpt>
      <trkpt lat="44.03115" lon="7.30575">
        <ele>666</ele>
        <time>2018-06-16T12:29:28Z</time>
      </trkpt>
      <trkpt lat="44.03106" lon="7.30585">
        <ele>668</ele>
        <time>2018-06-16T12:29:41Z</time>
      </trkpt>
      <trkpt lat="44.03102" lon="7.3059">
        <ele>667</ele>
        <time>2018-06-16T12:29:46Z</time>
      </trkpt>
      <trkpt lat="44.03099" lon="7.30596">
        <ele>667</ele>
        <time>2018-06-16T12:29:52Z</time>
      </trkpt>
      <trkpt lat="44.03092" lon="7.30608">
        <ele>668</ele>
        <time>2018-06-16T12:30:03Z</time>
      </trkpt>
      <trkpt lat="44.03084" lon="7.30623">
        <ele>670</ele>
        <time>2018-06-16T12:30:17Z</time>
      </trkpt>
      <trkpt lat="44.03081" lon="7.30626">
        <ele>654</ele>
        <time>2018-06-16T12:30:31Z</time>
      </trkpt>
      <trkpt lat="44.03079" lon="7.30626">
        <ele>653</ele>
        <time>2018-06-16T12:30:57Z</time>
      </trkpt>
      <trkpt lat="44.03078" lon="7.30631">
        <ele>654</ele>
        <time>2018-06-16T12:31:31Z</time>
      </trkpt>
      <trkpt lat="44.03076" lon="7.30635">
        <ele>654</ele>
        <time>2018-06-16T12:31:34Z</time>
      </trkpt>
      <trkpt lat="44.03075" lon="7.3064">
        <ele>655</ele>
        <time>2018-06-16T12:31:38Z</time>
      </trkpt>
      <trkpt lat="44.03071" lon="7.30649">
        <ele>656</ele>
        <time>2018-06-16T12:31:45Z</time>
      </trkpt>
      <trkpt lat="44.03069" lon="7.30653">
        <ele>656</ele>
        <time>2018-06-16T12:31:49Z</time>
      </trkpt>
      <trkpt lat="44.03067" lon="7.3066">
        <ele>656</ele>
        <time>2018-06-16T12:31:55Z</time>
      </trkpt>
      <trkpt lat="44.03065" lon="7.30665">
        <ele>656</ele>
        <time>2018-06-16T12:31:59Z</time>
      </trkpt>
      <trkpt lat="44.03063" lon="7.30674">
        <ele>660</ele>
        <time>2018-06-16T12:32:05Z</time>
      </trkpt>
      <trkpt lat="44.0306" lon="7.30677">
        <ele>660</ele>
        <time>2018-06-16T12:32:09Z</time>
      </trkpt>
      <trkpt lat="44.03054" lon="7.30688">
        <ele>659</ele>
        <time>2018-06-16T12:32:19Z</time>
      </trkpt>
      <trkpt lat="44.0305" lon="7.30693">
        <ele>659</ele>
        <time>2018-06-16T12:32:23Z</time>
      </trkpt>
      <trkpt lat="44.03046" lon="7.30711">
        <ele>660</ele>
        <time>2018-06-16T12:32:36Z</time>
      </trkpt>
      <trkpt lat="44.03036" lon="7.30733">
        <ele>659</ele>
        <time>2018-06-16T12:32:52Z</time>
      </trkpt>
      <trkpt lat="44.03032" lon="7.3074">
        <ele>658</ele>
        <time>2018-06-16T12:32:58Z</time>
      </trkpt>
      <trkpt lat="44.03022" lon="7.30751">
        <ele>665</ele>
        <time>2018-06-16T12:33:11Z</time>
      </trkpt>
      <trkpt lat="44.03014" lon="7.30757">
        <ele>661</ele>
        <time>2018-06-16T12:33:21Z</time>
      </trkpt>
      <trkpt lat="44.03009" lon="7.30766">
        <ele>662</ele>
        <time>2018-06-16T12:33:26Z</time>
      </trkpt>
      <trkpt lat="44.02997" lon="7.30786">
        <ele>650</ele>
        <time>2018-06-16T12:33:43Z</time>
      </trkpt>
      <trkpt lat="44.02988" lon="7.30794">
        <ele>650</ele>
        <time>2018-06-16T12:33:55Z</time>
      </trkpt>
      <trkpt lat="44.02981" lon="7.30797">
        <ele>650</ele>
        <time>2018-06-16T12:34:02Z</time>
      </trkpt>
      <trkpt lat="44.0297" lon="7.30803">
        <ele>650</ele>
        <time>2018-06-16T12:34:12Z</time>
      </trkpt>
      <trkpt lat="44.02959" lon="7.30814">
        <ele>648</ele>
        <time>2018-06-16T12:34:24Z</time>
      </trkpt>
      <trkpt lat="44.02951" lon="7.30825">
        <ele>647</ele>
        <time>2018-06-16T12:34:34Z</time>
      </trkpt>
      <trkpt lat="44.02944" lon="7.3083">
        <ele>646</ele>
        <time>2018-06-16T12:34:40Z</time>
      </trkpt>
      <trkpt lat="44.0293" lon="7.30844">
        <ele>653</ele>
        <time>2018-06-16T12:34:55Z</time>
      </trkpt>
      <trkpt lat="44.02918" lon="7.30857">
        <ele>657</ele>
        <time>2018-06-16T12:35:09Z</time>
      </trkpt>
      <trkpt lat="44.02906" lon="7.30873">
        <ele>646</ele>
        <time>2018-06-16T12:35:24Z</time>
      </trkpt>
      <trkpt lat="44.02895" lon="7.30875">
        <ele>645</ele>
        <time>2018-06-16T12:35:33Z</time>
      </trkpt>
      <trkpt lat="44.02891" lon="7.30876">
        <ele>645</ele>
        <time>2018-06-16T12:35:37Z</time>
      </trkpt>
      <trkpt lat="44.02879" lon="7.30881">
        <ele>644</ele>
        <time>2018-06-16T12:35:46Z</time>
      </trkpt>
      <trkpt lat="44.02877" lon="7.30884">
        <ele>644</ele>
        <time>2018-06-16T12:35:50Z</time>
      </trkpt>
      <trkpt lat="44.02862" lon="7.3089">
        <ele>643</ele>
        <time>2018-06-16T12:36:03Z</time>
      </trkpt>
      <trkpt lat="44.02848" lon="7.30892">
        <ele>642</ele>
        <time>2018-06-16T12:36:17Z</time>
      </trkpt>
      <trkpt lat="44.02845" lon="7.30893">
        <ele>642</ele>
        <time>2018-06-16T12:36:20Z</time>
      </trkpt>
      <trkpt lat="44.02832" lon="7.30896">
        <ele>635</ele>
        <time>2018-06-16T12:36:31Z</time>
      </trkpt>
      <trkpt lat="44.02828" lon="7.30896">
        <ele>635</ele>
        <time>2018-06-16T12:36:35Z</time>
      </trkpt>
      <trkpt lat="44.02812" lon="7.30906">
        <ele>634</ele>
        <time>2018-06-16T12:36:50Z</time>
      </trkpt>
      <trkpt lat="44.02804" lon="7.3091">
        <ele>634</ele>
        <time>2018-06-16T12:36:59Z</time>
      </trkpt>
      <trkpt lat="44.02789" lon="7.30913">
        <ele>632</ele>
        <time>2018-06-16T12:37:12Z</time>
      </trkpt>
      <trkpt lat="44.02775" lon="7.30919">
        <ele>643</ele>
        <time>2018-06-16T12:37:24Z</time>
      </trkpt>
      <trkpt lat="44.02772" lon="7.30922">
        <ele>643</ele>
        <time>2018-06-16T12:37:27Z</time>
      </trkpt>
      <trkpt lat="44.0277" lon="7.30925">
        <ele>643</ele>
        <time>2018-06-16T12:37:31Z</time>
      </trkpt>
      <trkpt lat="44.02758" lon="7.30927">
        <ele>639</ele>
        <time>2018-06-16T12:37:43Z</time>
      </trkpt>
      <trkpt lat="44.02755" lon="7.30928">
        <ele>639</ele>
        <time>2018-06-16T12:37:45Z</time>
      </trkpt>
      <trkpt lat="44.02738" lon="7.30935">
        <ele>636</ele>
        <time>2018-06-16T12:37:58Z</time>
      </trkpt>
      <trkpt lat="44.02736" lon="7.30936">
        <ele>636</ele>
        <time>2018-06-16T12:38:00Z</time>
      </trkpt>
      <trkpt lat="44.02722" lon="7.30942">
        <ele>637</ele>
        <time>2018-06-16T12:38:13Z</time>
      </trkpt>
      <trkpt lat="44.02719" lon="7.30943">
        <ele>637</ele>
        <time>2018-06-16T12:38:16Z</time>
      </trkpt>
      <trkpt lat="44.02711" lon="7.30944">
        <ele>637</ele>
        <time>2018-06-16T12:38:22Z</time>
      </trkpt>
      <trkpt lat="44.02709" lon="7.30945">
        <ele>637</ele>
        <time>2018-06-16T12:38:24Z</time>
      </trkpt>
      <trkpt lat="44.02701" lon="7.30943">
        <ele>636</ele>
        <time>2018-06-16T12:38:30Z</time>
      </trkpt>
      <trkpt lat="44.02689" lon="7.30938">
        <ele>634</ele>
        <time>2018-06-16T12:38:43Z</time>
      </trkpt>
      <trkpt lat="44.02685" lon="7.30938">
        <ele>633</ele>
        <time>2018-06-16T12:38:46Z</time>
      </trkpt>
      <trkpt lat="44.02669" lon="7.30929">
        <ele>628</ele>
        <time>2018-06-16T12:38:59Z</time>
      </trkpt>
      <trkpt lat="44.02661" lon="7.30927">
        <ele>625</ele>
        <time>2018-06-16T12:39:07Z</time>
      </trkpt>
      <trkpt lat="44.02647" lon="7.30933">
        <ele>627</ele>
        <time>2018-06-16T12:39:20Z</time>
      </trkpt>
      <trkpt lat="44.02635" lon="7.30943">
        <ele>629</ele>
        <time>2018-06-16T12:39:34Z</time>
      </trkpt>
      <trkpt lat="44.02621" lon="7.3095">
        <ele>629</ele>
        <time>2018-06-16T12:39:48Z</time>
      </trkpt>
      <trkpt lat="44.0261" lon="7.30951">
        <ele>629</ele>
        <time>2018-06-16T12:39:59Z</time>
      </trkpt>
      <trkpt lat="44.02598" lon="7.30956">
        <ele>629</ele>
        <time>2018-06-16T12:40:09Z</time>
      </trkpt>
      <trkpt lat="44.02583" lon="7.30961">
        <ele>626</ele>
        <time>2018-06-16T12:40:21Z</time>
      </trkpt>
      <trkpt lat="44.02573" lon="7.30966">
        <ele>627</ele>
        <time>2018-06-16T12:40:30Z</time>
      </trkpt>
      <trkpt lat="44.02557" lon="7.30965">
        <ele>626</ele>
        <time>2018-06-16T12:40:43Z</time>
      </trkpt>
      <trkpt lat="44.0255" lon="7.30965">
        <ele>626</ele>
        <time>2018-06-16T12:40:48Z</time>
      </trkpt>
      <trkpt lat="44.02534" lon="7.30964">
        <ele>625</ele>
        <time>2018-06-16T12:41:01Z</time>
      </trkpt>
      <trkpt lat="44.02517" lon="7.30962">
        <ele>625</ele>
        <time>2018-06-16T12:41:15Z</time>
      </trkpt>
      <trkpt lat="44.02499" lon="7.3096">
        <ele>622</ele>
        <time>2018-06-16T12:41:29Z</time>
      </trkpt>
      <trkpt lat="44.02498" lon="7.30959">
        <ele>622</ele>
        <time>2018-06-16T12:41:30Z</time>
      </trkpt>
      <trkpt lat="44.0249" lon="7.30953">
        <ele>620</ele>
        <time>2018-06-16T12:41:45Z</time>
      </trkpt>
      <trkpt lat="44.02486" lon="7.30952">
        <ele>620</ele>
        <time>2018-06-16T12:41:59Z</time>
      </trkpt>
      <trkpt lat="44.02473" lon="7.30945">
        <ele>619</ele>
        <time>2018-06-16T12:42:12Z</time>
      </trkpt>
      <trkpt lat="44.0246" lon="7.30943">
        <ele>619</ele>
        <time>2018-06-16T12:42:24Z</time>
      </trkpt>
      <trkpt lat="44.02452" lon="7.30942">
        <ele>619</ele>
        <time>2018-06-16T12:42:31Z</time>
      </trkpt>
      <trkpt lat="44.02437" lon="7.30944">
        <ele>618</ele>
        <time>2018-06-16T12:42:44Z</time>
      </trkpt>
      <trkpt lat="44.02433" lon="7.30945">
        <ele>618</ele>
        <time>2018-06-16T12:42:48Z</time>
      </trkpt>
      <trkpt lat="44.02417" lon="7.30949">
        <ele>618</ele>
        <time>2018-06-16T12:43:03Z</time>
      </trkpt>
      <trkpt lat="44.02405" lon="7.3095">
        <ele>616</ele>
        <time>2018-06-16T12:43:15Z</time>
      </trkpt>
      <trkpt lat="44.02403" lon="7.3095">
        <ele>616</ele>
        <time>2018-06-16T12:43:16Z</time>
      </trkpt>
      <trkpt lat="44.02401" lon="7.3095">
        <ele>616</ele>
        <time>2018-06-16T12:43:18Z</time>
      </trkpt>
      <trkpt lat="44.02387" lon="7.30946">
        <ele>616</ele>
        <time>2018-06-16T12:43:30Z</time>
      </trkpt>
      <trkpt lat="44.02379" lon="7.30945">
        <ele>616</ele>
        <time>2018-06-16T12:43:36Z</time>
      </trkpt>
      <trkpt lat="44.02364" lon="7.30941">
        <ele>616</ele>
        <time>2018-06-16T12:43:50Z</time>
      </trkpt>
      <trkpt lat="44.02363" lon="7.30941">
        <ele>616</ele>
        <time>2018-06-16T12:43:51Z</time>
      </trkpt>
      <trkpt lat="44.0235" lon="7.30939">
        <ele>615</ele>
        <time>2018-06-16T12:44:05Z</time>
      </trkpt>
      <trkpt lat="44.02345" lon="7.3094">
        <ele>615</ele>
        <time>2018-06-16T12:44:10Z</time>
      </trkpt>
      <trkpt lat="44.0234" lon="7.30942">
        <ele>615</ele>
        <time>2018-06-16T12:44:15Z</time>
      </trkpt>
      <trkpt lat="44.02333" lon="7.30946">
        <ele>612</ele>
        <time>2018-06-16T12:44:21Z</time>
      </trkpt>
      <trkpt lat="44.02322" lon="7.30952">
        <ele>612</ele>
        <time>2018-06-16T12:44:31Z</time>
      </trkpt>
      <trkpt lat="44.02308" lon="7.30957">
        <ele>612</ele>
        <time>2018-06-16T12:44:45Z</time>
      </trkpt>
      <trkpt lat="44.02303" lon="7.30959">
        <ele>612</ele>
        <time>2018-06-16T12:44:50Z</time>
      </trkpt>
      <trkpt lat="44.02286" lon="7.30963">
        <ele>611</ele>
        <time>2018-06-16T12:45:04Z</time>
      </trkpt>
      <trkpt lat="44.02273" lon="7.30967">
        <ele>610</ele>
        <time>2018-06-16T12:45:15Z</time>
      </trkpt>
      <trkpt lat="44.02267" lon="7.30969">
        <ele>610</ele>
        <time>2018-06-16T12:45:20Z</time>
      </trkpt>
      <trkpt lat="44.02252" lon="7.30975">
        <ele>610</ele>
        <time>2018-06-16T12:45:34Z</time>
      </trkpt>
      <trkpt lat="44.02246" lon="7.30976">
        <ele>605</ele>
        <time>2018-06-16T12:45:41Z</time>
      </trkpt>
      <trkpt lat="44.02233" lon="7.30978">
        <ele>605</ele>
        <time>2018-06-16T12:45:52Z</time>
      </trkpt>
      <trkpt lat="44.0223" lon="7.3098">
        <ele>605</ele>
        <time>2018-06-16T12:45:55Z</time>
      </trkpt>
      <trkpt lat="44.02225" lon="7.30984">
        <ele>605</ele>
        <time>2018-06-16T12:46:03Z</time>
      </trkpt>
      <trkpt lat="44.02221" lon="7.30989">
        <ele>605</ele>
        <time>2018-06-16T12:46:09Z</time>
      </trkpt>
      <trkpt lat="44.02218" lon="7.30992">
        <ele>605</ele>
        <time>2018-06-16T12:46:12Z</time>
      </trkpt>
      <trkpt lat="44.02212" lon="7.31001">
        <ele>612</ele>
        <time>2018-06-16T12:46:20Z</time>
      </trkpt>
      <trkpt lat="44.02201" lon="7.31008">
        <ele>612</ele>
        <time>2018-06-16T12:46:33Z</time>
      </trkpt>
      <trkpt lat="44.02198" lon="7.31013">
        <ele>612</ele>
        <time>2018-06-16T12:46:37Z</time>
      </trkpt>
      <trkpt lat="44.02185" lon="7.31009">
        <ele>609</ele>
        <time>2018-06-16T12:46:49Z</time>
      </trkpt>
      <trkpt lat="44.02184" lon="7.31008">
        <ele>609</ele>
        <time>2018-06-16T12:46:50Z</time>
      </trkpt>
      <trkpt lat="44.02171" lon="7.31002">
        <ele>604</ele>
        <time>2018-06-16T12:47:00Z</time>
      </trkpt>
      <trkpt lat="44.0216" lon="7.31005">
        <ele>603</ele>
        <time>2018-06-16T12:47:10Z</time>
      </trkpt>
      <trkpt lat="44.02144" lon="7.31011">
        <ele>604</ele>
        <time>2018-06-16T12:47:24Z</time>
      </trkpt>
      <trkpt lat="44.02127" lon="7.31013">
        <ele>604</ele>
        <time>2018-06-16T12:47:41Z</time>
      </trkpt>
      <trkpt lat="44.02115" lon="7.3102">
        <ele>604</ele>
        <time>2018-06-16T12:47:50Z</time>
      </trkpt>
      <trkpt lat="44.02106" lon="7.31026">
        <ele>604</ele>
        <time>2018-06-16T12:47:58Z</time>
      </trkpt>
      <trkpt lat="44.02099" lon="7.31027">
        <ele>603</ele>
        <time>2018-06-16T12:48:04Z</time>
      </trkpt>
      <trkpt lat="44.02082" lon="7.31033">
        <ele>599</ele>
        <time>2018-06-16T12:48:21Z</time>
      </trkpt>
      <trkpt lat="44.02077" lon="7.31034">
        <ele>599</ele>
        <time>2018-06-16T12:48:25Z</time>
      </trkpt>
      <trkpt lat="44.02059" lon="7.3104">
        <ele>599</ele>
        <time>2018-06-16T12:48:41Z</time>
      </trkpt>
      <trkpt lat="44.02047" lon="7.31045">
        <ele>599</ele>
        <time>2018-06-16T12:48:52Z</time>
      </trkpt>
      <trkpt lat="44.02031" lon="7.31049">
        <ele>598</ele>
        <time>2018-06-16T12:49:06Z</time>
      </trkpt>
      <trkpt lat="44.02014" lon="7.31056">
        <ele>598</ele>
        <time>2018-06-16T12:49:21Z</time>
      </trkpt>
      <trkpt lat="44.02" lon="7.3106">
        <ele>598</ele>
        <time>2018-06-16T12:49:32Z</time>
      </trkpt>
      <trkpt lat="44.01995" lon="7.31062">
        <ele>595</ele>
        <time>2018-06-16T12:49:37Z</time>
      </trkpt>
      <trkpt lat="44.01978" lon="7.31067">
        <ele>595</ele>
        <time>2018-06-16T12:49:52Z</time>
      </trkpt>
      <trkpt lat="44.01962" lon="7.31071">
        <ele>594</ele>
        <time>2018-06-16T12:50:07Z</time>
      </trkpt>
      <trkpt lat="44.01948" lon="7.31072">
        <ele>594</ele>
        <time>2018-06-16T12:50:21Z</time>
      </trkpt>
      <trkpt lat="44.01936" lon="7.31078">
        <ele>593</ele>
        <time>2018-06-16T12:50:33Z</time>
      </trkpt>
      <trkpt lat="44.01934" lon="7.3108">
        <ele>593</ele>
        <time>2018-06-16T12:50:36Z</time>
      </trkpt>
      <trkpt lat="44.0193" lon="7.31082">
        <ele>593</ele>
        <time>2018-06-16T12:50:40Z</time>
      </trkpt>
      <trkpt lat="44.01926" lon="7.31083">
        <ele>593</ele>
        <time>2018-06-16T12:50:51Z</time>
      </trkpt>
      <trkpt lat="44.01924" lon="7.31082">
        <ele>593</ele>
        <time>2018-06-16T12:51:10Z</time>
      </trkpt>
      <trkpt lat="44.01922" lon="7.3108">
        <ele>593</ele>
        <time>2018-06-16T12:51:18Z</time>
      </trkpt>
      <trkpt lat="44.01918" lon="7.31076">
        <ele>593</ele>
        <time>2018-06-16T12:51:23Z</time>
      </trkpt>
      <trkpt lat="44.01916" lon="7.31072">
        <ele>591</ele>
        <time>2018-06-16T12:51:26Z</time>
      </trkpt>
      <trkpt lat="44.01912" lon="7.3107">
        <ele>591</ele>
        <time>2018-06-16T12:51:44Z</time>
      </trkpt>
      <trkpt lat="44.019" lon="7.31053">
        <ele>590</ele>
        <time>2018-06-16T12:51:59Z</time>
      </trkpt>
      <trkpt lat="44.01888" lon="7.31038">
        <ele>589</ele>
        <time>2018-06-16T12:52:13Z</time>
      </trkpt>
      <trkpt lat="44.01887" lon="7.31036">
        <ele>589</ele>
        <time>2018-06-16T12:52:15Z</time>
      </trkpt>
      <trkpt lat="44.01872" lon="7.31017">
        <ele>588</ele>
        <time>2018-06-16T12:52:32Z</time>
      </trkpt>
      <trkpt lat="44.0186" lon="7.31002">
        <ele>588</ele>
        <time>2018-06-16T12:52:46Z</time>
      </trkpt>
      <trkpt lat="44.01847" lon="7.30984">
        <ele>592</ele>
        <time>2018-06-16T12:53:02Z</time>
      </trkpt>
      <trkpt lat="44.01844" lon="7.30981">
        <ele>592</ele>
        <time>2018-06-16T12:53:05Z</time>
      </trkpt>
      <trkpt lat="44.01842" lon="7.30979">
        <ele>592</ele>
        <time>2018-06-16T12:53:07Z</time>
      </trkpt>
      <trkpt lat="44.01829" lon="7.30961">
        <ele>597</ele>
        <time>2018-06-16T12:53:23Z</time>
      </trkpt>
      <trkpt lat="44.01826" lon="7.30956">
        <ele>598</ele>
        <time>2018-06-16T12:53:27Z</time>
      </trkpt>
      <trkpt lat="44.01816" lon="7.30939">
        <ele>601</ele>
        <time>2018-06-16T12:53:41Z</time>
      </trkpt>
      <trkpt lat="44.01816" lon="7.30939">
        <ele>601</ele>
        <time>2018-06-16T12:53:42Z</time>
      </trkpt>
      <trkpt lat="44.01813" lon="7.30936">
        <ele>601</ele>
        <time>2018-06-16T12:53:51Z</time>
      </trkpt>
      <trkpt lat="44.0181" lon="7.30933">
        <ele>602</ele>
        <time>2018-06-16T12:53:55Z</time>
      </trkpt>
      <trkpt lat="44.01802" lon="7.30926">
        <ele>602</ele>
        <time>2018-06-16T12:54:04Z</time>
      </trkpt>
      <trkpt lat="44.01799" lon="7.30923">
        <ele>602</ele>
        <time>2018-06-16T12:54:08Z</time>
      </trkpt>
      <trkpt lat="44.01796" lon="7.30922">
        <ele>602</ele>
        <time>2018-06-16T12:54:10Z</time>
      </trkpt>
      <trkpt lat="44.01779" lon="7.30918">
        <ele>602</ele>
        <time>2018-06-16T12:54:24Z</time>
      </trkpt>
      <trkpt lat="44.0177" lon="7.3092">
        <ele>603</ele>
        <time>2018-06-16T12:54:32Z</time>
      </trkpt>
      <trkpt lat="44.01768" lon="7.3092">
        <ele>604</ele>
        <time>2018-06-16T12:54:34Z</time>
      </trkpt>
      <trkpt lat="44.01762" lon="7.30923">
        <ele>604</ele>
        <time>2018-06-16T12:54:39Z</time>
      </trkpt>
      <trkpt lat="44.01752" lon="7.30925">
        <ele>606</ele>
        <time>2018-06-16T12:54:48Z</time>
      </trkpt>
      <trkpt lat="44.01735" lon="7.30921">
        <ele>604</ele>
        <time>2018-06-16T12:55:02Z</time>
      </trkpt>
      <trkpt lat="44.01728" lon="7.3092">
        <ele>603</ele>
        <time>2018-06-16T12:55:07Z</time>
      </trkpt>
      <trkpt lat="44.01718" lon="7.30922">
        <ele>602</ele>
        <time>2018-06-16T12:55:16Z</time>
      </trkpt>
      <trkpt lat="44.01711" lon="7.30926">
        <ele>602</ele>
        <time>2018-06-16T12:55:22Z</time>
      </trkpt>
      <trkpt lat="44.01695" lon="7.30928">
        <ele>602</ele>
        <time>2018-06-16T12:55:36Z</time>
      </trkpt>
      <trkpt lat="44.01688" lon="7.3093">
        <ele>602</ele>
        <time>2018-06-16T12:55:42Z</time>
      </trkpt>
      <trkpt lat="44.01676" lon="7.3093">
        <ele>604</ele>
        <time>2018-06-16T12:55:53Z</time>
      </trkpt>
      <trkpt lat="44.01673" lon="7.30928">
        <ele>605</ele>
        <time>2018-06-16T12:56:09Z</time>
      </trkpt>
      <trkpt lat="44.01675" lon="7.30927">
        <ele>605</ele>
        <time>2018-06-16T12:56:30Z</time>
      </trkpt>
      <trkpt lat="44.01676" lon="7.30927">
        <ele>605</ele>
        <time>2018-06-16T12:56:31Z</time>
      </trkpt>
      <trkpt lat="44.0168" lon="7.30924">
        <ele>604</ele>
        <time>2018-06-16T12:56:35Z</time>
      </trkpt>
      <trkpt lat="44.01684" lon="7.30922">
        <ele>604</ele>
        <time>2018-06-16T12:56:38Z</time>
      </trkpt>
      <trkpt lat="44.01688" lon="7.30921">
        <ele>604</ele>
        <time>2018-06-16T12:56:42Z</time>
      </trkpt>
      <trkpt lat="44.01691" lon="7.30919">
        <ele>603</ele>
        <time>2018-06-16T12:56:45Z</time>
      </trkpt>
      <trkpt lat="44.01703" lon="7.30911">
        <ele>619</ele>
        <time>2018-06-16T12:56:59Z</time>
      </trkpt>
      <trkpt lat="44.01701" lon="7.30912">
        <ele>619</ele>
        <time>2018-06-16T12:57:01Z</time>
      </trkpt>
      <trkpt lat="44.01694" lon="7.30919">
        <ele>603</ele>
        <time>2018-06-16T12:57:14Z</time>
      </trkpt>
      <trkpt lat="44.01692" lon="7.3092">
        <ele>603</ele>
        <time>2018-06-16T12:57:33Z</time>
      </trkpt>
      <trkpt lat="44.0169" lon="7.30921">
        <ele>603</ele>
        <time>2018-06-16T12:57:35Z</time>
      </trkpt>
      <trkpt lat="44.01687" lon="7.30923">
        <ele>603</ele>
        <time>2018-06-16T12:57:37Z</time>
      </trkpt>
      <trkpt lat="44.01681" lon="7.30925">
        <ele>604</ele>
        <time>2018-06-16T12:57:43Z</time>
      </trkpt>
      <trkpt lat="44.01673" lon="7.3093">
        <ele>604</ele>
        <time>2018-06-16T12:57:56Z</time>
      </trkpt>
      <trkpt lat="44.01673" lon="7.3093">
        <ele>604</ele>
        <time>2018-06-16T12:58:30Z</time>
      </trkpt>
      <trkpt lat="44.01673" lon="7.30932">
        <ele>604</ele>
        <time>2018-06-16T12:58:37Z</time>
      </trkpt>
      <trkpt lat="44.01672" lon="7.30936">
        <ele>603</ele>
        <time>2018-06-16T12:58:50Z</time>
      </trkpt>
      <trkpt lat="44.01669" lon="7.30933">
        <ele>604</ele>
        <time>2018-06-16T12:59:00Z</time>
      </trkpt>
      <trkpt lat="44.01668" lon="7.30934">
        <ele>603</ele>
        <time>2018-06-16T12:59:02Z</time>
      </trkpt>
      <trkpt lat="44.01664" lon="7.30936">
        <ele>604</ele>
        <time>2018-06-16T12:59:05Z</time>
      </trkpt>
      <trkpt lat="44.01656" lon="7.30937">
        <ele>603</ele>
        <time>2018-06-16T12:59:12Z</time>
      </trkpt>
      <trkpt lat="44.0165" lon="7.30938">
        <ele>603</ele>
        <time>2018-06-16T12:59:17Z</time>
      </trkpt>
      <trkpt lat="44.01649" lon="7.30938">
        <ele>603</ele>
        <time>2018-06-16T12:59:18Z</time>
      </trkpt>
      <trkpt lat="44.01642" lon="7.30939">
        <ele>602</ele>
        <time>2018-06-16T12:59:24Z</time>
      </trkpt>
      <trkpt lat="44.01626" lon="7.30947">
        <ele>601</ele>
        <time>2018-06-16T12:59:37Z</time>
      </trkpt>
      <trkpt lat="44.0162" lon="7.30951">
        <ele>601</ele>
        <time>2018-06-16T12:59:43Z</time>
      </trkpt>
      <trkpt lat="44.01606" lon="7.30961">
        <ele>599</ele>
        <time>2018-06-16T12:59:56Z</time>
      </trkpt>
      <trkpt lat="44.01602" lon="7.30962">
        <ele>599</ele>
        <time>2018-06-16T12:59:59Z</time>
      </trkpt>
      <trkpt lat="44.01599" lon="7.30965">
        <ele>598</ele>
        <time>2018-06-16T13:00:02Z</time>
      </trkpt>
      <trkpt lat="44.01592" lon="7.30966">
        <ele>598</ele>
        <time>2018-06-16T13:00:08Z</time>
      </trkpt>
      <trkpt lat="44.01582" lon="7.3097">
        <ele>596</ele>
        <time>2018-06-16T13:00:17Z</time>
      </trkpt>
      <trkpt lat="44.01577" lon="7.30971">
        <ele>596</ele>
        <time>2018-06-16T13:00:21Z</time>
      </trkpt>
      <trkpt lat="44.01574" lon="7.30971">
        <ele>596</ele>
        <time>2018-06-16T13:00:24Z</time>
      </trkpt>
      <trkpt lat="44.0157" lon="7.30972">
        <ele>596</ele>
        <time>2018-06-16T13:00:28Z</time>
      </trkpt>
      <trkpt lat="44.0156" lon="7.30973">
        <ele>596</ele>
        <time>2018-06-16T13:00:36Z</time>
      </trkpt>
      <trkpt lat="44.01558" lon="7.30974">
        <ele>595</ele>
        <time>2018-06-16T13:00:38Z</time>
      </trkpt>
      <trkpt lat="44.01548" lon="7.30974">
        <ele>595</ele>
        <time>2018-06-16T13:00:46Z</time>
      </trkpt>
      <trkpt lat="44.0154" lon="7.30974">
        <ele>595</ele>
        <time>2018-06-16T13:00:53Z</time>
      </trkpt>
      <trkpt lat="44.01535" lon="7.30972">
        <ele>595</ele>
        <time>2018-06-16T13:00:57Z</time>
      </trkpt>
      <trkpt lat="44.01518" lon="7.30969">
        <ele>595</ele>
        <time>2018-06-16T13:01:11Z</time>
      </trkpt>
      <trkpt lat="44.01517" lon="7.30968">
        <ele>595</ele>
        <time>2018-06-16T13:01:12Z</time>
      </trkpt>
      <trkpt lat="44.01511" lon="7.30966">
        <ele>595</ele>
        <time>2018-06-16T13:01:17Z</time>
      </trkpt>
      <trkpt lat="44.01497" lon="7.30957">
        <ele>590</ele>
        <time>2018-06-16T13:01:28Z</time>
      </trkpt>
      <trkpt lat="44.01489" lon="7.30946">
        <ele>592</ele>
        <time>2018-06-16T13:01:37Z</time>
      </trkpt>
      <trkpt lat="44.0148" lon="7.30927">
        <ele>594</ele>
        <time>2018-06-16T13:01:51Z</time>
      </trkpt>
      <trkpt lat="44.01478" lon="7.30921">
        <ele>594</ele>
        <time>2018-06-16T13:01:55Z</time>
      </trkpt>
      <trkpt lat="44.01477" lon="7.30914">
        <ele>601</ele>
        <time>2018-06-16T13:01:59Z</time>
      </trkpt>
      <trkpt lat="44.01476" lon="7.30908">
        <ele>601</ele>
        <time>2018-06-16T13:02:03Z</time>
      </trkpt>
      <trkpt lat="44.01476" lon="7.30896">
        <ele>601</ele>
        <time>2018-06-16T13:02:10Z</time>
      </trkpt>
      <trkpt lat="44.01473" lon="7.30881">
        <ele>601</ele>
        <time>2018-06-16T13:02:19Z</time>
      </trkpt>
      <trkpt lat="44.01474" lon="7.30875">
        <ele>602</ele>
        <time>2018-06-16T13:02:23Z</time>
      </trkpt>
      <trkpt lat="44.01474" lon="7.30856">
        <ele>604</ele>
        <time>2018-06-16T13:02:34Z</time>
      </trkpt>
      <trkpt lat="44.01473" lon="7.30846">
        <ele>604</ele>
        <time>2018-06-16T13:02:41Z</time>
      </trkpt>
      <trkpt lat="44.01473" lon="7.30841">
        <ele>605</ele>
        <time>2018-06-16T13:02:44Z</time>
      </trkpt>
      <trkpt lat="44.01472" lon="7.30835">
        <ele>605</ele>
        <time>2018-06-16T13:02:48Z</time>
      </trkpt>
      <trkpt lat="44.01471" lon="7.30828">
        <ele>611</ele>
        <time>2018-06-16T13:02:52Z</time>
      </trkpt>
      <trkpt lat="44.01467" lon="7.30814">
        <ele>611</ele>
        <time>2018-06-16T13:03:01Z</time>
      </trkpt>
      <trkpt lat="44.01461" lon="7.30794">
        <ele>611</ele>
        <time>2018-06-16T13:03:15Z</time>
      </trkpt>
      <trkpt lat="44.01455" lon="7.30771">
        <ele>611</ele>
        <time>2018-06-16T13:03:31Z</time>
      </trkpt>
      <trkpt lat="44.01449" lon="7.30755">
        <ele>611</ele>
        <time>2018-06-16T13:03:42Z</time>
      </trkpt>
      <trkpt lat="44.01443" lon="7.30738">
        <ele>615</ele>
        <time>2018-06-16T13:03:54Z</time>
      </trkpt>
      <trkpt lat="44.0144" lon="7.30727">
        <ele>616</ele>
        <time>2018-06-16T13:04:02Z</time>
      </trkpt>
      <trkpt lat="44.01437" lon="7.30717">
        <ele>617</ele>
        <time>2018-06-16T13:04:09Z</time>
      </trkpt>
      <trkpt lat="44.01434" lon="7.30708">
        <ele>617</ele>
        <time>2018-06-16T13:04:15Z</time>
      </trkpt>
      <trkpt lat="44.01432" lon="7.30701">
        <ele>617</ele>
        <time>2018-06-16T13:04:20Z</time>
      </trkpt>
      <trkpt lat="44.01431" lon="7.30698">
        <ele>617</ele>
        <time>2018-06-16T13:04:22Z</time>
      </trkpt>
      <trkpt lat="44.01424" lon="7.3069">
        <ele>615</ele>
        <time>2018-06-16T13:04:29Z</time>
      </trkpt>
      <trkpt lat="44.01415" lon="7.30685">
        <ele>608</ele>
        <time>2018-06-16T13:04:38Z</time>
      </trkpt>
      <trkpt lat="44.0141" lon="7.30688">
        <ele>608</ele>
        <time>2018-06-16T13:04:42Z</time>
      </trkpt>
      <trkpt lat="44.01406" lon="7.3069">
        <ele>608</ele>
        <time>2018-06-16T13:04:45Z</time>
      </trkpt>
      <trkpt lat="44.01404" lon="7.30691">
        <ele>608</ele>
        <time>2018-06-16T13:04:47Z</time>
      </trkpt>
      <trkpt lat="44.01397" lon="7.30695">
        <ele>608</ele>
        <time>2018-06-16T13:04:53Z</time>
      </trkpt>
      <trkpt lat="44.01389" lon="7.30699">
        <ele>608</ele>
        <time>2018-06-16T13:04:59Z</time>
      </trkpt>
      <trkpt lat="44.01386" lon="7.30699">
        <ele>608</ele>
        <time>2018-06-16T13:05:01Z</time>
      </trkpt>
      <trkpt lat="44.01376" lon="7.30707">
        <ele>608</ele>
        <time>2018-06-16T13:05:14Z</time>
      </trkpt>
      <trkpt lat="44.01372" lon="7.30716">
        <ele>608</ele>
        <time>2018-06-16T13:05:21Z</time>
      </trkpt>
      <trkpt lat="44.01373" lon="7.30721">
        <ele>608</ele>
        <time>2018-06-16T13:05:24Z</time>
      </trkpt>
      <trkpt lat="44.01373" lon="7.30729">
        <ele>608</ele>
        <time>2018-06-16T13:05:30Z</time>
      </trkpt>
      <trkpt lat="44.01372" lon="7.30733">
        <ele>608</ele>
        <time>2018-06-16T13:05:33Z</time>
      </trkpt>
      <trkpt lat="44.0137" lon="7.30747">
        <ele>608</ele>
        <time>2018-06-16T13:05:42Z</time>
      </trkpt>
      <trkpt lat="44.01367" lon="7.30752">
        <ele>607</ele>
        <time>2018-06-16T13:05:46Z</time>
      </trkpt>
      <trkpt lat="44.01366" lon="7.30765">
        <ele>607</ele>
        <time>2018-06-16T13:05:54Z</time>
      </trkpt>
      <trkpt lat="44.01365" lon="7.30772">
        <ele>607</ele>
        <time>2018-06-16T13:05:58Z</time>
      </trkpt>
      <trkpt lat="44.01365" lon="7.30777">
        <ele>607</ele>
        <time>2018-06-16T13:06:01Z</time>
      </trkpt>
      <trkpt lat="44.01364" lon="7.30784">
        <ele>607</ele>
        <time>2018-06-16T13:06:05Z</time>
      </trkpt>
      <trkpt lat="44.01367" lon="7.30788">
        <ele>606</ele>
        <time>2018-06-16T13:06:08Z</time>
      </trkpt>
      <trkpt lat="44.01366" lon="7.30791">
        <ele>606</ele>
        <time>2018-06-16T13:06:10Z</time>
      </trkpt>
      <trkpt lat="44.0137" lon="7.30804">
        <ele>606</ele>
        <time>2018-06-16T13:06:19Z</time>
      </trkpt>
      <trkpt lat="44.01374" lon="7.30811">
        <ele>605</ele>
        <time>2018-06-16T13:06:24Z</time>
      </trkpt>
      <trkpt lat="44.01375" lon="7.30817">
        <ele>605</ele>
        <time>2018-06-16T13:06:27Z</time>
      </trkpt>
      <trkpt lat="44.01377" lon="7.30823">
        <ele>605</ele>
        <time>2018-06-16T13:06:32Z</time>
      </trkpt>
      <trkpt lat="44.01382" lon="7.30841">
        <ele>599</ele>
        <time>2018-06-16T13:06:43Z</time>
      </trkpt>
      <trkpt lat="44.01381" lon="7.30853">
        <ele>599</ele>
        <time>2018-06-16T13:06:50Z</time>
      </trkpt>
      <trkpt lat="44.01381" lon="7.30863">
        <ele>599</ele>
        <time>2018-06-16T13:06:56Z</time>
      </trkpt>
      <trkpt lat="44.01378" lon="7.30867">
        <ele>599</ele>
        <time>2018-06-16T13:06:59Z</time>
      </trkpt>
      <trkpt lat="44.01377" lon="7.30871">
        <ele>599</ele>
        <time>2018-06-16T13:07:01Z</time>
      </trkpt>
      <trkpt lat="44.01374" lon="7.30876">
        <ele>599</ele>
        <time>2018-06-16T13:07:05Z</time>
      </trkpt>
      <trkpt lat="44.0137" lon="7.3088">
        <ele>599</ele>
        <time>2018-06-16T13:07:08Z</time>
      </trkpt>
      <trkpt lat="44.01366" lon="7.30885">
        <ele>599</ele>
        <time>2018-06-16T13:07:13Z</time>
      </trkpt>
      <trkpt lat="44.01363" lon="7.30888">
        <ele>599</ele>
        <time>2018-06-16T13:07:16Z</time>
      </trkpt>
      <trkpt lat="44.01357" lon="7.30893">
        <ele>600</ele>
        <time>2018-06-16T13:07:22Z</time>
      </trkpt>
      <trkpt lat="44.01353" lon="7.30896">
        <ele>600</ele>
        <time>2018-06-16T13:07:26Z</time>
      </trkpt>
      <trkpt lat="44.01342" lon="7.30902">
        <ele>601</ele>
        <time>2018-06-16T13:07:37Z</time>
      </trkpt>
      <trkpt lat="44.0134" lon="7.30904">
        <ele>601</ele>
        <time>2018-06-16T13:07:40Z</time>
      </trkpt>
      <trkpt lat="44.01333" lon="7.30905">
        <ele>604</ele>
        <time>2018-06-16T13:07:52Z</time>
      </trkpt>
      <trkpt lat="44.0132" lon="7.30906">
        <ele>604</ele>
        <time>2018-06-16T13:08:04Z</time>
      </trkpt>
      <trkpt lat="44.0131" lon="7.30897">
        <ele>605</ele>
        <time>2018-06-16T13:08:15Z</time>
      </trkpt>
      <trkpt lat="44.01307" lon="7.30896">
        <ele>606</ele>
        <time>2018-06-16T13:08:17Z</time>
      </trkpt>
      <trkpt lat="44.013" lon="7.30888">
        <ele>606</ele>
        <time>2018-06-16T13:08:25Z</time>
      </trkpt>
      <trkpt lat="44.01299" lon="7.30887">
        <ele>606</ele>
        <time>2018-06-16T13:08:27Z</time>
      </trkpt>
      <trkpt lat="44.0129" lon="7.30878">
        <ele>607</ele>
        <time>2018-06-16T13:08:41Z</time>
      </trkpt>
      <trkpt lat="44.01285" lon="7.30871">
        <ele>607</ele>
        <time>2018-06-16T13:08:59Z</time>
      </trkpt>
      <trkpt lat="44.01277" lon="7.30858">
        <ele>607</ele>
        <time>2018-06-16T13:09:11Z</time>
      </trkpt>
      <trkpt lat="44.01268" lon="7.30848">
        <ele>608</ele>
        <time>2018-06-16T13:09:22Z</time>
      </trkpt>
      <trkpt lat="44.01258" lon="7.30838">
        <ele>608</ele>
        <time>2018-06-16T13:09:32Z</time>
      </trkpt>
      <trkpt lat="44.01253" lon="7.30834">
        <ele>609</ele>
        <time>2018-06-16T13:09:37Z</time>
      </trkpt>
      <trkpt lat="44.01244" lon="7.30821">
        <ele>610</ele>
        <time>2018-06-16T13:09:50Z</time>
      </trkpt>
      <trkpt lat="44.01235" lon="7.30813">
        <ele>611</ele>
        <time>2018-06-16T13:10:02Z</time>
      </trkpt>
      <trkpt lat="44.01235" lon="7.30811">
        <ele>611</ele>
        <time>2018-06-16T13:10:18Z</time>
      </trkpt>
      <trkpt lat="44.0123" lon="7.30806">
        <ele>611</ele>
        <time>2018-06-16T13:10:31Z</time>
      </trkpt>
      <trkpt lat="44.01225" lon="7.30802">
        <ele>611</ele>
        <time>2018-06-16T13:10:45Z</time>
      </trkpt>
      <trkpt lat="44.01225" lon="7.30802">
        <ele>611</ele>
        <time>2018-06-16T13:11:15Z</time>
      </trkpt>
      <trkpt lat="44.01226" lon="7.30801">
        <ele>611</ele>
        <time>2018-06-16T13:11:31Z</time>
      </trkpt>
      <trkpt lat="44.01232" lon="7.30809">
        <ele>611</ele>
        <time>2018-06-16T13:11:45Z</time>
      </trkpt>
      <trkpt lat="44.01239" lon="7.30809">
        <ele>611</ele>
        <time>2018-06-16T13:11:58Z</time>
      </trkpt>
      <trkpt lat="44.0124" lon="7.30804">
        <ele>611</ele>
        <time>2018-06-16T13:12:12Z</time>
      </trkpt>
      <trkpt lat="44.0124" lon="7.30804">
        <ele>611</ele>
        <time>2018-06-16T13:12:28Z</time>
      </trkpt>
      <trkpt lat="44.0124" lon="7.30803">
        <ele>611</ele>
        <time>2018-06-16T13:12:51Z</time>
      </trkpt>
      <trkpt lat="44.0124" lon="7.30803">
        <ele>611</ele>
        <time>2018-06-16T13:13:09Z</time>
      </trkpt>
      <trkpt lat="44.0124" lon="7.30802">
        <ele>611</ele>
        <time>2018-06-16T13:13:55Z</time>
      </trkpt>
    </trkseg>
  </trk>
</gpx>